Date StartTime U_cm/s V_cm/s W_cm/s Ustd_cm/s Vstd_cm/s Wstd_cm/s Uvar_(cm/s)^2 Vvar_(cm/s)^2 Wvar_(cm/s)^2 KE_(m/s)^2 TurbulentKE_(m/s)^2 HorizWindSpeed_cm/s FrictionSpeec_cm/s DragCoef SpeedOfSound_m/s SonicTemperature_C Pressure_mb 
06/28/2014  00:00:00       67.650       71.435        9.109       43.964       28.467       29.135     1932.857      810.397      848.859        0.668        0.180       98.385       20.428        0.043      342.940       18.701      860.203
06/28/2014  00:01:00       51.970       72.162       -4.732       41.504       35.247       27.599     1722.583     1242.373      761.678        0.583        0.186       88.928       21.400        0.058      342.890       18.618      860.210
06/28/2014  00:02:00       22.662      123.554      -13.640       30.062       41.709       22.574      903.746     1739.667      509.600        0.956        0.158      125.615       25.122        0.040      342.909       18.648      860.222
06/28/2014  00:03:00       22.894      118.012      -13.294       22.780       46.851       25.692      518.921     2195.043      660.064        0.900        0.169      120.212       30.010        0.062      342.957       18.731      860.227
06/28/2014  00:04:00       37.440      103.432       -9.271       30.859       64.466       29.249      952.299     4155.845      855.487        0.907        0.298      110.000       36.548        0.110      342.839       18.529      860.224
06/28/2014  00:05:00       42.760       90.975       -4.293       27.566       38.608       30.353      759.876     1490.557      921.319        0.665        0.159      100.523       20.422        0.041      342.790       18.446      860.219
06/28/2014  00:06:00       49.910       83.908       -3.741       30.871       43.863       26.466      953.028     1923.925      700.439        0.656        0.179       97.630       24.500        0.063      342.776       18.422      860.216
06/28/2014  00:07:00       48.615       93.111       -7.498       40.482       51.185       31.601     1638.791     2619.949      998.610        0.817        0.263      105.038       30.410        0.084      342.736       18.354      860.211
06/28/2014  00:08:00       32.024      108.601      -10.353       40.485       52.403       29.290     1639.047     2746.089      857.923        0.908        0.262      113.224       32.349        0.082      342.744       18.368      860.210
06/28/2014  00:09:00       51.273      111.235       -3.781       39.423       51.660       44.244     1554.184     2668.761     1957.521        1.060        0.309      122.483       39.380        0.103      342.759       18.394      860.209
06/28/2014  00:10:00       97.835      122.625        2.230       72.545       63.405       54.567     5262.807     4020.200     2977.522        1.844        0.613      156.871       45.515        0.084      342.764       18.400      860.178
06/28/2014  00:11:00       43.037      124.063        5.315       61.751       73.209       54.294     3813.166     5359.510     2947.787        1.469        0.606      131.315       45.711        0.121      342.721       18.328      860.157
06/28/2014  00:12:00       53.897      125.240      -11.117       67.816       84.563       56.421     4598.944     7150.963     3183.368        1.682        0.747      136.345       48.037        0.124      342.813       18.483      860.138
06/28/2014  00:13:00       39.518      157.743      -21.997       38.320       60.666       32.212     1468.409     3680.338     1037.622        1.656        0.309      162.618       25.193        0.024      342.784       18.435      860.139
06/28/2014  00:14:00       26.607      151.954      -24.899       25.132       28.543       18.595      631.629      814.690      345.789        1.310        0.090      154.265       14.261        0.009      342.785       18.437      860.151
06/28/2014  00:15:00        1.894      133.489      -19.838       14.078       20.582        8.218      198.204      423.635       67.529        0.945        0.034      133.503        5.043        0.001      342.867       18.578      860.164
06/28/2014  00:16:00       18.765      111.455      -11.187       15.290       16.466       11.653      233.792      271.130      135.785        0.677        0.032      113.024        7.530        0.004      342.815       18.488      860.156
06/28/2014  00:17:00       -6.229      126.388      -18.793       19.851       27.544       10.040      394.045      758.690      100.803        0.881        0.063      126.542        5.515        0.002      342.932       18.687      860.158
06/28/2014  00:18:00       49.217      160.686      -22.629       36.727       56.625       31.174     1348.861     3206.337      971.848        1.714        0.276      168.055       34.317        0.042      342.971       18.754      860.141
06/28/2014  00:19:00       64.976      185.850      -23.350       68.150       89.782       42.461     4644.359     8060.721     1802.911        2.691        0.725      196.881       45.644        0.054      343.050       18.887      860.117
06/28/2014  00:20:00       37.847       68.455        8.012       71.065       92.845       45.669     5050.301     8620.107     2085.634        1.097        0.788       78.221       42.504        0.295      343.446       19.563      860.121
06/28/2014  00:21:00      -30.999       39.615       16.341       48.191       51.661       25.825     2322.372     2668.811      666.951        0.423        0.283       50.302       31.939        0.403      342.950       18.718      860.130
06/28/2014  00:22:00      -19.115      133.775       -9.902       38.996       62.245       26.546     1520.702     3874.405      704.703        1.223        0.305      135.134       20.453        0.023      342.814       18.487      860.163
06/28/2014  00:23:00       47.747       91.073       -9.717       29.323       74.672       28.389      859.844     5575.853      805.963        0.895        0.362      102.830       29.547        0.083      342.775       18.420      860.146
06/28/2014  00:24:00       59.371       27.125        5.469       41.188       26.392       22.417     1696.430      696.543      502.508        0.359        0.145       65.274       13.653        0.044      342.666       18.236      860.155
06/28/2014  00:25:00       44.763       14.682       18.104       42.213       34.010       23.478     1781.932     1156.673      551.235        0.302        0.174       47.109       10.138        0.046      342.509       17.967      860.171
06/28/2014  00:26:00       22.841      -27.624        2.048       29.223       34.024       25.051      853.989     1157.613      627.528        0.196        0.132       35.844       15.862        0.196      342.082       17.241      860.195
06/28/2014  00:27:00       43.875      -72.175        0.787       36.931       60.018       27.869     1363.922     3602.130      776.677        0.644        0.287       84.465       34.113        0.163      342.523       17.993      860.210
06/28/2014  00:28:00       51.008      -68.628       -3.353       31.723       45.759       23.837     1006.319     2093.890      568.191        0.550        0.183       85.509       20.439        0.057      342.497       17.947      860.223
06/28/2014  00:29:00       53.047      -64.051       -4.020       54.025       54.095       33.205     2918.726     2926.244     1102.562        0.694        0.347       83.165       33.362        0.161      342.347       17.695      860.242
06/28/2014  00:30:00       32.638      -24.485       20.754       38.699       35.016       32.353     1497.612     1226.086     1046.688        0.293        0.189       40.801       27.479        0.454      341.964       17.043      860.257
06/28/2014  00:31:00       14.700      -18.181       18.922       30.518       32.185       23.995      931.328     1035.891      575.767        0.172        0.127       23.380       21.237        0.825      342.029       17.153      860.264
06/28/2014  00:32:00       77.551      -76.874       -9.493       39.108       34.896       26.637     1529.430     1217.704      709.549        0.773        0.173      109.197       15.905        0.021      341.877       16.894      860.257
06/28/2014  00:33:00       55.186      -60.713        1.212       23.854       35.177       19.925      569.015     1237.448      397.022        0.447        0.110       82.046       10.796        0.017      342.059       17.205      860.244
06/28/2014  00:34:00       12.111      -26.921       11.181       15.142       22.913       19.206      229.267      524.993      368.873        0.106        0.056       29.520       16.724        0.321      341.860       16.866      860.236
06/28/2014  00:35:00       27.261      -34.643        1.858       37.894       28.052       21.471     1435.938      786.931      461.016        0.231        0.134       44.083       12.367        0.079      341.743       16.667      860.229
06/28/2014  00:36:00       14.448        5.315       -3.720       26.609       34.170       20.236      708.047     1167.565      409.512        0.127        0.114       15.394       16.774        1.187      341.837       16.827      860.215
06/28/2014  00:37:00       52.818       42.224       32.339       26.804       24.067       26.052      718.443      579.222      678.688        0.380        0.099       67.621       12.994        0.037      342.285       17.587      860.195
06/28/2014  00:38:00        6.514      -14.658       23.863       12.462       23.088       17.665      155.297      533.068      312.065        0.091        0.050       16.040       10.486        0.427      342.135       17.333      860.192
06/28/2014  00:39:00        6.447      -73.665       -0.632       27.246       36.794       19.888      742.333     1353.802      395.541        0.398        0.125       73.946       14.566        0.039      342.055       17.197      860.185
06/28/2014  00:40:00        0.756      -82.410        5.365       33.306       28.221       25.269     1109.309      796.447      638.535        0.468        0.127       82.414       16.082        0.038      342.080       17.239      860.177
06/28/2014  00:41:00        6.502      -66.434       -8.038       16.335       24.653       16.925      266.821      607.757      286.460        0.284        0.058       66.751       12.212        0.033      342.269       17.560      860.201
06/28/2014  00:42:00       22.586      -40.033        2.827       18.074       14.198       11.610      326.686      201.580      134.800        0.139        0.033       45.965        7.189        0.024      342.492       17.940      860.207
06/28/2014  00:43:00       17.983       -4.615       25.182       21.441       19.924       12.005      459.697      396.954      144.110        0.099        0.050       18.565        9.102        0.240      342.327       17.660      860.204
06/28/2014  00:44:00       81.261      -43.806       16.213       37.965       33.054       30.590     1441.320     1092.551      935.743        0.613        0.173       92.316       14.118        0.023      342.125       17.317      860.210
06/28/2014  00:45:00       51.825      -38.086       16.315       34.507       32.874       27.288     1190.704     1080.684      744.623        0.371        0.151       64.315       19.916        0.096      341.936       16.995      860.195
06/28/2014  00:46:00       84.947       68.284       47.904       56.803       35.215       30.481     3226.531     1240.067      929.076        0.978        0.270      108.989       20.223        0.034      342.314       17.637      860.192
06/28/2014  00:47:00       63.036       78.546       57.755       55.887       27.294       33.932     3123.385      744.981     1151.362        0.925        0.251      100.712       33.604        0.111      342.470       17.902      860.212
06/28/2014  00:48:00        0.092       48.791       73.323       31.912       29.330       23.396     1018.348      860.242      547.391        0.509        0.121       48.791       16.976        0.121      342.252       17.533      860.220
06/28/2014  00:49:00       35.549      -38.657       16.775       54.563       65.250       44.327     2977.079     4257.560     1964.885        0.612        0.460       52.518       49.072        0.873      342.094       17.263      860.229
06/28/2014  00:50:00       26.717      -28.799       20.243       36.543       43.465       39.042     1335.374     1889.238     1524.292        0.335        0.237       39.284       18.112        0.213      342.198       17.438      860.239
06/28/2014  00:51:00       20.230      -22.013       32.209       34.924       44.000       32.944     1219.689     1936.024     1085.332        0.309        0.212       29.897       13.789        0.213      342.126       17.317      860.236
06/28/2014  00:52:00       80.529      -71.165        6.834       32.700       37.840       33.360     1069.297     1431.881     1112.879        0.760        0.181      107.468       21.660        0.041      341.920       16.967      860.234
06/28/2014  00:53:00       56.184      -62.510        8.403       33.924       36.298       32.309     1150.868     1317.568     1043.890        0.532        0.176       84.048       21.018        0.063      341.964       17.042      860.246
06/28/2014  00:54:00       60.943      -60.471       -9.964       29.863       25.181       22.422      891.776      634.096      502.724        0.475        0.101       85.853       16.233        0.036      341.996       17.096      860.241
06/28/2014  00:55:00       71.143      -52.057      -10.145       33.395       37.493       17.692     1115.195     1405.705      312.991        0.535        0.142       88.154       15.559        0.031      342.418       17.814      860.232
06/28/2014  00:56:00       69.674      -69.028      -10.585       29.062       40.845       23.728      844.618     1668.300      563.041        0.640        0.154       98.078       11.477        0.014      342.450       17.868      860.240
06/28/2014  00:57:00        0.809      -17.079       34.713       21.342       32.767       24.824      455.478     1073.685      616.215        0.182        0.107       17.098        4.954        0.084      342.370       17.732      860.233
06/28/2014  00:58:00       12.394      -42.599       16.656       21.860       40.311       31.858      477.872     1625.010     1014.946        0.268        0.156       44.365       21.425        0.233      342.473       17.908      860.230
06/28/2014  00:59:00       43.478      -20.962       17.809       30.778       32.034       25.666      947.274     1026.166      658.734        0.264        0.132       48.267       23.024        0.228      342.260       17.545      860.248
06/28/2014  01:00:00       61.808      -24.497       10.912       29.280       24.972       21.419      857.297      623.579      458.766        0.324        0.097       66.486       19.943        0.090      342.223       17.482      860.252
06/28/2014  01:01:00       66.924      -45.131        1.095       25.049       24.434       16.350      627.442      597.026      267.338        0.400        0.075       80.719       12.525        0.024      342.425       17.826      860.245
06/28/2014  01:02:00       30.002      -24.021       20.032       26.036       28.339       16.994      677.865      803.124      288.789        0.182        0.088       38.433       17.413        0.205      342.352       17.701      860.252
06/28/2014  01:03:00       47.468      -25.349       14.762       39.006       35.370       21.249     1521.462     1251.067      451.509        0.317        0.161       53.813       23.869        0.197      342.453       17.871      860.243
06/28/2014  01:04:00        6.997      -39.409        6.797       21.877       17.955       12.674      478.604      322.389      160.639        0.130        0.048       40.026        5.492        0.019      342.513       17.975      860.243
06/28/2014  01:05:00      -15.857       -3.737       10.160       13.987       11.220        8.675      195.625      125.892       75.257        0.038        0.020       16.291        5.312        0.106      342.343       17.686      860.242
06/28/2014  01:06:00      -20.295       -8.319        1.134       10.408        6.661        7.392      108.326       44.370       54.641        0.034        0.010       21.934        6.035        0.076      342.376       17.744      860.245
06/28/2014  01:07:00       14.934      -11.245        6.416       21.065       12.477       14.340      443.743      155.672      205.637        0.060        0.040       18.694        3.621        0.038      342.292       17.600      860.243
06/28/2014  01:08:00       68.162      -30.139        7.504       39.318       37.819       22.826     1545.933     1430.244      521.017        0.455        0.175       74.528        8.758        0.014      342.300       17.614      860.225
06/28/2014  01:09:00       56.161      -12.277        8.029       45.150       34.152       27.445     2038.557     1166.342      753.253        0.366        0.198       57.487       17.649        0.094      341.941       17.005      860.203
06/28/2014  01:10:00       39.333      -46.240       -0.083       39.294       35.116       31.507     1544.041     1233.101      992.708        0.373        0.188       60.706       24.878        0.168      342.085       17.248      860.194
06/28/2014  01:11:00       53.101      -56.201       -0.627       30.644       35.038       20.505      939.063     1227.656      420.472        0.428        0.129       77.319       18.921        0.060      342.531       18.005      860.189
06/28/2014  01:12:00       -7.784      -27.353       14.730       52.373       24.559       17.259     2742.968      603.160      297.878        0.233        0.182       28.439       18.218        0.410      342.305       17.621      860.182
06/28/2014  01:13:00     -137.161      -44.961       -4.072       34.774       36.709       17.438     1209.244     1347.585      304.072        1.186        0.143      144.342       13.331        0.009      341.998       17.101      860.182
06/28/2014  01:14:00     -173.695      -54.778      -14.745       33.981       52.420       23.636     1154.731     2747.860      558.649        1.892        0.223      182.128       15.619        0.007      341.860       16.867      860.184
06/28/2014  01:15:00      -91.638      -25.224       -1.446       36.874       27.348       23.030     1359.672      747.937      530.372        0.584        0.132       95.046       15.428        0.026      341.875       16.893      860.195
06/28/2014  01:16:00     -108.119      -44.541      -11.500       31.503       26.073       19.610      992.452      679.817      384.550        0.793        0.103      116.934        3.971        0.001      342.071       17.224      860.186
06/28/2014  01:17:00      -78.361      -38.583       -4.695       35.712       25.822       14.646     1275.359      666.766      214.508        0.490        0.108       87.345       11.626        0.018      342.085       17.248      860.181
06/28/2014  01:18:00      -43.724      -40.860        1.693       17.482       25.355       11.678      305.609      642.881      136.374        0.233        0.054       59.844        9.812        0.027      342.222       17.482      860.178
06/28/2014  01:19:00       17.764       -8.485        7.788       32.624       22.395       18.180     1064.331      501.538      330.518        0.117        0.095       19.687        8.907        0.205      342.040       17.171      860.179
06/28/2014  01:20:00       19.786      -27.221       12.830       30.253       28.319       17.399      915.224      801.983      302.721        0.166        0.101       33.652       18.689        0.308      341.980       17.070      860.180
06/28/2014  01:21:00      -17.654      -35.071       12.142       21.210       32.488       23.470      449.863     1055.498      550.856        0.187        0.103       39.264       24.900        0.402      342.040       17.171      860.191
06/28/2014  01:22:00       -3.835      -30.468        4.546       38.815       18.898       19.394     1506.579      357.134      376.108        0.160        0.112       30.709       19.370        0.398      341.977       17.066      860.209
06/28/2014  01:23:00      -94.217      -21.010       -6.271       24.066       25.418       17.646      579.156      646.083      311.395        0.545        0.077       96.531       12.924        0.018      341.712       16.615      860.220
06/28/2014  01:24:00     -117.247       -6.119      -11.599       68.994       35.444       33.053     4760.209     1256.268     1092.476        1.051        0.355      117.406       34.614        0.087      341.605       16.433      860.232
06/28/2014  01:25:00     -149.024       26.302       -8.082       68.788       38.469       33.026     4731.760     1479.879     1090.686        1.513        0.365      151.328       33.993        0.050      341.484       16.228      860.241
06/28/2014  01:26:00     -186.316       29.102      -13.900       41.364       33.252       23.234     1711.007     1105.667      539.820        1.955        0.168      188.575       21.251        0.013      341.549       16.337      860.238
06/28/2014  01:27:00     -156.599       22.964       -7.761       39.538       40.345       22.432     1563.251     1627.724      503.196        1.440        0.185      158.274       16.669        0.011      341.711       16.612      860.222
06/28/2014  01:28:00     -111.385      -45.784       -6.272       25.566       34.572       19.716      653.644     1195.209      388.713        0.839        0.112      120.428        5.615        0.002      341.653       16.515      860.204
06/28/2014  01:29:00      -93.833      -46.340       -6.168       22.652       24.600       17.480      513.109      605.156      305.553        0.621        0.071      104.652       12.257        0.014      341.556       16.350      860.193
06/28/2014  01:30:00      -88.415        0.416       -5.920       27.542       29.466       15.587      758.583      868.232      242.943        0.486        0.093       88.416        8.317        0.009      341.772       16.716      860.185
06/28/2014  01:31:00     -108.835        5.130      -11.429       43.068       32.764       20.459     1854.877     1073.458      418.588        0.767        0.167      108.956       18.279        0.028      341.847       16.845      860.178
06/28/2014  01:32:00     -112.447       13.868      -13.332       32.567       26.573       19.076     1060.631      706.149      363.910        0.757        0.107      113.299       12.168        0.012      341.814       16.788      860.166
06/28/2014  01:33:00     -103.709      -62.913       -8.403       23.245       21.521       14.606      540.335      463.156      213.342        0.800        0.061      121.300       11.799        0.009      341.507       16.267      860.144
06/28/2014  01:34:00      -51.924      -35.283        2.578       38.945       28.473       20.105     1516.683      810.732      404.213        0.334        0.137       62.777       21.690        0.119      341.347       15.996      860.136
06/28/2014  01:35:00      -99.517      -17.651       -7.654       27.297       22.015       15.834      745.099      484.679      250.710        0.588        0.074      101.070       12.445        0.015      341.474       16.211      860.123
06/28/2014  01:36:00     -121.701      -30.582       -6.660       39.587       33.709       17.838     1567.156     1136.320      318.178        0.941        0.151      125.485       21.796        0.030      341.464       16.195      860.125
06/28/2014  01:37:00      -99.757      -19.641      -12.702       20.828       24.459       19.856      433.789      598.236      394.256        0.596        0.071      101.672       14.899        0.021      341.577       16.385      860.119
06/28/2014  01:38:00      -91.773      -17.498       -9.592       32.445       39.204       20.809     1052.666     1536.954      433.012        0.592        0.151       93.426       19.315        0.043      341.538       16.319      860.113
06/28/2014  01:39:00      -67.595      -19.119        4.621       25.474       44.852       24.418      648.907     2011.736      596.236        0.411        0.163       70.247       23.729        0.114      341.467       16.198      860.112
06/28/2014  01:40:00      -57.318      -19.117       -8.843       15.367       12.430       14.941      236.159      154.515      223.238        0.217        0.031       60.422        9.997        0.027      341.553       16.345      860.100
06/28/2014  01:41:00      -41.773      -38.523       -7.124       23.375       15.576        9.103      546.382      242.615       82.873        0.208        0.044       56.824        7.786        0.019      341.546       16.336      860.091
06/28/2014  01:42:00      -99.206      -47.329       -6.896       30.979       27.476       16.152      959.673      754.919      260.903        0.705        0.099      109.918       12.422        0.013      341.603       16.432      860.104
06/28/2014  01:43:00     -109.966       -9.522      -13.090       25.106       28.422       12.760      630.296      807.811      162.822        0.698        0.080      110.377        9.714        0.008      341.529       16.305      860.115
06/28/2014  01:44:00      -76.501      -34.970       -4.971       18.195       23.199       10.540      331.062      538.187      111.085        0.404        0.049       84.115       10.598        0.016      341.520       16.288      860.115
06/28/2014  01:45:00      -58.177      -27.552       -0.265       21.235       25.940       13.914      450.931      672.892      193.607        0.273        0.066       64.372        6.006        0.009      341.442       16.157      860.105
06/28/2014  01:46:00      -77.498      -33.142       -6.010       22.125       20.044        7.908      489.504      401.746       62.538        0.405        0.048       84.287        7.176        0.007      341.308       15.930      860.086
06/28/2014  01:47:00      -39.648      -22.968        0.636       16.090       17.848       13.899      258.887      318.554      193.192        0.144        0.039       45.820        9.075        0.039      341.306       15.927      860.068
06/28/2014  01:48:00      -39.003       -3.817       -7.341       16.440       28.054       15.036      270.281      787.051      226.070        0.144        0.064       39.189       11.261        0.083      341.428       16.134      860.068
06/28/2014  01:49:00     -105.909      -36.243       -0.758       30.468       23.682        9.617      928.316      560.844       92.488        0.706        0.079      111.938        4.950        0.002      341.358       16.016      860.078
06/28/2014  01:50:00      -61.441      -37.924        4.551       42.606       22.738       21.353     1815.289      517.001      455.970        0.401        0.139       72.203       14.600        0.041      341.226       15.793      860.091
06/28/2014  01:51:00      -87.110      -56.699       -1.387       20.634       19.328       13.574      425.743      373.582      184.255        0.589        0.049      103.938        7.310        0.005      341.107       15.591      860.092
06/28/2014  01:52:00      -87.266      -31.796      -10.378        8.972        8.649        5.574       80.504       74.803       31.069        0.446        0.009       92.878        2.897        0.001      341.136       15.638      860.078
06/28/2014  01:53:00      -69.954      -44.471       -2.371       13.912       12.210        9.148      193.555      149.079       83.687        0.365        0.021       82.892        8.117        0.010      341.194       15.737      860.070
06/28/2014  01:54:00      -46.053      -35.456       -0.621       19.110       24.700       13.021      365.175      610.096      169.534        0.226        0.057       58.120       13.141        0.051      341.214       15.772      860.074
06/28/2014  01:55:00      -66.715      -43.604        0.572       12.327       13.741        8.237      151.961      188.816       67.846        0.338        0.020       79.701        6.153        0.006      341.181       15.716      860.093
06/28/2014  01:56:00      -59.339      -37.600        3.717       16.202       18.636        9.893      262.514      347.305       97.879        0.283        0.035       70.248        7.571        0.012      341.158       15.676      860.102
06/28/2014  01:57:00      -38.850      -29.671        4.573       30.608       37.798       17.675      936.838     1428.651      312.395        0.254        0.134       48.885       18.571        0.144      341.153       15.667      860.108
06/28/2014  01:58:00      -48.894      -21.697        2.142       22.365       20.850       14.617      500.186      434.734      213.667        0.201        0.057       53.492       10.006        0.035      341.295       15.909      860.103
06/28/2014  01:59:00      -42.134       -4.335        0.522       33.110       31.560       14.086     1096.284      996.029      198.407        0.204        0.115       42.356       15.877        0.141      341.240       15.816      860.113
06/28/2014  02:00:00      -37.981       10.972        7.336       36.971       29.015       19.277     1366.836      841.875      371.598        0.210        0.129       39.534       20.516        0.269      341.290       15.901      860.117
06/28/2014  02:01:00      -27.359       -0.594        3.497       28.467       27.110       17.943      810.385      734.926      321.969        0.131        0.093       27.366       13.236        0.234      341.227       15.793      860.119
06/28/2014  02:02:00      -20.047      -31.360        5.921       40.185       28.044       15.735     1614.823      786.484      247.596        0.203        0.132       37.220       17.899        0.231      341.073       15.532      860.118
06/28/2014  02:03:00      -45.894      -16.269       -4.691       31.064       21.921       15.357      964.977      480.540      235.849        0.204        0.084       48.693        6.315        0.017      341.132       15.633      860.118
06/28/2014  02:04:00      -31.904      -19.802        2.245       22.836       11.537       11.243      521.495      133.096      126.405        0.110        0.039       37.549        9.963        0.070      341.098       15.576      860.109
06/28/2014  02:05:00       -8.341      -13.822        7.026       14.268       10.806        9.045      203.578      116.776       81.815        0.036        0.020       16.144        7.617        0.223      341.136       15.640      860.108
06/28/2014  02:06:00      -58.695      -30.176       -2.694       28.971       15.263        7.861      839.314      232.949       61.789        0.275        0.057       65.998       10.669        0.026      341.084       15.551      860.109
06/28/2014  02:07:00      -59.159      -34.077       -2.955       13.935       15.775       10.741      194.174      248.865      115.365        0.261        0.028       68.271        6.421        0.009      341.050       15.496      860.095
06/28/2014  02:08:00      -63.547       -8.446       -8.555        8.806       12.114        8.618       77.553      146.741       74.264        0.224        0.015       64.106        6.511        0.010      341.302       15.920      860.080
06/28/2014  02:09:00      -47.983      -12.239       -6.037       17.565       13.673       10.020      308.540      186.960      100.407        0.154        0.030       49.519        7.950        0.026      341.310       15.933      860.060
06/28/2014  02:10:00      -31.993      -37.257       -2.403       18.077       16.990        9.994      326.794      288.667       99.876        0.157        0.036       49.108        9.116        0.034      341.385       16.060      860.067
06/28/2014  02:11:00       11.098      -43.157        6.785       12.722       16.462       14.440      161.842      270.983      208.521        0.134        0.032       44.561        7.823        0.031      341.337       15.980      860.074
06/28/2014  02:12:00        4.864      -32.475       -1.343       10.965       14.320        8.153      120.226      205.072       66.475        0.074        0.020       32.837        6.464        0.039      341.263       15.856      860.072
06/28/2014  02:13:00       14.445      -17.779       -7.993       10.005       16.479        8.554      100.104      271.565       73.174        0.052        0.022       22.907        8.161        0.127      341.120       15.609      860.056
06/28/2014  02:14:00       30.890      -21.395       -8.292       18.829       19.208       12.740      354.531      368.961      162.320        0.118        0.044       37.576        8.425        0.050      340.966       15.352      860.056
06/28/2014  02:15:00        6.810       -9.132       -3.654       12.061       17.193       14.023      145.474      295.613      196.657        0.039        0.032       11.392        6.071        0.284      341.035       15.467      860.057
06/28/2014  02:16:00       -1.943       10.552        0.488       10.325       10.985       13.926      106.613      120.676      193.925        0.027        0.021       10.730        8.467        0.623      341.043       15.482      860.075
06/28/2014  02:17:00       23.059       14.673        2.673       12.113       16.474       15.889      146.724      271.378      252.463        0.071        0.034       27.332       10.139        0.138      341.024       15.448      860.101
06/28/2014  02:18:00       25.199       38.044       -0.829       13.896       12.092        9.938      193.091      146.208       98.773        0.126        0.022       45.633        9.671        0.045      341.101       15.580      860.115
06/28/2014  02:19:00       16.487       52.693       -7.687       14.400       17.375        9.080      207.358      301.899       82.450        0.185        0.030       55.212        6.074        0.012      341.296       15.910      860.115
06/28/2014  02:20:00        5.498       85.221       -9.812       12.246       11.739        6.077      149.965      137.797       36.933        0.386        0.016       85.398        4.514        0.003      341.519       16.287      860.100
06/28/2014  02:21:00        4.847       75.517       -9.361       13.357       12.985        6.429      178.403      168.612       41.330        0.310        0.019       75.672        3.036        0.002      341.478       16.218      860.098
06/28/2014  02:22:00        3.062       64.586       -8.093       12.934       11.362        5.496      167.292      129.099       30.208        0.229        0.016       64.659        3.578        0.003      341.519       16.285      860.114
06/28/2014  02:23:00        3.234       19.499        3.550       17.817       18.825       11.346      317.442      354.397      128.735        0.060        0.040       19.765        9.787        0.245      341.246       15.827      860.124
06/28/2014  02:24:00       26.119        7.882        5.939       15.462       13.627       13.818      239.085      185.703      190.940        0.070        0.031       27.282        6.307        0.053      341.169       15.695      860.119
06/28/2014  02:25:00       53.799       42.206       26.448       17.630       18.350       26.867      310.820      336.732      721.849        0.337        0.068       68.379        9.286        0.018      341.184       15.720      860.108
06/28/2014  02:26:00       74.583       60.475       13.814       27.962       20.416       26.813      781.871      416.811      718.961        0.566        0.096       96.020       11.113        0.013      341.225       15.791      860.100
06/28/2014  02:27:00       61.734       41.450       19.689       26.745       24.791       21.945      715.297      614.612      481.596        0.386        0.091       74.359       14.148        0.036      341.269       15.865      860.092
06/28/2014  02:28:00       51.134       50.493        8.294       28.230       17.911       22.783      796.931      320.793      519.088        0.343        0.082       71.863        4.308        0.004      341.199       15.746      860.097
06/28/2014  02:29:00       27.743       64.577      -12.055       22.334       38.936       21.805      498.827     1516.042      475.457        0.379        0.125       70.284       21.760        0.096      341.253       15.838      860.102
06/28/2014  02:30:00       50.745       55.004        7.512       46.354       25.897       22.168     2148.664      670.638      491.410        0.448        0.166       74.836       18.279        0.060      341.412       16.107      860.100
06/28/2014  02:31:00        2.826       65.526      -16.898       27.523       26.889       13.457      757.490      723.005      181.094        0.312        0.083       65.587       12.037        0.034      341.498       16.251      860.102
06/28/2014  02:32:00       20.165       29.128        3.613       17.334       27.700       15.341      300.479      767.312      235.337        0.129        0.065       35.427       14.164        0.160      341.319       15.949      860.108
06/28/2014  02:33:00        1.868        4.981       14.285       16.933        5.484        8.549      286.728       30.070       73.089        0.031        0.019        5.319        8.875        2.784      341.133       15.633      860.120
06/28/2014  02:34:00       -8.537       36.474       -9.387       24.164       24.238       16.072      583.916      587.477      258.296        0.146        0.071       37.460        9.403        0.063      341.352       16.003      860.117
06/28/2014  02:35:00       20.393       74.557       -8.336       13.211       27.789       10.194      174.538      772.244      103.919        0.355        0.053       77.295       10.967        0.020      341.602       16.429      860.110
06/28/2014  02:36:00       31.117      111.942      -15.660       19.821       21.668       14.507      392.871      469.494      210.449        0.741        0.054      116.186       12.793        0.012      341.676       16.555      860.099
06/28/2014  02:37:00      -39.750       76.499      -15.538       34.872       21.866       14.976     1216.089      478.101      224.270        0.480        0.096       86.210       13.601        0.025      341.597       16.420      860.088
06/28/2014  02:38:00      -45.657       29.085       -8.738       20.139       26.968       13.773      405.573      727.282      189.698        0.216        0.066       54.134        7.864        0.021      341.376       16.045      860.095
06/28/2014  02:39:00      -50.643      -13.792      -15.262       13.944       18.701       12.590      194.421      349.720      158.498        0.185        0.035       52.487        7.888        0.023      340.937       15.301      860.098
06/28/2014  02:40:00      -43.614      -11.096      -10.931       27.530       20.029       14.893      757.928      401.142      221.801        0.176        0.069       45.004        9.381        0.043      340.839       15.137      860.100
06/28/2014  02:41:00       -0.495        7.213        2.100       21.677       18.204       11.898      469.878      331.373      141.567        0.050        0.047        7.230        8.146        1.270      341.042       15.480      860.093
06/28/2014  02:42:00      -25.467        1.881       13.434       14.414       17.520       12.454      207.765      306.962      155.104        0.075        0.033       25.536       12.117        0.225      340.986       15.385      860.089
06/28/2014  02:43:00      -17.736      -15.904       -1.934        9.706        7.502        5.591       94.211       56.276       31.260        0.038        0.009       23.823        4.703        0.039      340.853       15.160      860.088
06/28/2014  02:44:00        3.060       15.842       -1.902        8.538       12.779        9.961       72.892      163.314       99.219        0.030        0.017       16.135        7.968        0.244      341.300       15.917      860.096
06/28/2014  02:45:00      -13.266       -5.926       -0.366        8.132       14.848       10.371       66.134      220.466      107.560        0.030        0.020       14.529        9.393        0.418      341.027       15.454      860.096
06/28/2014  02:46:00      -19.975       16.140        0.588       16.199       15.458       15.280      262.393      238.944      233.481        0.070        0.037       25.681        7.192        0.078      341.289       15.900      860.079
06/28/2014  02:47:00      -30.501       39.245       -1.794       14.202       21.661        9.749      201.688      469.188       95.051        0.162        0.038       49.704       11.796        0.056      341.353       16.006      860.064
06/28/2014  02:48:00      -29.791       31.788        0.556       18.767       16.914       14.653      352.202      286.091      214.703        0.138        0.043       43.566       11.784        0.073      341.438       16.151      860.062
06/28/2014  02:49:00      -38.123       33.697       -5.046       25.573       29.303       13.965      653.967      858.681      195.023        0.216        0.085       50.881        9.482        0.035      341.322       15.955      860.063
06/28/2014  02:50:00      -73.699       43.506      -11.779       34.064       44.407       22.942     1160.368     1971.969      526.333        0.556        0.183       85.582       21.486        0.063      341.205       15.754      860.082
06/28/2014  02:51:00      -50.538       54.338       -9.673       23.802       32.751       21.924      566.540     1072.633      480.670        0.386        0.106       74.207       20.257        0.075      341.289       15.899      860.083
06/28/2014  02:52:00      -44.812       25.953      -10.225       27.086       33.182       15.543      733.637     1101.028      241.589        0.243        0.104       51.785        7.422        0.021      341.189       15.730      860.076
06/28/2014  02:53:00      -32.460       -6.909        3.935       22.698       18.107       12.833      515.212      327.848      164.694        0.106        0.050       33.187       11.872        0.128      341.042       15.480      860.065
06/28/2014  02:54:00      -25.771      -33.989        4.825       25.975       25.722       17.985      674.711      661.644      323.447        0.175        0.083       42.655       14.059        0.109      340.954       15.330      860.044
06/28/2014  02:55:00      -96.798      -16.908       -9.846       25.086       17.311       14.841      629.323      299.687      220.260        0.545        0.057       98.263       12.884        0.017      341.030       15.459      860.057
06/28/2014  02:56:00      -64.805       13.586       -8.518       32.145       32.172       16.710     1033.277     1035.014      279.240        0.340        0.117       66.214       12.403        0.035      341.054       15.503      860.070
06/28/2014  02:57:00      -66.682        6.933      -14.739       22.852       23.624       15.536      522.195      558.078      241.367        0.302        0.066       67.041       14.044        0.044      341.159       15.679      860.074
06/28/2014  02:58:00      -78.273        1.302      -13.140       22.093       20.167       15.490      488.121      406.696      239.935        0.372        0.057       78.284        8.790        0.013      341.427       16.131      860.069
06/28/2014  02:59:00      -60.337        9.035       -9.404       18.343       28.734       13.745      336.468      825.614      188.921        0.258        0.068       61.010        8.429        0.019      341.409       16.101      860.060
06/28/2014  03:00:00      -44.767        8.675        0.436       32.784       16.050       14.635     1074.777      257.588      214.175        0.181        0.077       45.600       14.602        0.103      341.248       15.829      860.053
06/28/2014  03:01:00      -66.865       74.881      -15.588       38.937       57.340       29.976     1516.054     3287.823      898.568        0.801        0.285      100.389       35.779        0.127      341.115       15.602      860.041
06/28/2014  03:02:00      -57.963       98.069      -23.380       40.752       48.050       25.634     1660.730     2308.848      657.117        0.907        0.231      113.917       20.005        0.031      341.061       15.512      860.025
06/28/2014  03:03:00      -82.214        7.708      -12.411       40.240       42.907       20.568     1619.247     1840.998      423.050        0.543        0.194       82.574       11.332        0.019      340.970       15.358      860.025
06/28/2014  03:04:00      -89.879       29.059      -14.540       33.792       39.237       22.176     1141.932     1539.569      491.778        0.615        0.159       94.459       17.979        0.036      341.149       15.660      860.027
06/28/2014  03:05:00     -115.187       58.263      -24.099       26.371       42.771       20.776      695.424     1829.400      431.641        1.010        0.148      129.084       18.631        0.021      341.204       15.754      860.015
06/28/2014  03:06:00      -90.127        9.152       -6.627       38.390       34.032       30.791     1473.797     1158.158      948.062        0.591        0.179       90.591       19.989        0.049      341.299       15.915      860.005
06/28/2014  03:07:00     -117.932       36.501      -19.337       39.457       43.689       23.927     1556.817     1908.712      572.513        0.983        0.202      123.452       18.482        0.022      341.299       15.915      859.991
06/28/2014  03:08:00      -72.695       29.069        1.583       41.976       31.178       21.989     1761.952      972.042      483.499        0.467        0.161       78.292       23.222        0.088      341.108       15.592      859.968
06/28/2014  03:09:00      -78.359       -3.026       -0.476       23.928       30.036       14.752      572.536      902.185      217.625        0.392        0.085       78.418       14.304        0.033      341.158       15.675      859.952
06/28/2014  03:10:00      -85.628      -17.128      -10.699       39.808       33.571       17.394     1584.716     1127.011      302.542        0.538        0.151       87.324       16.950        0.038      341.049       15.492      859.948
06/28/2014  03:11:00      -91.572        3.635       -8.930       41.642       30.107       16.227     1734.078      906.435      263.302        0.569        0.145       91.644       14.902        0.026      341.107       15.591      859.958
06/28/2014  03:12:00      -81.776       32.960      -11.677       19.663       25.319       18.785      386.638      641.045      352.885        0.465        0.069       88.169       16.096        0.033      341.227       15.794      859.964
06/28/2014  03:13:00      -54.948        0.043       -4.009       28.548       29.062       17.697      814.971      844.610      313.171        0.250        0.099       54.948       15.142        0.076      341.123       15.619      859.969
06/28/2014  03:14:00      -92.650       56.991      -22.855       29.372       40.014       16.604      862.727     1601.122      275.699        0.755        0.137      108.776       19.263        0.031      341.154       15.671      859.968
06/28/2014  03:15:00      -92.373       71.134      -17.661       25.437       35.921       19.471      647.020     1290.345      379.126        0.811        0.116      116.588       19.967        0.029      341.124       15.619      859.979
06/28/2014  03:16:00     -109.070       93.249      -20.195       33.514       37.241       23.752     1123.190     1386.865      564.158        1.204        0.154      143.498       18.254        0.016      341.002       15.412      859.986
06/28/2014  03:17:00      -97.026       60.182      -11.588       31.471       40.287       22.372      990.425     1623.041      500.520        0.814        0.156      114.175       15.524        0.018      341.148       15.659      859.976
06/28/2014  03:18:00      -85.948       50.616      -13.015       47.877       42.637       24.096     2292.251     1817.881      580.603        0.740        0.235       99.745       27.521        0.076      341.214       15.770      859.975
06/28/2014  03:19:00     -110.010       49.792      -18.619       38.975       32.069       27.456     1519.020     1028.398      753.819        0.911        0.165      120.754       22.954        0.036      341.193       15.737      859.976
06/28/2014  03:20:00      -94.588       17.844      -14.781       21.926       49.487       18.454      480.752     2448.942      340.569        0.638        0.164       96.256       20.274        0.044      341.082       15.549      859.974
06/28/2014  03:21:00     -129.956      -43.590      -12.221       24.304       19.452       12.500      590.702      378.384      156.241        1.003        0.056      137.072       13.195        0.009      340.626       14.776      859.969
06/28/2014  03:22:00      -95.569      -13.038       -4.964       39.462       34.450       21.506     1557.259     1186.824      462.489        0.627        0.160       96.454       22.946        0.057      340.728       14.949      859.959
06/28/2014  03:23:00     -110.209       16.191      -10.125       30.095       22.381       18.408      905.689      500.931      338.868        0.713        0.087      111.392       16.939        0.023      340.827       15.116      859.951
06/28/2014  03:24:00      -83.776       -0.249      -12.289       32.932       28.003       19.335     1084.541      784.195      373.827        0.471        0.112       83.776       17.057        0.041      340.828       15.117      859.934
06/28/2014  03:25:00      -42.335      -16.142        5.701       26.368       23.042       15.699      695.279      530.948      246.451        0.178        0.074       45.308        7.464        0.027      340.617       14.761      859.926
06/28/2014  03:26:00      -20.956       -7.998        7.746       29.930       15.848       19.029      895.778      251.151      362.120        0.104        0.075       22.430       19.630        0.766      340.618       14.763      859.919
06/28/2014  03:27:00      -11.411       -3.202       10.202       24.215       13.568       15.483      586.378      184.100      239.709        0.063        0.051       11.852       16.994        2.056      340.634       14.790      859.921
06/28/2014  03:28:00      -14.265      -27.932        1.416       20.867       23.572       10.538      435.444      555.662      111.053        0.104        0.055       31.364        9.458        0.091      340.725       14.942      859.933
06/28/2014  03:29:00      -57.288      -33.684        5.971       49.599       26.893       12.303     2460.091      723.226      151.358        0.389        0.167       66.457       13.227        0.040      340.651       14.818      859.955
06/28/2014  03:30:00     -135.925      -30.793        1.310       27.328       30.336       16.799      746.819      920.268      282.208        1.069        0.097      139.369       12.133        0.008      340.530       14.613      859.962
06/28/2014  03:31:00     -118.327      -40.399      -10.312       50.426       29.365       21.149     2542.808      862.282      447.265        0.980        0.193      125.033       22.765        0.033      340.396       14.389      859.949
06/28/2014  03:32:00       -6.366      -18.510        4.112       20.893       23.692       29.817      436.505      561.311      889.044        0.114        0.094       19.574       18.632        0.906      340.311       14.244      859.932
06/28/2014  03:33:00        8.675      -26.682        1.836       27.519       23.743       21.479      757.308      563.720      461.343        0.129        0.089       28.057       20.972        0.559      340.442       14.465      859.922
06/28/2014  03:34:00       16.720      -18.979        7.667       29.418       29.462       22.771      865.394      867.982      518.497        0.147        0.113       25.294       15.051        0.354      340.320       14.258      859.913
06/28/2014  03:35:00       21.385      -41.887        5.133       32.000       28.235       21.139     1023.969      797.201      446.863        0.225        0.113       47.030       16.792        0.127      340.228       14.103      859.925
06/28/2014  03:36:00      -11.513      -38.350      -11.952       37.264       27.484       24.727     1388.573      755.389      611.404        0.225        0.138       40.041        5.881        0.022      340.473       14.518      859.947
06/28/2014  03:37:00      -75.513      -80.096        4.230       57.412       63.429       31.778     3296.107     4023.294     1009.853        1.023        0.416      110.080       31.948        0.084      340.336       14.285      859.975
06/28/2014  03:38:00     -106.242     -145.909      -10.426       50.779       48.720       32.853     2578.529     2373.627     1079.347        1.936        0.302      180.491       26.493        0.022      340.251       14.140      859.993
06/28/2014  03:39:00      -47.801     -101.269       -3.057       36.110       36.213       24.518     1303.896     1311.408      601.150        0.788        0.161      111.984       14.289        0.016      340.217       14.084      859.998
06/28/2014  03:40:00      -83.023      -75.273       -8.340       49.458       30.276       27.200     2446.119      916.638      739.835        0.836        0.205      112.066       26.896        0.058      340.223       14.095      859.993
06/28/2014  03:41:00     -107.243     -113.476       -6.765       35.719       33.199       18.298     1275.878     1102.188      334.822        1.357        0.136      156.134       15.669        0.010      340.192       14.044      859.999
06/28/2014  03:42:00      -66.683      -73.506      -12.831       24.699       32.083       13.721      610.043     1029.309      188.266        0.592        0.091       99.246       12.587        0.016      340.237       14.117      859.997
06/28/2014  03:43:00      -22.145      -69.030      -10.193       18.180       35.358       13.208      330.519     1250.158      174.453        0.356        0.088       72.496       11.047        0.023      340.315       14.251      859.982
06/28/2014  03:44:00      -20.724      -25.325       12.841       24.270       19.707       13.254      589.025      388.383      175.656        0.119        0.058       32.724        8.895        0.074      340.299       14.224      859.959
06/28/2014  03:45:00      -16.391      -23.450       -0.850       19.083       12.209        8.654      364.159      149.067       74.885        0.070        0.029       28.610        6.377        0.050      340.338       14.289      859.958
06/28/2014  03:46:00      -77.709      -42.655       -8.139       16.710       17.268        9.983      279.218      298.176       99.667        0.430        0.034       88.646        7.240        0.007      340.328       14.273      859.972
06/28/2014  03:47:00      -36.026      -29.611       -5.607       22.794       15.574       10.862      519.580      242.558      117.992        0.154        0.044       46.634        8.109        0.030      340.334       14.282      859.981
06/28/2014  03:48:00      -32.227      -32.198        3.567       21.464       17.229        8.541      460.690      296.843       72.948        0.146        0.042       45.556        7.354        0.026      340.359       14.326      859.976
06/28/2014  03:49:00      -77.046      -19.071       -8.223       14.223       14.349        9.607      202.280      205.882       92.294        0.343        0.025       79.371        5.507        0.005      340.339       14.292      859.973
06/28/2014  03:50:00      -80.558      -41.291       -4.500       18.380       16.376       17.070      337.820      268.165      291.372        0.456        0.045       90.524       12.938        0.020      340.355       14.317      859.976
06/28/2014  03:51:00      -94.165      -16.918       -7.753       29.004       33.248       20.376      841.239     1105.410      415.200        0.579        0.118       95.673       12.010        0.016      340.406       14.404      859.993
06/28/2014  03:52:00      -95.987      -12.071      -17.667       25.362       24.834       12.828      643.240      616.706      164.546        0.555        0.071       96.743       12.308        0.016      340.275       14.182      859.991
06/28/2014  03:53:00      -85.434      -29.676      -11.638       13.736       14.362       13.540      188.683      206.267      183.344        0.445        0.029       90.441        8.952        0.010      340.379       14.359      859.996
06/28/2014  03:54:00      -94.717      -55.458      -16.645       16.500       17.967       11.647      272.241      322.800      135.643        0.653        0.037      109.758       10.045        0.008      340.245       14.132      860.014
06/28/2014  03:55:00     -105.504      -47.375      -14.366       18.462       27.700       13.079      340.857      767.303      171.067        0.743        0.064      115.653        5.262        0.002      340.191       14.041      860.047
06/28/2014  03:56:00      -70.556      -33.862       -6.802       34.423       15.835       16.873     1184.947      250.749      284.710        0.395        0.086       78.261       17.130        0.048      340.064       13.826      860.059
06/28/2014  03:57:00      -36.724      -38.396       -4.391       23.274       15.059       13.115      541.693      226.773      171.991        0.189        0.047       53.131       11.046        0.043      340.131       13.939      860.058
06/28/2014  03:58:00      -67.926      -43.516       -2.195       31.623       21.816       15.990     1000.039      475.933      255.667        0.412        0.087       80.669       16.706        0.043      340.178       14.021      860.055
06/28/2014  03:59:00      -78.165      -46.044       -4.539       30.736       28.972       12.602      944.682      839.402      158.807        0.510        0.097       90.719       12.326        0.018      340.143       13.960      860.058
06/28/2014  04:00:00      -74.480      -60.459       -5.156       32.241       17.359       16.898     1039.470      301.342      285.543        0.543        0.081       95.930       11.654        0.015      340.121       13.923      860.055
06/28/2014  04:01:00     -102.199      -44.940      -12.652       14.561       14.000       10.955      212.008      196.012      120.012        0.658        0.026      111.644        5.784        0.003      340.113       13.912      860.060
06/28/2014  04:02:00     -104.702      -27.545       -6.467       31.597       17.756       19.922      998.346      315.290      396.887        0.674        0.086      108.265       21.330        0.039      340.068       13.832      860.058
06/28/2014  04:03:00      -55.247      -10.410        0.439       35.763       21.462       21.185     1279.001      460.612      448.809        0.267        0.109       56.219       23.073        0.168      340.139       13.953      860.039
06/28/2014  04:04:00     -131.629      -20.198      -14.794       44.385       26.157       20.743     1970.007      684.185      430.292        1.052        0.154      133.170       20.521        0.024      340.241       14.126      860.026
06/28/2014  04:05:00     -151.265       -5.317      -16.888       29.898       26.150       22.773      893.879      683.803      518.615        1.265        0.105      151.358       20.005        0.017      340.135       13.947      860.035
06/28/2014  04:06:00      -85.832       -8.620       -5.314       45.044       31.315       21.492     2028.956      980.634      461.923        0.547        0.174       86.264       19.403        0.051      339.980       13.684      860.047
06/28/2014  04:07:00      -38.693      -24.184        2.128       25.924       24.431       18.327      672.042      596.888      335.886        0.185        0.080       45.629        9.398        0.042      339.975       13.677      860.069
06/28/2014  04:08:00      -55.788       -6.599       -1.761       35.585       22.483       16.108     1266.289      505.506      259.476        0.259        0.102       56.177       18.269        0.106      339.962       13.655      860.075
06/28/2014  04:09:00       -1.377      -15.555        4.233       25.535       25.276       13.677      652.052      638.851      187.061        0.087        0.074       15.616        3.653        0.055      339.918       13.582      860.071
06/28/2014  04:10:00      -37.218      -38.288       -4.696       50.837       30.537       13.334     2584.365      932.505      177.789        0.328        0.185       53.396        8.783        0.027      339.903       13.557      860.065
06/28/2014  04:11:00      -69.399      -64.185       -6.741       37.355       29.408       19.975     1395.389      864.840      399.018        0.582        0.133       94.530       17.149        0.033      339.821       13.418      860.058
06/28/2014  04:12:00     -105.540      -44.870      -15.915       16.122       28.875       11.961      259.913      833.756      143.056        0.732        0.062      114.682       10.388        0.008      339.794       13.370      860.069
06/28/2014  04:13:00     -103.008      -25.655       -7.211       17.540       15.874       12.586      307.663      251.991      158.405        0.602        0.036      106.155        9.608        0.008      339.739       13.279      860.061
06/28/2014  04:14:00      -67.420      -26.337       -6.818       11.255       11.891        7.890      126.674      141.396       62.248        0.281        0.017       72.382        4.304        0.004      339.766       13.324      860.052
06/28/2014  04:15:00      -84.952      -33.798      -14.238       16.293       12.911        8.866      265.472      166.688       78.607        0.454        0.026       91.428        7.505        0.007      339.749       13.297      860.043
06/28/2014  04:16:00     -103.544      -28.035      -13.092       23.758       21.829       12.535      564.435      476.502      157.131        0.644        0.060      107.272       10.275        0.009      339.751       13.300      860.045
06/28/2014  04:17:00     -127.409      -47.550      -11.218       33.058       30.987       21.899     1092.801      960.179      479.573        1.058        0.127      135.993       21.313        0.025      339.642       13.115      860.056
06/28/2014  04:18:00      -79.791       -9.726       -4.154       43.330       27.924       24.889     1877.475      779.747      619.467        0.488        0.164       80.381       25.297        0.099      339.517       12.904      860.060
06/28/2014  04:19:00      -71.921      -15.931       -4.314       32.923       25.086       15.865     1083.903      629.328      251.691        0.370        0.098       73.664       13.949        0.036      339.516       12.904      860.043
06/28/2014  04:20:00      -68.369      -49.297       -4.132       22.152       19.329       10.935      490.699      373.611      119.565        0.405        0.049       84.289        8.588        0.010      339.649       13.127      860.034
06/28/2014  04:21:00      -91.931      -47.178       -2.159       16.664       16.689       13.437      277.684      278.511      180.549        0.571        0.037      103.330        9.955        0.009      339.567       12.989      860.041
06/28/2014  04:22:00     -100.796      -63.400       -6.092       31.695       17.913       14.619     1004.581      320.859      213.716        0.788        0.077      119.077       10.145        0.007      339.625       13.086      860.050
06/28/2014  04:23:00     -106.904      -38.638       -1.448       30.663       25.675       13.972      940.203      659.185      195.214        0.736        0.090      113.672       13.273        0.014      339.602       13.048      860.050
06/28/2014  04:24:00      -72.749      -26.518        0.605       37.715       38.705       20.229     1422.416     1498.051      409.210        0.466        0.166       77.432       20.514        0.070      339.655       13.136      860.049
06/28/2014  04:25:00     -109.367      -11.009       -7.804       29.695       16.569       16.777      881.814      274.524      281.460        0.679        0.072      109.920       16.719        0.023      339.614       13.068      860.042
06/28/2014  04:26:00      -67.680      -26.612       -3.797       25.484       21.245       13.127      649.417      451.365      172.310        0.329        0.064       72.724       12.935        0.032      339.617       13.073      860.042
06/28/2014  04:27:00      -48.462      -32.734        1.372       17.657       17.111        9.269      311.769      292.798       85.915        0.206        0.035       58.482        8.892        0.023      339.781       13.349      860.046
06/28/2014  04:28:00      -40.205      -41.748        1.465       14.054       10.823       10.883      197.513      117.137      118.448        0.190        0.022       57.960        4.915        0.007      339.880       13.518      860.048
06/28/2014  04:29:00      -87.742      -41.204      -11.532       19.600       13.893        6.763      384.145      193.028       45.736        0.508        0.031       96.935        4.077        0.002      339.879       13.514      860.052
06/28/2014  04:30:00     -134.308      -32.399      -11.674       19.702       15.607       12.812      388.166      243.574      164.151        1.001        0.040      138.161        3.748        0.001      339.745       13.288      860.065
06/28/2014  04:31:00     -129.118      -68.543       -9.243       33.686       35.370       21.344     1134.751     1251.058      455.579        1.215        0.142      146.183       17.508        0.014      339.537       12.938      860.084
06/28/2014  04:32:00      -96.991      -30.542       -2.479       36.202       34.907       17.271     1310.572     1218.494      298.302        0.659        0.141      101.686       12.465        0.015      339.494       12.865      860.099
06/28/2014  04:33:00     -102.408       -9.557       -9.117       41.486       25.776       22.239     1721.053      664.415      494.579        0.677        0.144      102.853       22.611        0.048      339.485       12.850      860.088
06/28/2014  04:34:00     -113.263      -20.550       -5.510       25.875       27.982       19.790      669.532      782.981      391.633        0.756        0.092      115.113       19.697        0.029      339.495       12.868      860.076
06/28/2014  04:35:00      -97.701      -23.845       -3.989       24.045       17.588       15.727      578.153      309.331      247.331        0.563        0.057      100.569       12.493        0.015      339.496       12.868      860.080
06/28/2014  04:36:00      -75.869      -37.013       -3.079       15.180       22.835       13.529      230.442      521.436      183.044        0.404        0.047       84.416       10.656        0.016      339.581       13.012      860.086
06/28/2014  04:37:00      -83.920      -29.368       -3.474       15.236       23.597       11.512      232.147      556.842      132.531        0.442        0.046       88.910        6.189        0.005      339.626       13.088      860.089
06/28/2014  04:38:00      -76.547      -41.192       -3.913       21.758       12.604       11.955      473.424      158.863      142.927        0.417        0.039       86.927       11.214        0.017      339.622       13.083      860.101
06/28/2014  04:39:00      -56.880      -43.164       -1.841       24.611       14.540       13.186      605.690      211.418      173.858        0.305        0.050       71.403       12.258        0.029      339.612       13.065      860.108
06/28/2014  04:40:00      -76.054      -36.188      -10.418       15.955       10.178        7.565      254.565      103.593       57.225        0.381        0.021       84.225        3.417        0.002      339.595       13.036      860.109
06/28/2014  04:41:00      -47.066      -32.612        4.688       32.023       22.717       16.451     1025.492      516.041      270.625        0.256        0.091       57.260       18.513        0.105      339.551       12.961      860.105
06/28/2014  04:42:00      -38.655      -31.678        1.591       31.418       14.620       14.835      987.102      213.753      220.077        0.196        0.071       49.977       14.199        0.081      339.617       13.074      860.106
06/28/2014  04:43:00      -37.757      -27.972        4.040       23.848       18.401       14.193      568.744      338.595      201.436        0.167        0.055       46.990       12.988        0.076      339.563       12.981      860.119
06/28/2014  04:44:00      -60.339      -43.850        0.190       37.456       21.977       17.872     1402.960      482.977      319.405        0.388        0.110       74.590       16.509        0.049      339.531       12.928      860.131
06/28/2014  04:45:00      -69.731      -30.289       -4.877       20.875       23.613       13.393      435.760      557.577      179.367        0.349        0.059       76.025        9.241        0.015      339.489       12.859      860.131
06/28/2014  04:46:00      -61.489       -5.620       -5.876       22.923       15.320       13.118      525.454      234.702      172.089        0.239        0.047       61.745        8.226        0.018      339.415       12.732      860.122
06/28/2014  04:47:00      -81.378      -13.691      -14.493        9.050       12.187        8.512       81.911      148.534       72.457        0.366        0.015       82.522        5.268        0.004      339.454       12.798      860.125
06/28/2014  04:48:00      -78.355      -25.173      -13.864       13.158        8.927        8.732      173.143       79.689       76.253        0.365        0.016       82.300        4.758        0.003      339.434       12.766      860.131
06/28/2014  04:49:00      -84.505      -28.962      -11.784       15.826       15.743       12.150      250.477      247.845      147.621        0.438        0.032       89.330        7.706        0.007      339.397       12.702      860.128
06/28/2014  04:50:00      -83.939      -20.411       -7.297       15.657       13.406        9.530      245.143      179.716       90.815        0.402        0.026       86.385        7.851        0.008      339.408       12.722      860.118
06/28/2014  04:51:00      -97.093      -33.201      -12.297       17.596       24.442       14.531      309.611      597.397      211.138        0.590        0.056      102.613        9.539        0.009      339.403       12.711      860.107
06/28/2014  04:52:00      -56.437      -42.255       11.044       42.470       32.517       22.381     1803.685     1057.382      500.911        0.423        0.168       70.503       23.839        0.114      339.354       12.629      860.104
06/28/2014  04:53:00      -97.307       -4.921       -0.342       41.060       24.510       19.017     1685.963      600.755      361.656        0.607        0.132       97.432       18.491        0.036      339.396       12.700      860.107
06/28/2014  04:54:00      -84.294       -4.163       -2.107       41.635       31.224       20.140     1733.472      974.961      405.609        0.512        0.156       84.397       16.365        0.038      339.257       12.465      860.114
06/28/2014  04:55:00     -102.376      -24.065       -8.348       26.321       20.370       16.231      692.791      414.938      263.460        0.625        0.069      105.166       15.548        0.022      339.305       12.547      860.105
06/28/2014  04:56:00      -99.853      -26.818       -1.807       37.892       33.611       20.155     1435.788     1129.678      406.207        0.683        0.149      103.392       17.642        0.029      339.160       12.301      860.098
06/28/2014  04:57:00     -106.116      -42.743       -9.147       24.060       25.900       14.953      578.879      670.813      223.581        0.732        0.074      114.401       13.059        0.013      339.162       12.306      860.095
06/28/2014  04:58:00     -109.487      -27.247       -4.928       28.857       27.151       14.269      832.745      737.169      203.597        0.726        0.089      112.826       10.256        0.008      339.178       12.332      860.103
06/28/2014  04:59:00      -95.942      -21.463       -1.383       38.134       29.315       21.470     1454.184      859.359      460.977        0.622        0.139       98.314       21.504        0.048      339.132       12.255      860.118
06/28/2014  05:00:00     -132.932      -17.224       -7.219       40.553       30.214       22.130     1644.586      912.881      489.731        1.053        0.152      134.043       23.592        0.031      339.132       12.255      860.140
06/28/2014  05:01:00     -111.721      -26.735       -5.140       40.658       24.883       20.595     1653.082      619.157      424.154        0.796        0.135      114.875       20.015        0.030      339.092       12.189      860.144
06/28/2014  05:02:00      -69.730      -18.246       -5.636       38.563       23.696       16.025     1487.100      561.495      256.798        0.377        0.115       72.078       19.681        0.075      339.106       12.212      860.138
06/28/2014  05:03:00      -10.706       -4.027      -11.098       23.752       20.356        6.690      564.159      414.377       44.757        0.064        0.051       11.438        6.866        0.360      339.175       12.329      860.132
06/28/2014  05:04:00      -35.442        3.709      -11.098       14.020       12.008       11.595      196.559      144.186      134.444        0.093        0.024       35.636        8.738        0.060      339.165       12.312      860.146
06/28/2014  05:05:00      -38.806      -12.299       -9.695       20.558       16.033       12.334      422.623      257.058      152.140        0.129        0.042       40.708        5.552        0.019      339.247       12.452      860.149
06/28/2014  05:06:00      -47.503      -33.167        2.633       41.951       19.576       15.646     1759.909      383.219      244.798        0.288        0.119       57.936       17.637        0.093      339.126       12.245      860.144
06/28/2014  05:07:00      -66.269      -40.803       -4.950       28.701       27.672       17.023      823.774      765.741      289.767        0.398        0.094       77.823       15.557        0.040      339.116       12.228      860.151
06/28/2014  05:08:00      -87.362      -43.988       -7.576       12.705       14.166       10.448      161.417      200.689      109.152        0.505        0.024       97.812        4.923        0.003      339.142       12.271      860.154
06/28/2014  05:09:00      -98.011      -20.538      -21.457       12.034       12.365        8.836      144.817      152.886       78.072        0.543        0.019      100.139        6.359        0.004      339.127       12.246      860.150
06/28/2014  05:10:00      -70.245      -15.470       -8.841       15.193       19.261       13.890      230.825      371.001      192.943        0.302        0.040       71.929        8.699        0.015      339.200       12.370      860.142
06/28/2014  05:11:00      -68.713      -15.182      -10.746        6.449        7.426        7.563       41.594       55.141       57.202        0.261        0.008       70.370        4.340        0.004      339.236       12.430      860.156
06/28/2014  05:12:00      -83.928      -12.512      -12.493       14.272       14.813       10.405      203.701      219.431      108.273        0.394        0.027       84.856        3.986        0.002      339.323       12.577      860.172
06/28/2014  05:13:00      -95.406        0.052      -11.142       10.294       10.929       11.403      105.966      119.436      130.030        0.479        0.018       95.406        6.617        0.005      339.272       12.490      860.190
06/28/2014  05:14:00     -102.523       -3.806       -9.153       25.546       12.759       12.933      652.574      162.783      167.261        0.580        0.049      102.594       11.770        0.013      339.195       12.362      860.216
06/28/2014  05:15:00      -92.821       -5.558      -16.719       22.364       11.496        7.115      500.163      132.161       50.618        0.480        0.034       92.988        8.070        0.008      339.095       12.193      860.244
06/28/2014  05:16:00      -41.169      -16.579       -3.154       18.915       15.496       10.745      357.795      240.126      115.463        0.135        0.036       44.382        5.227        0.014      339.096       12.195      860.243
06/28/2014  05:17:00      -43.868      -14.167      -10.747        9.116        9.682        8.822       83.097       93.742       77.832        0.125        0.013       46.099        4.514        0.010      339.077       12.163      860.249
06/28/2014  05:18:00      -20.463      -17.114       -7.776       16.237       10.690        9.276      263.626      114.284       86.036        0.062        0.023       26.676        6.125        0.053      339.187       12.348      860.253
06/28/2014  05:19:00      -16.713      -26.698       -4.550       15.855       20.087       15.417      251.386      403.476      237.671        0.095        0.045       31.498       13.083        0.173      339.219       12.401      860.266
06/28/2014  05:20:00      -44.602      -15.649      -12.773       18.366       14.057       10.680      337.326      197.593      114.063        0.152        0.032       47.268        3.957        0.007      339.171       12.321      860.279
06/28/2014  05:21:00      -43.252      -16.750       -8.332       18.537       13.622       11.130      343.628      185.556      123.872        0.144        0.033       46.382        5.793        0.016      339.215       12.396      860.285
06/28/2014  05:22:00      -55.808      -14.601       -5.729       17.416       17.851       13.060      303.311      318.660      170.556        0.208        0.040       57.687        8.845        0.024      339.214       12.395      860.293
06/28/2014  05:23:00      -42.012      -34.009       -4.702       15.161       17.297       12.564      229.858      299.174      157.856        0.182        0.034       54.052        9.434        0.030      339.110       12.218      860.308
06/28/2014  05:24:00      -47.031      -42.558       -7.091       34.049       21.670       14.323     1159.302      469.593      205.135        0.295        0.092       63.429        8.324        0.017      339.078       12.164      860.319
06/28/2014  05:25:00      -55.452      -45.968      -10.324       27.616       23.525       16.412      762.650      553.415      269.355        0.344        0.079       72.028        9.988        0.019      339.045       12.110      860.332
06/28/2014  05:26:00     -100.875      -38.102      -11.183       12.140       16.283       11.128      147.386      265.134      123.825        0.614        0.027      107.831        8.870        0.007      338.949       11.947      860.342
06/28/2014  05:27:00      -92.872      -12.386      -16.120        8.922       11.512        9.281       79.609      132.529       86.145        0.467        0.015       93.694        4.799        0.003      338.918       11.899      860.363
06/28/2014  05:28:00      -98.305       -8.865      -17.247       10.941        8.256        6.839      119.701       68.156       46.767        0.514        0.012       98.704        4.361        0.002      338.939       11.930      860.381
06/28/2014  05:29:00      -99.483      -12.459      -15.631       20.392       15.697       13.538      415.840      246.386      183.273        0.557        0.042      100.260       11.786        0.014      338.924       11.907      860.391
06/28/2014  05:30:00      -82.880      -43.671      -13.760       20.029       20.096       14.384      401.159      403.830      206.886        0.499        0.051       93.682       11.722        0.016      338.936       11.926      860.391
06/28/2014  05:31:00      -73.762      -40.353      -14.227       17.429       26.686       13.943      303.780      712.146      194.408        0.424        0.061       84.079        9.519        0.013      338.925       11.907      860.392
06/28/2014  05:32:00      -78.632      -36.235      -21.553       22.758       21.664       13.153      517.920      469.319      173.008        0.456        0.058       86.579       11.623        0.018      338.936       11.927      860.394
06/28/2014  05:33:00      -77.672      -38.114      -17.946       10.631       11.757        9.276      113.008      138.230       86.046        0.407        0.017       86.520        6.482        0.006      338.980       12.002      860.404
06/28/2014  05:34:00      -99.413      -23.304      -14.365       15.502       12.670        7.333      240.318      160.528       53.768        0.554        0.023      102.108        4.467        0.002      339.004       12.039      860.412
06/28/2014  05:35:00      -76.032      -19.888      -13.281       16.462       14.488       16.701      271.003      209.906      278.926        0.356        0.038       78.590       10.750        0.019      339.028       12.080      860.423
06/28/2014  05:36:00      -83.000      -36.925      -12.767       10.592       11.947        7.700      112.197      142.732       59.298        0.436        0.016       90.843        3.718        0.002      339.088       12.181      860.430
06/28/2014  05:37:00      -77.220      -41.277       -6.697       10.872       14.920       10.259      118.209      222.598      105.238        0.408        0.022       87.560        3.969        0.002      339.129       12.250      860.443
06/28/2014  05:38:00      -95.096      -39.665       -9.234        8.245        7.587        7.952       67.981       57.556       63.233        0.545        0.009      103.037        4.822        0.002      339.095       12.194      860.441
06/28/2014  05:39:00     -120.644      -48.885      -15.471       13.165       16.263       10.280      173.310      264.477      105.685        0.886        0.027      130.171        4.322        0.001      339.135       12.261      860.441
06/28/2014  05:40:00     -106.029      -33.868      -11.938       12.113       17.135       12.114      146.735      293.625      146.754        0.656        0.029      111.307        2.720        0.001      339.166       12.314      860.448
06/28/2014  05:41:00     -104.043      -36.636      -10.731       12.175       14.114        6.545      148.241      199.218       42.835        0.634        0.020      110.305        5.005        0.002      339.209       12.385      860.467
06/28/2014  05:42:00      -83.997      -49.959      -10.203       14.690        8.331       11.722      215.790       69.399      137.395        0.504        0.021       97.731        8.317        0.007      339.244       12.444      860.470
06/28/2014  05:43:00      -71.914      -38.007       -4.185       11.103       14.372       12.050      123.275      206.550      145.192        0.355        0.024       81.340        2.312        0.001      339.237       12.433      860.482
06/28/2014  05:44:00      -79.913      -46.531       -5.969       12.197       12.648       10.424      148.771      159.964      108.652        0.450        0.021       92.473        7.917        0.007      339.219       12.402      860.488
06/28/2014  05:45:00      -83.569      -40.613       -8.420       12.802       11.360        9.263      163.880      129.044       85.806        0.454        0.019       92.915        4.457        0.002      339.194       12.360      860.519
06/28/2014  05:46:00      -69.286      -48.201       -6.784       33.355       20.428       14.408     1112.583      417.285      207.598        0.445        0.087       84.403       11.723        0.019      339.110       12.218      860.528
06/28/2014  05:47:00      -97.713      -59.230       -1.269       26.285       23.304       19.587      690.911      543.096      383.645        0.734        0.081      114.262       18.659        0.027      339.093       12.190      860.542
06/28/2014  05:48:00      -90.476      -49.787       -2.065       30.432       20.032       17.337      926.088      401.264      300.586        0.615        0.081      103.270       11.290        0.012      339.045       12.110      860.561
06/28/2014  05:49:00     -115.905      -49.044      -14.990       11.242       20.231       11.920      126.375      409.308      142.097        0.837        0.034      125.854        8.839        0.005      339.050       12.119      860.597
06/28/2014  05:50:00     -116.940      -39.099      -14.147       13.798       12.313       14.041      190.374      151.621      197.139        0.797        0.027      123.303        8.550        0.005      338.980       11.998      860.619
06/28/2014  05:51:00     -118.335      -45.463       -8.931       23.421       22.225       18.822      548.530      493.954      354.280        0.877        0.070      126.767       16.414        0.017      339.045       12.110      860.643
06/28/2014  05:52:00      -92.742      -40.138      -11.276       27.307       18.722       11.461      745.692      350.509      131.348        0.578        0.061      101.055        7.695        0.006      339.086       12.178      860.646
06/28/2014  05:53:00      -65.750      -43.762      -10.373       20.300       19.413        9.668      412.072      376.880       93.473        0.361        0.044       78.982        6.414        0.007      339.032       12.087      860.642
06/28/2014  05:54:00      -50.478       -8.350       -2.928       32.122       25.257       11.178     1031.843      637.939      124.940        0.221        0.090       51.164        9.260        0.033      338.996       12.026      860.650
06/28/2014  05:55:00      -63.011        1.147       -6.579       21.089       14.550       10.570      444.755      211.714      111.719        0.239        0.038       63.021        8.225        0.017      339.007       12.045      860.670
06/28/2014  05:56:00      -52.676       -7.705       -8.814       17.141       12.136       11.235      293.830      147.285      126.231        0.174        0.028       53.237        7.078        0.018      339.086       12.178      860.688
06/28/2014  05:57:00      -45.746        7.592       -6.157       23.731       16.667        8.933      563.170      277.785       79.794        0.155        0.046       46.371       11.695        0.064      339.174       12.327      860.706
06/28/2014  05:58:00      -61.308       10.630       -8.625       17.416       19.712       10.594      303.304      388.546      112.228        0.237        0.040       62.223        5.565        0.008      339.196       12.364      860.720
06/28/2014  05:59:00      -17.124      -22.522        1.082       13.414       11.782        8.558      179.947      138.809       73.241        0.060        0.020       28.292        6.518        0.053      339.285       12.514      860.728
06/28/2014  06:00:00      -25.373      -14.804       -7.205       13.027       14.810        8.320      169.690      219.347       69.224        0.069        0.023       29.376        4.566        0.024      339.358       12.636      860.733
06/28/2014  06:01:00      -18.743      -23.699        7.400       15.387        9.620       13.147      236.767       92.538      172.845        0.073        0.025       30.214        9.905        0.107      339.435       12.767      860.743
06/28/2014  06:02:00      -10.708      -20.465        2.907       16.459       14.391       10.929      270.906      207.107      119.450        0.057        0.030       23.097        6.266        0.074      339.428       12.755      860.736
06/28/2014  06:03:00      -36.282      -10.967       -2.606       11.817        8.896        6.286      139.643       79.144       39.517        0.085        0.013       37.903        3.706        0.010      339.479       12.839      860.724
06/28/2014  06:04:00      -41.678       -8.893       -5.244       10.773        9.666        9.985      116.063       93.435       99.708        0.108        0.015       42.616        8.056        0.036      339.395       12.699      860.716
06/28/2014  06:05:00      -55.963      -21.374      -11.433        9.235        7.554        6.994       85.276       57.058       48.920        0.196        0.010       59.906        4.846        0.007      339.382       12.677      860.720
06/28/2014  06:06:00      -53.572      -29.428       -4.232       19.514       11.566        8.390      380.803      133.768       70.397        0.217        0.029       61.123        8.239        0.018      339.427       12.755      860.736
06/28/2014  06:07:00      -88.996      -25.276       -5.943       11.900       11.333        8.680      141.620      128.427       75.340        0.447        0.017       92.515        5.038        0.003      339.478       12.838      860.734
06/28/2014  06:08:00      -95.387      -31.797       -6.601        7.475       10.235        8.333       55.882      104.759       69.447        0.519        0.012      100.547        6.036        0.004      339.415       12.733      860.742
06/28/2014  06:09:00      -85.311      -35.104       -4.496       10.950        9.408        7.825      119.897       88.517       61.224        0.440        0.013       92.251        4.662        0.003      339.429       12.756      860.758
06/28/2014  06:10:00      -56.516      -37.850       -3.411       19.906       18.194       13.643      396.255      331.035      186.140        0.278        0.046       68.020        7.360        0.012      339.409       12.723      860.758
06/28/2014  06:11:00      -42.027      -25.480        0.100       14.791       11.808        6.965      218.764      139.419       48.511        0.141        0.020       49.147        4.383        0.008      339.384       12.679      860.755
06/28/2014  06:12:00      -44.517      -22.129       -4.972        8.259        6.115        5.424       68.219       37.399       29.423        0.132        0.007       49.714        2.535        0.003      339.501       12.875      860.759
06/28/2014  06:13:00      -31.464      -25.040        0.278       18.368        8.264        8.321      337.372       68.299       69.236        0.105        0.024       40.212        8.568        0.045      339.562       12.979      860.757
06/28/2014  06:14:00      -62.358      -39.286       -2.407       14.023       11.591        9.908      196.635      134.341       98.163        0.293        0.021       73.701        5.614        0.006      339.573       12.999      860.756
06/28/2014  06:15:00      -47.086      -52.217        0.301       32.979       32.941       19.023     1087.635     1085.103      361.868        0.374        0.127       70.311       17.941        0.065      339.539       12.942      860.770
06/28/2014  06:16:00      -49.305      -41.417        3.052       28.512       24.712       18.701      812.932      610.682      349.737        0.296        0.089       64.392        8.323        0.017      339.506       12.886      860.775
06/28/2014  06:17:00      -49.935      -25.507        4.277       26.862       23.360       14.356      721.579      545.676      206.106        0.232        0.074       56.072       12.726        0.052      339.586       13.020      860.789
06/28/2014  06:18:00      -50.925      -43.340        0.578       22.913       28.177       13.932      525.004      793.965      194.100        0.299        0.076       66.871       13.469        0.041      339.650       13.129      860.791
06/28/2014  06:19:00      -69.898      -33.782        1.341       33.072       22.097       14.804     1093.738      488.257      219.161        0.391        0.090       77.633       11.439        0.022      339.628       13.092      860.805
06/28/2014  06:20:00      -79.700      -48.731        6.774       51.092       27.232       22.244     2610.369      741.593      494.783        0.631        0.192       93.417       20.298        0.047      339.587       13.022      860.815
06/28/2014  06:21:00      -84.916      -57.391       -3.014       39.028       31.166       18.408     1523.218      971.299      338.853        0.667        0.142      102.491       12.090        0.014      339.531       12.928      860.819
06/28/2014  06:22:00      -74.124      -34.206       -0.247       26.706       28.967       12.845      713.196      839.110      164.985        0.419        0.086       81.636       12.065        0.022      339.600       13.045      860.816
06/28/2014  06:23:00      -88.181      -27.003       -2.322       18.109       20.211       16.089      327.938      408.503      258.853        0.475        0.050       92.223       12.771        0.019      339.536       12.937      860.813
06/28/2014  06:24:00      -80.900      -22.611       -1.826       17.943       22.083       10.568      321.966      487.643      111.672        0.399        0.046       84.000       10.545        0.016      339.523       12.913      860.816
06/28/2014  06:25:00      -96.580      -31.359       -8.765       31.376       24.779       14.317      984.465      614.000      204.980        0.610        0.090      101.544       15.041        0.022      339.587       13.024      860.811
06/28/2014  06:26:00      -90.587      -28.089       -1.277       39.960       16.243       16.505     1596.841      263.850      272.424        0.556        0.107       94.842       18.449        0.038      339.626       13.088      860.818
06/28/2014  06:27:00      -36.444      -36.692       -0.384       28.098       19.565       11.660      789.500      382.803      135.950        0.199        0.065       51.716       11.035        0.046      339.664       13.153      860.819
06/28/2014  06:28:00      -58.387      -20.450        4.485       32.109       22.321       15.995     1030.990      498.240      255.829        0.282        0.089       61.865       17.389        0.079      339.661       13.147      860.824
06/28/2014  06:29:00      -74.181      -24.508       -2.289       23.640       14.172       12.315      558.827      200.847      151.654        0.351        0.046       78.125       11.649        0.022      339.658       13.141      860.815
06/28/2014  06:30:00      -65.447      -36.832       -4.987       12.848       15.170        9.393      165.067      230.139       88.231        0.307        0.024       75.099        8.002        0.011      339.695       13.205      860.806
06/28/2014  06:31:00      -81.291      -24.652       -5.943       19.751       14.551       10.903      390.117      211.719      118.873        0.399        0.036       84.947        9.781        0.013      339.712       13.232      860.799
06/28/2014  06:32:00      -88.634      -27.515       -1.569       17.537       22.320       11.512      307.542      498.177      132.528        0.478        0.047       92.806        8.590        0.009      339.734       13.272      860.797
06/28/2014  06:33:00     -102.966      -40.201       -3.746       15.781       17.112        9.830      249.054      292.829       96.630        0.644        0.032      110.536        7.881        0.005      339.769       13.333      860.807
06/28/2014  06:34:00      -85.353      -42.557        0.101       16.507       17.147        9.231      272.468      294.006       85.216        0.487        0.033       95.374        6.255        0.004      339.787       13.361      860.812
06/28/2014  06:35:00      -76.496      -26.006       -0.351       23.542       24.800       14.762      554.236      615.060      217.929        0.396        0.069       80.796       15.021        0.035      339.900       13.551      860.823
06/28/2014  06:36:00      -54.468      -27.752        3.285       24.313       12.016       12.526      591.125      144.375      156.900        0.232        0.045       61.130       10.896        0.032      339.911       13.570      860.834
06/28/2014  06:37:00      -51.962      -20.961       -0.575       22.151       19.039       13.503      490.679      362.489      182.339        0.209        0.052       56.030       12.457        0.049      339.937       13.613      860.862
06/28/2014  06:38:00      -63.812      -22.228        1.594       20.400       15.292       11.696      416.180      233.845      136.790        0.268        0.039       67.573       10.715        0.025      339.961       13.654      860.876
06/28/2014  06:39:00      -55.904      -24.085       -1.179       17.652       12.165        7.593      311.586      147.993       57.648        0.211        0.026       60.871        5.475        0.008      340.019       13.751      860.893
06/28/2014  06:40:00       -1.507      -26.323        2.194       23.292       11.836       10.224      542.496      140.100      104.525        0.074        0.039       26.366        8.262        0.098      340.180       14.023      860.914
06/28/2014  06:41:00       -7.122       -4.876       11.154       15.041        9.773       12.184      226.234       95.521      148.457        0.033        0.024        8.632        9.964        1.333      340.278       14.188      860.921
06/28/2014  06:42:00      -39.133       -7.624        0.293        8.883       17.740        9.520       78.913      314.723       90.621        0.104        0.024       39.868        9.964        0.062      340.089       13.868      860.934
06/28/2014  06:43:00      -49.429       -9.813        0.028       18.775       10.502       10.923      352.501      110.283      119.311        0.156        0.029       50.394       10.981        0.047      340.107       13.899      860.939
06/28/2014  06:44:00      -33.012      -35.675       -5.750       24.636       14.113       10.481      606.953      199.177      109.842        0.166        0.046       48.606        6.093        0.016      340.103       13.893      860.952
06/28/2014  06:45:00      -49.917       -1.810       -3.378       18.817       12.251       10.398      354.078      150.085      108.127        0.156        0.031       49.950       10.433        0.044      340.118       13.918      860.967
06/28/2014  06:46:00      -28.537      -11.827        2.056       16.582       10.925       10.560      274.962      119.347      111.505        0.073        0.025       30.891        8.905        0.083      340.238       14.120      860.976
06/28/2014  06:47:00       -8.036      -14.964       -3.387       23.165       13.114       16.385      536.608      171.986      268.483        0.064        0.049       16.985        5.945        0.123      340.418       14.425      860.979
06/28/2014  06:48:00      -39.635       -9.371       -7.766       18.283       10.318        6.074      334.252      106.460       36.894        0.110        0.024       40.727        6.847        0.028      340.291       14.209      860.986
06/28/2014  06:49:00      -15.552       -8.049       -9.918       18.980       11.166       11.984      360.240      124.685      143.605        0.052        0.031       17.512       11.164        0.406      340.322       14.263      860.990
06/28/2014  06:50:00      -30.300      -10.641       -3.303       17.606       12.817       10.151      309.961      164.263      103.049        0.081        0.029       32.114        8.487        0.070      340.379       14.359      860.993
06/28/2014  06:51:00      -28.931       14.272       -0.646        8.934        9.308        5.357       79.809       86.632       28.696        0.062        0.010       32.260        2.916        0.008      340.328       14.271      861.000
06/28/2014  06:52:00       -6.006       -3.870        5.415        6.958       12.919        9.619       48.414      166.912       92.521        0.019        0.015        7.145        0.817        0.013      340.887       15.218      861.003
06/28/2014  06:53:00      -16.487      -11.730        9.589       19.083       24.255       18.058      364.172      588.316      326.083        0.089        0.064       20.234       10.626        0.276      340.622       14.770      861.001
06/28/2014  06:54:00      -58.643        9.028       -2.325       22.745       10.318        7.683      517.345      106.468       59.021        0.210        0.034       59.334        5.515        0.009      340.314       14.248      860.996
06/28/2014  06:55:00      -64.632       16.499       -2.353       14.474       17.234       12.644      209.490      297.003      159.864        0.256        0.033       66.705       10.489        0.025      340.333       14.281      860.997
06/28/2014  06:56:00      -41.732       23.503       -7.630       11.678       15.999       10.419      136.371      255.955      108.558        0.143        0.025       47.895        7.237        0.023      340.415       14.419      860.993
06/28/2014  06:57:00      -39.011        4.141       -6.384       36.473       14.468       11.804     1330.248      209.328      139.339        0.163        0.084       39.230       16.252        0.172      340.481       14.530      860.993
06/28/2014  06:58:00      -18.952       14.554        8.243       25.953       17.463       21.313      673.541      304.965      454.225        0.104        0.072       23.896       21.408        0.803      340.837       15.135      860.988
06/28/2014  06:59:00      -25.752        3.291       -4.149       14.148        8.277        5.468      200.171       68.502       29.895        0.049        0.015       25.962        7.163        0.076      340.630       14.783      860.989
06/28/2014  07:00:00      -13.082       -4.090       15.977       11.988        8.406       13.431      143.700       70.655      180.392        0.042        0.020       13.706        8.606        0.394      341.258       15.846      860.982
06/28/2014  07:01:00      -43.949      -26.546       -1.848       15.754       15.200       14.751      248.183      231.051      217.584        0.167        0.035       51.344        3.300        0.004      340.619       14.764      860.980
06/28/2014  07:02:00      -43.283      -18.473        1.800       16.923       14.787        9.267      286.404      218.657       85.870        0.140        0.030       47.060        6.533        0.019      340.662       14.839      860.985
06/28/2014  07:03:00      -41.878      -14.437        0.860       14.560       11.015        7.299      211.999      121.326       53.275        0.117        0.019       44.296        3.466        0.006      340.650       14.818      860.997
06/28/2014  07:04:00      -33.255      -21.763       -1.002       13.519       13.464        8.156      182.774      181.280       66.515        0.101        0.022       39.743        8.550        0.046      340.657       14.830      861.018
06/28/2014  07:05:00      -10.784      -19.303        1.831       22.301       22.413       24.359      497.317      502.328      593.370        0.104        0.080       22.111       18.766        0.720      340.727       14.947      861.024
06/28/2014  07:06:00        5.435      -13.338       19.545       16.343       23.046       18.032      267.095      531.133      325.163        0.086        0.056       14.403       15.349        1.136      341.159       15.680      861.025
06/28/2014  07:07:00       14.279      -21.962       16.541       17.241       31.370       18.330      297.253      984.076      336.003        0.129        0.081       26.195       10.663        0.166      340.756       14.997      861.027
06/28/2014  07:08:00       16.926       26.315        9.796       26.637       27.060       16.646      709.530      732.232      277.092        0.140        0.086       31.289       11.931        0.145      340.523       14.603      861.024
06/28/2014  07:09:00       12.050       34.709        2.349       14.622       14.243       18.102      213.812      202.874      327.684        0.105        0.037       36.742        9.404        0.066      340.676       14.861      861.023
06/28/2014  07:10:00       28.657       15.081        9.613       25.052       23.235       18.283      627.605      539.855      334.271        0.132        0.075       32.383       11.075        0.117      340.948       15.322      861.020
06/28/2014  07:11:00       13.673       26.339        7.938       18.306       23.348       21.221      335.105      545.106      450.329        0.114        0.067       29.677       14.641        0.243      341.009       15.425      861.017
06/28/2014  07:12:00       17.423       15.800        1.442       20.611       21.056       18.159      424.802      443.351      329.760        0.088        0.060       23.520       12.700        0.292      340.932       15.295      861.004
06/28/2014  07:13:00        8.444        5.016       14.978       26.464       15.093       17.451      700.359      227.813      304.528        0.078        0.062        9.822       15.219        2.401      341.378       16.051      861.005
06/28/2014  07:14:00       16.820      -19.604       19.145       26.610       25.995       22.913      708.082      675.746      524.994        0.147        0.095       25.831       16.236        0.395      341.178       15.711      861.003
06/28/2014  07:15:00       36.162      -27.289       -1.121       26.742       21.361       30.862      715.146      456.289      952.478        0.209        0.106       45.303       13.081        0.083      340.872       15.192      861.007
06/28/2014  07:16:00       -2.559      -42.646       11.818       23.169       30.830       23.965      536.795      950.503      574.308        0.201        0.103       42.723       16.532        0.150      341.086       15.555      861.009
06/28/2014  07:17:00       17.479      -11.031       -0.126       20.778       29.861       26.855      431.710      891.691      721.202        0.124        0.102       20.669       12.034        0.339      341.229       15.797      861.023
06/28/2014  07:18:00       12.287      -26.808       16.721       32.744       32.578       26.879     1072.187     1061.299      722.461        0.200        0.143       29.490       22.191        0.566      341.069       15.525      861.030
06/28/2014  07:19:00       31.668      -12.022        6.525       31.633       27.988       28.883     1000.631      783.347      834.216        0.190        0.131       33.873       10.457        0.095      341.141       15.647      861.034
06/28/2014  07:20:00       48.859      -17.208        1.263       23.032       31.330       35.504      530.463      981.550     1260.527        0.273        0.139       51.800       24.637        0.226      340.941       15.310      861.035
06/28/2014  07:21:00        2.060        2.144       36.565       16.483       22.583       16.107      271.674      510.001      259.449        0.119        0.052        2.973       10.674       12.888      341.774       16.721      861.050
06/28/2014  07:22:00       13.339      -24.168       28.222       22.292       24.684       17.749      496.947      609.294      315.038        0.149        0.071       27.604        3.592        0.017      341.520       16.290      861.064
06/28/2014  07:23:00       19.617      -10.234       16.603       21.003       25.092       24.162      441.119      629.584      583.802        0.121        0.083       22.126       16.280        0.541      341.411       16.105      861.069
06/28/2014  07:24:00       -0.713      -14.134        7.634       28.034       27.914       26.363      785.881      779.186      694.983        0.126        0.113       14.152       21.241        2.253      341.326       15.962      861.074
06/28/2014  07:25:00       12.912      -35.546        7.421       28.551       24.838       23.981      815.182      616.934      575.077        0.175        0.100       37.818       17.941        0.225      341.087       15.557      861.086
06/28/2014  07:26:00       -7.212        3.544       17.588       15.762       17.974       20.008      248.428      323.052      400.309        0.067        0.049        8.036       11.249        1.959      341.920       16.968      861.089
06/28/2014  07:27:00       -2.097      -29.009        1.130       19.328       14.621       20.485      373.569      213.762      419.622        0.093        0.050       29.085       14.078        0.234      341.282       15.887      861.101
06/28/2014  07:28:00       -2.221      -35.229        6.837       19.436       25.728       20.294      377.769      661.942      411.835        0.137        0.073       35.299       13.060        0.137      341.219       15.782      861.107
06/28/2014  07:29:00        5.775      -56.949       10.404       21.325       24.671       22.384      454.753      608.646      501.045        0.247        0.078       57.241       12.275        0.046      341.340       15.984      861.110
06/28/2014  07:30:00       -3.450      -18.574       35.364       16.119       27.387       21.473      259.818      750.074      461.098        0.154        0.074       18.892       16.109        0.727      342.361       17.718      861.111
06/28/2014  07:31:00       15.766       -8.010       26.951       19.768       19.083       18.435      390.779      364.176      339.855        0.107        0.055       17.684        9.030        0.261      341.883       16.905      861.103
06/28/2014  07:32:00       24.592       -9.543       21.418       30.159       50.606       30.850      909.590     2560.940      951.692        0.279        0.221       26.379       30.728        1.357      341.497       16.251      861.090
06/28/2014  07:33:00       10.082      -14.822       26.655       22.263       23.604       25.324      495.642      557.147      641.288        0.136        0.085       17.926       10.971        0.375      341.931       16.987      861.074
06/28/2014  07:34:00       28.101        9.999       33.164       31.771       25.804       23.847     1009.412      665.856      568.691        0.212        0.112       29.827       15.578        0.273      341.795       16.758      861.076
06/28/2014  07:35:00      -12.374       18.399       22.730       25.567       27.914       24.145      653.662      779.216      582.993        0.151        0.101       22.173       16.577        0.559      341.989       17.087      861.066
06/28/2014  07:36:00      -11.930       44.262       14.316       22.662       36.722       22.495      513.588     1348.536      506.020        0.234        0.118       45.841       19.234        0.176      341.625       16.468      861.071
06/28/2014  07:37:00      -15.350       -3.296        8.601       10.684       20.435       19.106      114.144      417.590      365.053        0.061        0.045       15.700       16.582        1.116      341.710       16.613      861.062
06/28/2014  07:38:00      -14.473      -21.118       -0.634       20.737       15.132       20.003      430.028      228.984      400.117        0.086        0.053       25.601       11.804        0.213      341.556       16.351      861.061
06/28/2014  07:39:00      -44.662      -19.026        2.033       24.657       17.880       17.924      607.979      319.693      321.273        0.180        0.062       48.546       16.593        0.117      341.523       16.294      861.052
06/28/2014  07:40:00      -62.804      -58.912       -3.348       30.067       21.912       14.169      904.026      480.156      200.755        0.451        0.079       86.110       15.538        0.033      341.428       16.134      861.054
06/28/2014  07:41:00      -78.644      -57.988       -6.889       20.477       19.800       11.232      419.307      392.020      126.154        0.527        0.047       97.711       13.641        0.019      341.358       16.015      861.066
06/28/2014  07:42:00      -64.175      -45.970       -0.964       28.036       22.136       12.368      786.033      489.982      152.965        0.383        0.071       78.941       14.172        0.032      341.409       16.101      861.086
06/28/2014  07:43:00      -27.743      -39.424        7.971       25.458       16.384       10.797      648.124      268.432      116.584        0.171        0.052       48.207       10.468        0.047      341.457       16.183      861.104
06/28/2014  07:44:00      -29.228      -42.147       -1.206        7.355       10.147        6.787       54.093      102.959       46.057        0.142        0.010       51.289        4.002        0.006      341.376       16.046      861.103
06/28/2014  07:45:00      -25.366      -38.455       -6.391       16.100       18.993       13.903      259.194      360.746      193.287        0.149        0.041       46.067        9.467        0.042      341.494       16.245      861.110
06/28/2014  07:46:00      -31.835        8.631        2.127       18.472       12.580       11.786      341.231      158.265      138.907        0.087        0.032       32.984        8.816        0.071      341.655       16.518      861.113
06/28/2014  07:47:00      -25.556      -23.374       -1.234       21.526       24.667       14.686      463.358      608.451      215.670        0.124        0.064       34.633       11.867        0.117      341.747       16.674      861.111
06/28/2014  07:48:00      -21.680      -28.213        8.897       33.200       29.329       20.597     1102.222      860.212      424.243        0.187        0.119       35.580       22.932        0.415      341.955       17.029      861.116
06/28/2014  07:49:00      -11.330        4.160       16.940       18.450       17.815       20.951      340.417      317.367      438.956        0.076        0.055       12.070       12.496        1.072      342.609       18.140      861.115
06/28/2014  07:50:00       15.300       -4.625       17.152       42.762       29.080       19.864     1828.627      845.653      394.575        0.181        0.153       15.984        9.914        0.385      341.737       16.657      861.121
06/28/2014  07:51:00       -5.270      -18.246       20.811       14.446       24.437       19.407      208.692      597.161      376.612        0.099        0.059       18.991       17.311        0.831      342.521       17.991      861.126
06/28/2014  07:52:00      -19.933      -31.591       -2.264       14.518       27.261       20.416      210.778      743.136      416.803        0.139        0.069       37.354       12.930        0.120      341.696       16.587      861.134
06/28/2014  07:53:00      -64.264      -53.026        3.112       40.695       33.741       19.361     1656.089     1138.455      374.853        0.506        0.158       83.316       11.532        0.019      341.607       16.437      861.140
06/28/2014  07:54:00      -92.756      -48.924        0.763       55.986       26.127       22.577     3134.466      682.611      509.709        0.766        0.216      104.867       22.194        0.045      341.651       16.511      861.139
06/28/2014  07:55:00     -102.984      -83.923      -13.860       37.241       32.718       19.769     1386.911     1070.461      390.825        1.034        0.142      132.849       18.920        0.020      341.648       16.505      861.147
06/28/2014  07:56:00     -106.899      -37.136        7.533       24.517       19.745       19.395      601.072      389.872      376.182        0.711        0.068      113.165       15.241        0.018      341.659       16.526      861.154
06/28/2014  07:57:00      -45.620      -30.345        4.910       39.661       21.844       19.659     1572.984      477.152      386.467        0.273        0.122       54.790       17.801        0.106      341.881       16.904      861.153
06/28/2014  07:58:00      -63.653      -62.807       -5.171       24.103       27.408       11.770      580.945      751.212      138.533        0.475        0.074       89.422       13.279        0.022      341.724       16.633      861.156
06/28/2014  07:59:00      -19.730      -49.553        5.261        9.660       18.165       17.099       93.321      329.977      292.385        0.179        0.036       53.336       11.981        0.050      341.717       16.624      861.160
06/28/2014  08:00:00      -16.124      -40.879        3.173        6.490       16.178        6.212       42.126      261.729       38.583        0.114        0.017       43.944        3.350        0.006      341.664       16.534      861.155
06/28/2014  08:01:00      -26.886      -33.530       -2.394       11.900       21.570       19.886      141.612      465.258      395.452        0.143        0.050       42.978       11.022        0.066      341.879       16.900      861.158
06/28/2014  08:02:00      -42.695      -14.676        0.715       21.502       17.694       16.228      462.339      313.071      263.346        0.154        0.052       45.147       13.346        0.087      341.959       17.033      861.165
06/28/2014  08:03:00      -38.320       -9.770        2.396       25.669       24.276       19.112      658.918      589.312      365.281        0.159        0.081       39.546        6.005        0.023      342.055       17.198      861.165
06/28/2014  08:04:00      -33.462       -8.745       15.790       39.130       40.251       24.765     1531.155     1620.116      613.281        0.260        0.188       34.586       25.319        0.536      342.576       18.085      861.169
06/28/2014  08:05:00      -76.786      -38.351        3.255       46.136       27.063       25.315     2128.553      732.399      640.848        0.544        0.175       85.830       19.414        0.051      341.965       17.044      861.169
06/28/2014  08:06:00      -78.121      -51.138        3.664       35.508       28.545       20.979     1260.790      814.830      440.130        0.562        0.126       93.370       21.146        0.051      341.922       16.973      861.158
06/28/2014  08:07:00      -29.517      -91.455       -2.717       24.663       18.649       14.524      608.281      347.803      210.945        0.520        0.058       96.100       13.725        0.020      341.812       16.785      861.153
06/28/2014  08:08:00      -26.144      -21.726        7.751       22.462       37.169       20.072      504.559     1381.537      402.883        0.175        0.114       33.992       20.407        0.360      342.149       17.355      861.144
06/28/2014  08:09:00      -31.287      -89.569        5.720       36.473       43.131       18.717     1330.279     1860.248      350.341        0.629        0.177       94.877       21.004        0.049      341.884       16.907      861.139
06/28/2014  08:10:00      -68.797      -84.461        0.368       33.437       24.996       13.908     1118.040      624.802      193.425        0.690        0.097      108.934       15.276        0.020      341.900       16.934      861.133
06/28/2014  08:11:00      -27.431     -104.835        4.767       22.403       26.368       15.677      501.879      695.263      245.763        0.660        0.072      108.364        9.447        0.008      341.944       17.009      861.133
06/28/2014  08:12:00      -20.910      -43.224       -2.128       23.587       29.946       21.369      556.354      896.769      456.633        0.211        0.095       48.016        8.803        0.034      342.082       17.245      861.142
06/28/2014  08:13:00      -40.690      -48.848        5.250       27.906       23.878       21.191      778.746      570.158      449.071        0.293        0.090       63.575       18.042        0.081      342.148       17.356      861.145
06/28/2014  08:14:00      -47.493      -49.546        5.347       30.485       41.619       17.478      929.317     1732.115      305.483        0.385        0.148       68.632       17.305        0.064      342.310       17.630      861.140
06/28/2014  08:15:00     -113.784      -53.550       -5.074       33.692       23.004       17.124     1135.151      529.186      293.223        0.890        0.098      125.755       16.280        0.017      342.031       17.155      861.142
06/28/2014  08:16:00     -106.038      -30.242       -5.273       14.805       10.305       11.715      219.183      106.200      137.251        0.632        0.023      110.266        9.965        0.008      341.948       17.014      861.139
06/28/2014  08:17:00      -76.398      -21.719      -17.353       30.402       22.175       16.442      924.291      491.723      270.341        0.415        0.084       79.425        8.451        0.011      342.029       17.154      861.127
06/28/2014  08:18:00      -11.442       -7.177       21.812       29.140       22.985       20.354      849.131      528.322      414.288        0.122        0.090       13.507       21.017        2.421      342.720       18.328      861.122
06/28/2014  08:19:00      -11.735       -8.453       20.470       17.908       23.603       15.487      320.696      557.100      239.849        0.087        0.056       14.463       12.656        0.766      343.047       18.886      861.108
06/28/2014  08:20:00      -29.187      -45.790       -2.707       23.779       37.673       18.909      565.446     1419.272      357.566        0.265        0.117       54.301       20.313        0.140      342.330       17.665      861.108
06/28/2014  08:21:00      -23.978      -27.058        7.068       25.981       30.386       33.737      675.028      923.306     1138.177        0.205        0.137       36.153       23.510        0.423      342.793       18.454      861.110
06/28/2014  08:22:00      -33.928      -11.610        3.438       30.753       24.385       19.863      945.733      594.609      394.559        0.162        0.097       35.860       18.443        0.265      342.459       17.884      861.126
06/28/2014  08:23:00      -39.261      -17.349       -2.518       32.514       23.844       14.844     1057.164      568.559      220.343        0.185        0.092       42.924        9.081        0.045      342.497       17.948      861.139
06/28/2014  08:24:00      -45.017      -36.295        6.552       17.090       21.790       13.164      292.082      474.791      173.286        0.216        0.047       57.826       10.620        0.034      342.372       17.734      861.150
06/28/2014  08:25:00      -20.879        3.138       23.763       24.833       30.040       22.552      616.656      902.376      508.575        0.152        0.101       21.114       18.846        0.797      343.376       19.446      861.158
06/28/2014  08:26:00      -19.029      -18.124       21.585       48.521       21.073       22.674     2354.313      444.058      514.129        0.223        0.166       26.279       26.998        1.055      343.226       19.191      861.165
06/28/2014  08:27:00      -46.586       -7.048        1.711       19.812       20.581       13.903      392.501      423.574      193.289        0.162        0.050       47.116       11.077        0.055      342.442       17.856      861.172
06/28/2014  08:28:00      -20.480       10.160        2.528       22.531       13.765       16.421      507.668      189.468      269.664        0.075        0.048       22.862        7.547        0.109      342.652       18.212      861.166
06/28/2014  08:29:00       -5.046        5.973       18.484       29.662       22.366       29.127      879.809      500.250      848.359        0.132        0.111        7.819       14.018        3.214      343.193       19.133      861.180
06/28/2014  08:30:00      -36.482      -13.842        1.813       28.756       21.151       24.156      826.922      447.374      583.491        0.169        0.093       39.020       18.159        0.217      342.872       18.586      861.196
06/28/2014  08:31:00       -2.773      -12.328       32.426       17.356       34.065       21.632      301.239     1160.400      467.928        0.157        0.096       12.637       18.968        2.253      343.761       20.104      861.208
06/28/2014  08:32:00      -20.518       15.582       25.715       33.579       22.737       24.723     1127.551      516.960      611.206        0.179        0.113       25.764       18.456        0.513      343.272       19.269      861.219
06/28/2014  08:33:00      -13.683       18.266       45.126       28.193       20.397       19.246      794.843      416.031      370.393        0.207        0.079       22.822       13.043        0.327      343.356       19.412      861.217
06/28/2014  08:34:00      -17.355       25.437       37.275       24.981       23.635       27.284      624.034      558.605      744.442        0.213        0.096       30.794       20.237        0.432      343.090       18.959      861.214
06/28/2014  08:35:00      -20.564        0.968       11.598       25.201       18.455       23.204      635.077      340.601      538.412        0.104        0.076       20.586       17.349        0.710      343.347       19.396      861.222
06/28/2014  08:36:00      -19.435      -12.273       20.354       24.823       30.549       21.199      616.199      933.232      449.395        0.147        0.100       22.986       17.295        0.566      343.158       19.073      861.230
06/28/2014  08:37:00       55.868       73.325       50.453       68.017       74.990       38.521     4626.260     5623.545     1483.860        1.139        0.587       92.183       43.560        0.223      342.554       18.044      861.227
06/28/2014  08:38:00       90.404       72.475       22.911       14.676       27.749       25.025      215.371      770.021      626.275        0.778        0.081      115.869       11.932        0.011      342.488       17.931      861.238
06/28/2014  08:39:00       35.948       11.333       -7.993       29.600       54.139       33.701      876.172     2930.998     1135.790        0.321        0.247       37.692       18.507        0.241      342.559       18.054      861.238
06/28/2014  08:40:00       12.212       -4.535       40.637       25.131       33.831       21.158      631.564     1144.560      447.673        0.202        0.111       13.027       11.922        0.838      343.453       19.576      861.238
06/28/2014  08:41:00       17.974       -3.836       35.058       25.383       22.312       23.162      644.290      497.806      536.465        0.162        0.084       18.378       18.917        1.060      343.483       19.627      861.250
06/28/2014  08:42:00       29.050        5.273        9.992       37.596       27.034       29.205     1413.476      730.847      852.914        0.198        0.150       29.525       22.086        0.560      342.865       18.574      861.260
06/28/2014  08:43:00       33.972       26.319       24.759       22.256       26.840       24.787      495.322      720.397      614.400        0.214        0.092       42.974       18.005        0.176      343.037       18.867      861.265
06/28/2014  08:44:00       11.520        2.422       46.807       19.383       27.992       18.120      375.692      783.532      328.339        0.191        0.074       11.772       16.210        1.896      343.394       19.476      861.284
06/28/2014  08:45:00       18.117        5.424       35.313       38.686       47.053       36.305     1496.628     2214.024     1318.040        0.332        0.251       18.911       33.300        3.101      343.163       19.083      861.286
06/28/2014  08:46:00       11.065        7.267       46.002       27.316       32.293       22.084      746.174     1042.833      487.707        0.228        0.114       13.239       12.865        0.944      343.729       20.047      861.296
06/28/2014  08:47:00       -6.616       20.304       36.522       22.573       31.257       17.219      509.558      976.992      296.492        0.179        0.089       21.355       11.196        0.275      343.618       19.859      861.296
06/28/2014  08:48:00       19.149       10.293       35.460       31.619       23.533       26.757      999.757      553.821      715.950        0.200        0.113       21.740       14.951        0.473      343.883       20.310      861.297
06/28/2014  08:49:00       40.029      -33.197        6.706       54.206       58.223       38.587     2938.328     3389.867     1488.921        0.528        0.391       52.003       40.844        0.617      343.272       19.267      861.292
06/28/2014  08:50:00       21.560       -0.355       41.496       38.133       64.389       40.109     1454.131     4145.979     1608.757        0.470        0.360       21.563       40.521        3.531      343.391       19.471      861.279
06/28/2014  08:51:00      103.618       50.195       42.061       93.792       78.888       50.084     8796.908     6223.391     2508.423        1.627        0.876      115.136       39.096        0.115      343.045       18.878      861.269
06/28/2014  08:52:00      113.973       91.454       26.620       68.734       45.617       41.124     4724.301     2080.938     1691.185        1.528        0.425      146.129       27.056        0.034      342.769       18.412      861.281
06/28/2014  08:53:00      129.612       75.821       13.386       29.805       44.661       33.627      888.334     1994.576     1130.753        1.337        0.201      150.160       14.090        0.009      342.899       18.632      861.270
06/28/2014  08:54:00       87.462       65.016        3.215       34.315       32.155       25.998     1177.541     1033.941      675.891        0.739        0.144      108.980       10.881        0.010      343.015       18.829      861.276
06/28/2014  08:55:00      119.247       63.407       22.308       50.395       37.923       35.079     2539.699     1438.178     1230.553        1.197        0.260      135.057       21.030        0.024      343.168       19.089      861.267
06/28/2014  08:56:00       35.577       55.658       10.324       53.920       43.663       36.811     2907.369     1906.488     1355.074        0.532        0.308       66.057       29.841        0.204      343.453       19.576      861.269
06/28/2014  08:57:00       56.781       44.842        8.312       38.832       34.669       24.783     1507.899     1201.945      614.199        0.431        0.166       72.352       20.508        0.080      343.359       19.416      861.271
06/28/2014  08:58:00       20.849       23.682        7.357       32.318       36.697       24.244     1044.437     1346.662      587.760        0.201        0.149       31.552       16.902        0.287      343.702       20.001      861.277
06/28/2014  08:59:00        5.383       26.963       20.528       22.920       29.309       21.075      525.348      859.045      444.138        0.150        0.091       27.495       13.552        0.243      343.987       20.487      861.271
06/28/2014  09:00:00        5.022       20.356        9.288       20.742       39.794       21.773      430.230     1583.569      474.051        0.151        0.124       20.967       26.507        1.598      343.564       19.766      861.257
06/28/2014  09:01:00       18.701      -11.556       28.799       26.303       37.184       28.298      691.845     1382.650      800.766        0.209        0.144       21.983       15.433        0.493      343.934       20.395      861.258
06/28/2014  09:02:00       30.717      -25.339       33.011       46.986       60.979       33.733     2207.652     3718.405     1137.934        0.487        0.353       39.820       34.154        0.736      343.807       20.180      861.244
06/28/2014  09:03:00       34.337      -46.429       12.814       57.216       58.694       46.224     3273.712     3445.012     2136.680        0.618        0.443       57.746       41.031        0.505      343.484       19.629      861.237
06/28/2014  09:04:00       60.505      -77.338       12.022       62.060       64.872       45.089     3851.390     4208.389     2032.981        0.994        0.505       98.194       40.414        0.169      343.466       19.600      861.227
06/28/2014  09:05:00       60.010      -15.884       38.288       63.874       75.192       54.063     4079.902     5653.832     2922.859        0.899        0.633       62.076       58.153        0.878      343.400       19.485      861.237
06/28/2014  09:06:00       34.484      -16.143       27.151       35.610       47.815       29.680     1268.057     2286.267      880.902        0.331        0.222       38.076       31.025        0.664      343.605       19.835      861.231
06/28/2014  09:07:00       97.653      -28.301       32.108       81.936       39.613       41.469     6713.482     1569.182     1719.638        1.068        0.500      101.672       42.529        0.175      343.471       19.606      861.213
06/28/2014  09:08:00       68.433      -61.780       10.607       63.925       73.189       44.181     4086.421     5356.567     1951.974        1.000        0.570       92.195       34.785        0.142      343.236       19.204      861.205
06/28/2014  09:09:00      110.282       41.521       36.085       64.343       64.335       45.407     4139.981     4138.951     2061.754        1.276        0.517      117.839       32.708        0.077      343.404       19.492      861.201
06/28/2014  09:10:00       34.077       20.382       19.509       45.198       52.320       33.769     2042.856     2737.341     1140.340        0.394        0.296       39.707       22.068        0.309      343.796       20.161      861.212
06/28/2014  09:11:00        0.309       29.711       55.982       31.785       30.344       24.139     1010.314      920.737      582.708        0.326        0.126       29.713       13.201        0.197      344.048       20.591      861.216
06/28/2014  09:12:00       33.136      -26.198       27.671       36.099       50.399       39.814     1303.119     2540.034     1585.180        0.399        0.271       42.242       30.164        0.510      343.530       19.707      861.222
06/28/2014  09:13:00      141.685       94.293       47.876       87.011       55.337       45.918     7570.923     3062.146     2108.444        2.200        0.637      170.193       30.159        0.031      343.376       19.441      861.204
06/28/2014  09:14:00      163.699       93.787       27.038       49.065       35.088       39.959     2407.350     1231.184     1596.760        2.078        0.262      188.662       30.694        0.026      343.062       18.908      861.212
06/28/2014  09:15:00      107.930       78.268       25.632       52.663       32.039       42.593     2773.431     1026.523     1814.190        1.202        0.281      133.322       24.633        0.034      343.207       19.156      861.206
06/28/2014  09:16:00       75.150       82.832       25.882       38.667       28.122       47.365     1495.141      790.820     2243.417        0.885        0.226      111.843       26.080        0.054      343.168       19.089      861.213
06/28/2014  09:17:00       46.783       68.920       54.821       41.092       35.560       37.845     1688.527     1264.479     1432.278        0.716        0.219       83.299       20.397        0.060      343.615       19.852      861.204
06/28/2014  09:18:00       72.197       47.780       22.706       36.450       33.518       30.067     1328.569     1123.481      904.022        0.568        0.168       86.576       15.038        0.030      343.734       20.054      861.211
06/28/2014  09:19:00       94.236       61.666       24.780       52.269       41.188       35.882     2732.018     1696.456     1287.510        0.951        0.286      112.619       26.539        0.056      343.568       19.771      861.199
06/28/2014  09:20:00       87.091       53.606       14.873       47.523       30.995       32.057     2258.449      960.663     1027.672        0.746        0.212      102.267       19.330        0.036      343.535       19.715      861.203
06/28/2014  09:21:00       94.165       52.581       32.829       66.295       43.893       34.859     4395.043     1926.626     1215.163        1.012        0.377      107.851       31.855        0.087      343.466       19.598      861.194
06/28/2014  09:22:00       27.010       13.089       42.127       35.551       33.012       24.315     1263.892     1089.764      591.206        0.281        0.147       30.014       16.676        0.309      343.937       20.401      861.201
06/28/2014  09:23:00       96.524       42.340       22.892       53.094       54.663       37.710     2818.996     2988.078     1422.036        0.943        0.361      105.402       20.772        0.039      343.604       19.832      861.199
06/28/2014  09:24:00       92.211       54.399       21.804       44.982       50.871       32.081     2023.364     2587.850     1029.214        0.879        0.282      107.061       26.766        0.063      343.538       19.721      861.195
06/28/2014  09:25:00       24.047       18.969       22.499       52.479       28.054       23.577     2754.057      787.023      555.861        0.277        0.205       30.628       14.014        0.209      344.205       20.860      861.174
06/28/2014  09:26:00      -38.737       15.247       -3.274       28.545       19.486       16.974      814.803      379.709      288.132        0.161        0.074       41.630       15.049        0.131      343.446       19.563      861.167
06/28/2014  09:27:00       -1.218        8.604       10.769       17.232       24.959       24.536      296.948      622.936      602.004        0.086        0.076        8.690       13.488        2.409      344.219       20.884      861.164
06/28/2014  09:28:00       26.192       26.852       48.093       27.476       27.391       18.857      754.956      750.242      355.587        0.279        0.093       37.510       15.121        0.162      344.086       20.656      861.175
06/28/2014  09:29:00       44.189       60.787       75.886       65.670       49.122       32.653     4312.587     2412.988     1066.239        0.960        0.390       75.151       23.052        0.094      344.342       21.094      861.179
06/28/2014  09:30:00       23.599       24.163       61.966       31.105       58.167       34.762      967.519     3383.418     1208.420        0.527        0.278       33.775       33.211        0.967      343.971       20.458      861.186
06/28/2014  09:31:00       80.445      -19.648       39.082       72.167       54.373       38.788     5208.129     2956.459     1504.541        0.903        0.483       82.810       48.120        0.338      343.551       19.743      861.178
06/28/2014  09:32:00       48.922      -89.223        7.243       42.902       52.905       29.787     1840.573     2798.909      887.265        0.797        0.276      101.756       21.726        0.046      343.426       19.531      861.156
06/28/2014  09:33:00       41.131      -31.421       17.059       39.085       62.246       37.352     1527.658     3874.614     1395.136        0.488        0.340       51.759       30.112        0.338      343.977       20.468      861.148
06/28/2014  09:34:00       50.511     -105.895       -2.703       45.135       52.495       34.038     2037.205     2755.721     1158.590        0.986        0.298      117.325       23.004        0.038      343.712       20.017      861.121
06/28/2014  09:35:00        8.892      -17.251       35.661       44.500       56.104       38.597     1980.233     3147.641     1489.710        0.413        0.331       19.408       41.315        4.532      344.267       20.966      861.110
06/28/2014  09:36:00       52.948      -36.723       18.244       52.774       44.192       45.770     2785.147     1952.954     2094.886        0.566        0.342       64.436       29.173        0.205      343.672       19.949      861.088
06/28/2014  09:37:00       69.544      -64.525       -8.642       39.579       36.285       32.063     1566.507     1316.626     1028.047        0.649        0.196       94.867       31.623        0.111      343.234       19.201      861.081
06/28/2014  09:38:00       19.356       17.920       10.239       21.920       72.988       26.499      480.502     5327.276      702.209        0.365        0.325       26.377       26.239        0.990      343.731       20.049      861.075
06/28/2014  09:39:00       -0.589       39.493       15.552       19.136       35.631       27.487      366.201     1269.574      755.539        0.210        0.120       39.498       24.597        0.388      344.351       21.110      861.070
06/28/2014  09:40:00       50.316       15.214       31.279       35.082       21.361       26.323     1230.769      456.296      692.874        0.306        0.119       52.566       18.700        0.127      344.619       21.566      861.055
06/28/2014  09:41:00       34.690      -11.369       22.109       34.139       41.377       31.078     1165.482     1712.077      965.832        0.283        0.192       36.505       15.237        0.174      343.996       20.503      861.059
06/28/2014  09:42:00        1.935      -34.209       22.768       25.915       37.161       28.918      671.585     1380.940      836.272        0.229        0.144       34.263       25.396        0.549      344.235       20.911      861.042
06/28/2014  09:43:00      -25.706        9.541       23.800       24.667       19.738       19.883      608.461      389.608      395.340        0.136        0.070       27.420       15.844        0.334      344.501       21.366      861.031
06/28/2014  09:44:00       42.905       36.442       24.628       38.679       33.701       27.994     1496.070     1135.782      783.687        0.359        0.171       56.293       18.435        0.107      344.372       21.146      861.011
06/28/2014  09:45:00        7.596       -9.355       24.016       32.989       48.135       37.580     1088.277     2317.003     1412.288        0.277        0.241       12.050       23.647        3.851      344.283       20.992      860.990
06/28/2014  09:46:00       -5.918       -8.436       42.159       19.863       40.112       20.103      394.551     1608.939      404.148        0.215        0.120       10.305       19.790        3.688      344.725       21.749      860.981
06/28/2014  09:47:00        3.332       10.257       22.825       40.198       65.740       31.001     1615.849     4321.783      961.050        0.377        0.345       10.784       25.279        5.495      344.325       21.065      860.958
06/28/2014  09:48:00        9.006       49.424       55.211       45.684       53.302       40.938     2086.988     2841.121     1675.935        0.609        0.330       50.238       21.843        0.189      344.866       21.990      860.947
06/28/2014  09:49:00       59.903       47.600       41.620       61.843       54.464       36.896     3824.515     2966.379     1361.278        0.787        0.408       76.512       21.948        0.082      344.363       21.129      860.946
06/28/2014  09:50:00       13.180      -10.556       42.488       60.067       79.453       46.511     3608.081     6312.724     2163.314        0.709        0.604       16.886       41.344        5.994      344.542       21.435      860.934
06/28/2014  09:51:00      121.660       54.653       50.494       58.353       49.644       45.972     3405.037     2464.565     2113.381        1.416        0.399      133.372       20.748        0.024      344.311       21.037      860.932
06/28/2014  09:52:00       -7.503      -33.030       22.427       38.251       52.387       31.384     1463.106     2744.392      984.945        0.342        0.260       33.872       20.583        0.369      344.372       21.146      860.935
06/28/2014  09:53:00       44.183       84.454       67.576       56.770       51.946       47.350     3222.846     2698.362     2242.013        1.091        0.408       95.314       41.333        0.188      344.343       21.094      860.936
06/28/2014  09:54:00      112.727      118.500       91.636       71.535       48.748       44.062     5117.202     2376.413     1941.459        2.229        0.472      163.553       34.670        0.045      344.090       20.661      860.930
06/28/2014  09:55:00      112.589       81.381       44.346       30.857       20.096       32.886      952.176      403.854     1081.480        1.185        0.122      138.921       18.801        0.018      343.666       19.937      860.950
06/28/2014  09:56:00       48.823       59.095       14.500       35.353       47.796       22.831     1249.848     2284.431      521.261        0.507        0.203       76.654       19.718        0.066      344.066       20.623      860.925
06/28/2014  09:57:00      102.441       44.265       42.362       68.228       55.910       39.436     4655.103     3125.895     1555.175        1.179        0.467      111.596       18.021        0.026      344.037       20.572      860.922
06/28/2014  09:58:00       86.435       88.035       61.124       60.323       41.698       42.644     3638.829     1738.705     1818.513        1.308        0.360      123.375       29.932        0.059      343.955       20.430      860.912
06/28/2014  09:59:00       40.718       -9.500       25.770       40.696       39.657       29.571     1656.166     1572.714      874.420        0.326        0.205       41.811       24.858        0.353      344.133       20.735      860.915
06/28/2014  10:00:00       30.456        5.409       11.812       27.273       16.164       24.044      743.820      261.265      578.107        0.134        0.079       30.932       12.842        0.172      344.178       20.813      860.898
06/28/2014  10:01:00       45.335       -7.834       31.529       36.312       20.001       27.599     1318.555      400.034      761.681        0.280        0.124       46.007       18.995        0.170      344.369       21.139      860.894
06/28/2014  10:02:00       21.315       15.192       25.143       34.464       30.161       26.245     1187.759      909.676      688.808        0.205        0.139       26.175       10.912        0.174      344.586       21.510      860.867
06/28/2014  10:03:00      -25.832      -44.074       16.870       27.921       29.828       29.292      779.609      889.699      858.039        0.271        0.126       51.086       11.886        0.054      344.222       20.889      860.842
06/28/2014  10:04:00      -31.930       23.983       23.173       19.375       15.340       23.753      375.385      235.322      564.192        0.165        0.059       39.933       16.495        0.171      344.870       21.998      860.838
06/28/2014  10:05:00       -6.143      -10.242       13.510       16.819       19.289       13.704      282.887      372.072      187.796        0.058        0.042       11.943        7.840        0.431      344.809       21.892      860.817
06/28/2014  10:06:00        7.833       -4.390       31.746       22.025       28.887       29.925      485.084      834.465      895.490        0.165        0.111        8.979       19.739        4.832      344.873       22.003      860.815
06/28/2014  10:07:00       28.188      -21.570       27.152       55.744       52.226       42.938     3107.395     2727.567     1843.673        0.484        0.384       35.494       31.616        0.793      344.932       22.101      860.812
06/28/2014  10:08:00       84.204      -27.380       51.902       73.990       65.969       48.115     5474.577     4351.847     2315.007        1.134        0.607       88.544       50.981        0.332      344.686       21.681      860.811
06/28/2014  10:09:00       70.922      -55.224        0.882       56.304       50.938       48.948     3170.158     2594.700     2395.907        0.812        0.408       89.887       30.636        0.116      344.419       21.224      860.808
06/28/2014  10:10:00       41.590       43.811       27.775       65.091       59.968       29.134     4236.880     3596.132      848.782        0.655        0.434       60.409       17.365        0.083      344.953       22.138      860.816
06/28/2014  10:11:00      104.705       96.973       56.210       56.318       53.587       41.998     3171.771     2871.553     1763.844        1.567        0.390      142.713        2.555        0.000      344.516       21.390      860.817
06/28/2014  10:12:00       29.104       26.613       31.390       44.959       33.731       26.477     2021.284     1137.792      701.053        0.320        0.193       39.438       11.044        0.078      344.576       21.493      860.809
06/28/2014  10:13:00       45.860      -78.389      -12.778       52.924       74.895       42.281     2800.958     5609.269     1787.655        0.930        0.510       90.818       48.831        0.289      344.916       22.075      860.818
06/28/2014  10:14:00        8.724       30.100       40.713       32.256       29.040       19.418     1040.425      843.306      377.068        0.245        0.113       31.339       13.494        0.185      345.287       22.712      860.818
06/28/2014  10:15:00       43.688       32.100       19.199       32.225       26.356       22.371     1038.456      694.616      500.476        0.277        0.112       54.214       10.658        0.039      344.336       21.083      860.826
06/28/2014  10:16:00       81.010       68.164       54.731       50.774       49.043       41.254     2578.035     2405.256     1701.916        1.044        0.334      105.873       30.899        0.085      344.572       21.486      860.813
06/28/2014  10:17:00       92.851       62.405       23.368       45.288       45.581       56.189     2051.020     2077.612     3157.179        1.017        0.364      111.873       31.420        0.079      344.418       21.224      860.824
06/28/2014  10:18:00       76.927      -19.340       -1.108       44.977       58.085       28.130     2022.946     3373.861      791.315        0.624        0.309       79.321       17.899        0.051      344.488       21.343      860.823
06/28/2014  10:19:00       20.764      -19.591       32.745       38.730       41.295       28.851     1500.040     1705.293      832.392        0.296        0.202       28.547       30.287        1.126      344.613       21.557      860.817
06/28/2014  10:20:00        7.528        2.383       12.715       28.874       37.432       18.962      833.704     1401.153      359.557        0.141        0.130        7.896        9.342        1.400      344.768       21.822      860.803
06/28/2014  10:21:00       82.499       70.273       13.871       63.469       36.997       41.472     4028.326     1368.802     1719.927        0.953        0.356      108.371       25.330        0.055      344.791       21.860      860.783
06/28/2014  10:22:00       35.162       62.225       13.618       39.705       54.201       29.411     1576.494     2937.725      865.021        0.534        0.269       71.472       24.554        0.118      345.003       22.223      860.771
06/28/2014  10:23:00        3.474       48.426       12.885       39.895       51.482       29.995     1591.648     2650.442      899.699        0.383        0.257       48.551       27.391        0.318      345.624       23.289      860.743
06/28/2014  10:24:00       92.615       61.668        6.613       71.681       45.180       39.519     5138.232     2041.273     1561.728        1.058        0.437      111.268       28.030        0.063      345.059       22.320      860.731
06/28/2014  10:25:00       56.675       41.976       28.398       60.144       40.045       38.881     3617.326     1603.585     1511.698        0.626        0.337       70.527       31.818        0.204      345.529       23.124      860.719
06/28/2014  10:26:00       45.641       43.977       31.822       46.164       47.292       35.576     2131.157     2236.489     1265.681        0.533        0.282       63.381       11.884        0.035      345.157       22.486      860.721
06/28/2014  10:27:00       13.682      -39.521       11.833       21.024       36.414       25.670      441.992     1325.973      658.945        0.216        0.121       41.823       12.293        0.086      344.701       21.707      860.722
06/28/2014  10:28:00        2.804      -53.473      -16.381       27.286       37.133       19.851      744.503     1378.842      394.049        0.283        0.126       53.546       18.266        0.116      344.661       21.638      860.718
06/28/2014  10:29:00       22.523      -14.279        6.768       53.236       33.830       42.532     2834.117     1144.465     1808.981        0.327        0.289       26.668       22.141        0.689      344.961       22.151      860.718
06/28/2014  10:30:00       42.505      -20.744       41.396       59.051       59.342       39.956     3487.064     3521.495     1596.510        0.628        0.430       47.297       22.738        0.231      344.868       21.993      860.710
06/28/2014  10:31:00        2.267      -54.857        9.969       60.732       38.052       23.712     3688.384     1447.978      562.246        0.441        0.285       54.904       18.148        0.109      344.803       21.881      860.720
06/28/2014  10:32:00       19.897       24.766       25.307       31.007       35.945       26.490      961.429     1292.055      701.714        0.230        0.148       31.768       19.387        0.372      344.817       21.906      860.719
06/28/2014  10:33:00      -25.969       -7.574       38.413       32.534       29.843       23.716     1058.430      890.590      562.466        0.236        0.126       27.051       19.375        0.513      345.684       23.393      860.713
06/28/2014  10:34:00      -23.656      -28.116       33.033       31.298       52.074       27.921      979.587     2711.746      779.556        0.346        0.224       36.744       29.732        0.655      345.493       23.063      860.704
06/28/2014  10:35:00       56.981      -72.889       10.879       70.633       64.924       47.862     4989.043     4215.137     2290.809        1.008        0.575       92.518       42.358        0.210      345.335       22.792      860.718
06/28/2014  10:36:00       38.290       22.499       83.873       78.607      101.277       67.933     6179.077    10256.954     4614.871        1.503        1.053       44.411       67.019        2.277      345.300       22.731      860.714
06/28/2014  10:37:00       -4.207       45.644       93.110       37.251       90.632       67.984     1387.651     8214.208     4621.778        1.249        0.711       45.837       73.199        2.550      345.455       22.997      860.718
06/28/2014  10:38:00       42.825      -97.089      -13.211       80.662       98.025       57.042     6506.391     9608.951     3253.768        1.540        0.968      106.114       50.719        0.228      345.411       22.923      860.713
06/28/2014  10:39:00       32.029      -40.678       26.378       60.945       82.578       48.486     3714.305     6819.113     2350.930        0.813        0.644       51.774       51.602        0.993      345.709       23.432      860.705
06/28/2014  10:40:00       57.054      -72.529       16.098       76.811      128.686       74.808     5899.911    16560.110     5596.222        1.841        1.403       92.281       89.948        0.950      345.349       22.815      860.700
06/28/2014  10:41:00       30.768      -63.051       25.572       48.627       63.262       51.687     2364.553     4002.096     2671.520        0.731        0.452       70.158       48.430        0.477      345.661       23.351      860.681
06/28/2014  10:42:00       14.179     -149.404      -20.646       50.101       51.547       37.249     2510.073     2657.098     1387.504        1.475        0.328      150.076       14.360        0.009      345.323       22.770      860.692
06/28/2014  10:43:00       89.568      -68.760      -22.664       72.200       99.816       65.468     5212.903     9963.236     4286.050        1.636        0.973      112.917       61.178        0.294      345.523       23.113      860.690
06/28/2014  10:44:00        3.612      -24.053       41.641       38.073       63.189       48.269     1449.526     3992.871     2329.897        0.505        0.389       24.323       39.928        2.695      345.818       23.620      860.707
06/28/2014  10:45:00       94.704        3.218       69.634       74.593      123.079       67.443     5564.166    15148.339     4548.544        1.954        1.263       94.758       77.933        0.676      345.185       22.535      860.711
06/28/2014  10:46:00      108.243      -97.884       24.981      102.720      137.718       87.023    10551.320    18966.163     7572.928        2.950        1.855      145.938      101.121        0.480      345.759       23.519      860.689
06/28/2014  10:47:00       49.159       47.825       63.946       75.074       73.940       62.450     5636.135     5467.057     3899.960        1.190        0.750       68.584       69.109        1.015      345.772       23.541      860.706
06/28/2014  10:48:00       35.281      -11.734       33.249       47.594       48.176       46.491     2265.168     2320.896     2161.367        0.462        0.337       37.181       38.384        1.066      345.480       23.042      860.715
06/28/2014  10:49:00       55.825       43.249       43.695       54.167       57.029       36.151     2934.099     3252.339     1306.896        0.719        0.375       70.618        9.123        0.017      345.635       23.307      860.717
06/28/2014  10:50:00       56.364       66.626       24.720       47.899       43.120       40.115     2294.270     1859.338     1609.243        0.699        0.288       87.269       30.197        0.120      345.488       23.055      860.707
06/28/2014  10:51:00       49.257       45.728       19.291       31.151       30.259       30.875      970.385      915.598      953.278        0.386        0.142       67.211       16.544        0.061      345.446       22.982      860.701
06/28/2014  10:52:00       61.684       45.686       37.430       40.049       33.414       32.632     1603.893     1116.505     1064.848        0.554        0.189       76.761       24.092        0.099      345.671       23.367      860.700
06/28/2014  10:53:00        2.362      -42.510        6.934       36.575       57.302       29.734     1337.741     3283.574      884.111        0.368        0.275       42.576       27.743        0.425      345.921       23.798      860.701
06/28/2014  10:54:00      -17.640        4.034       29.070       34.232       50.002       36.569     1171.856     2500.187     1337.305        0.309        0.250       18.095       28.202        2.429      346.243       24.352      860.690
06/28/2014  10:55:00       78.781      -39.412       49.967       91.922      170.282       90.524     8449.666    28995.939     8194.668        2.794        2.282       88.090      109.288        1.539      345.758       23.515      860.676
06/28/2014  10:56:00      122.985     -186.766      -23.891       73.878       88.916       54.485     5458.005     7906.105     2968.598        3.345        0.817      223.622       51.232        0.052      345.438       22.965      860.672
06/28/2014  10:57:00       55.769       83.047       98.173       77.265       80.846       64.965     5969.820     6536.133     4220.507        1.818        0.836      100.035       58.236        0.339      345.698       23.414      860.662
06/28/2014  10:58:00       37.581      -73.261       18.078       73.297      130.177       76.904     5372.458    16946.158     5914.160        1.766        1.412       82.338       84.093        1.043      345.870       23.710      860.658
06/28/2014  10:59:00       70.576       -4.167       54.828       64.436       58.683       68.225     4151.967     3443.731     4654.662        1.013        0.613       70.699       51.531        0.531      345.791       23.575      860.649
06/28/2014  11:00:00      -14.800      -29.817       33.265       53.691       70.746       45.942     2882.748     5004.943     2110.645        0.610        0.500       33.288       49.634        2.223      346.135       24.166      860.628
06/28/2014  11:01:00      -65.714     -118.606       -2.892       49.431       65.740       35.602     2443.404     4321.801     1267.480        1.321        0.402      135.594       17.386        0.016      345.779       23.553      860.633
06/28/2014  11:02:00       78.492     -158.315      -28.465       78.383       98.270       68.483     6143.816     9656.991     4689.897        2.626        1.025      176.705       48.966        0.077      345.640       23.312      860.621
06/28/2014  11:03:00       70.975      -69.688       -1.157       76.990       67.020       55.387     5927.485     4491.745     3067.741        1.169        0.674       99.468       57.449        0.334      345.669       23.365      860.622
06/28/2014  11:04:00       13.151      -36.647       22.057       25.270       51.090       37.400      638.562     2610.139     1398.728        0.332        0.232       38.935       30.689        0.621      345.969       23.881      860.609
06/28/2014  11:05:00       23.287      -94.796        8.783       42.835       84.237       40.947     1834.799     7095.924     1676.643        1.010        0.530       97.614       40.705        0.174      346.147       24.186      860.594
06/28/2014  11:06:00       61.612     -148.719      -20.083       47.363       44.767       37.451     2243.232     2004.056     1402.584        1.598        0.282      160.976       26.639        0.027      345.436       22.964      860.597
06/28/2014  11:07:00       27.969       32.209       44.937       50.319       57.299       42.578     2532.049     3283.119     1812.879        0.573        0.381       42.658       41.716        0.956      346.146       24.185      860.592
06/28/2014  11:08:00       60.953       60.387       39.452       51.698       38.328       41.715     2672.635     1469.036     1740.170        0.740        0.294       85.802       34.004        0.157      345.615       23.273      860.584
06/28/2014  11:09:00      103.822       40.868       36.488       71.282       89.166       60.650     5081.066     7950.533     3678.427        1.524        0.836      111.576       54.317        0.237      345.693       23.405      860.575
06/28/2014  11:10:00      163.567       81.508       69.528      157.833      137.988       86.786    24911.202    19040.649     7531.763        4.485        2.574      182.750       61.834        0.114      345.937       23.822      860.552
06/28/2014  11:11:00       37.546       23.022      101.630       78.249      144.557       66.429     6122.984    20896.686     4412.796        2.185        1.572       44.043       65.649        2.222      346.391       24.603      860.554
06/28/2014  11:12:00       81.792      -78.967        4.320       85.864       63.150       56.758     7372.621     3987.969     3221.474        1.376        0.729      113.691       50.480        0.197      345.628       23.294      860.567
06/28/2014  11:13:00       77.354      -63.309       13.957       62.075       56.730       30.531     3853.261     3218.251      932.163        0.909        0.400       99.959       32.229        0.104      345.884       23.734      860.548
06/28/2014  11:14:00       32.783       63.260       86.966       66.437       66.448       49.645     4413.822     4415.402     2464.577        1.196        0.565       71.250       44.615        0.392      346.276       24.406      860.533
06/28/2014  11:15:00       68.007      -25.972       41.250       72.545       93.918       53.253     5262.736     8820.560     2835.931        1.196        0.846       72.798       58.453        0.645      346.281       24.416      860.520
06/28/2014  11:16:00      117.325      -40.654       39.655      111.451      131.441       77.379    12421.307    17276.687     5987.484        2.633        1.784      124.169       91.273        0.540      345.896       23.753      860.514
06/28/2014  11:17:00      144.355     -197.449      -21.464      104.635      140.910       71.076    10948.453    19855.762     5051.825        4.806        1.793      244.591       80.403        0.108      345.786       23.563      860.508
06/28/2014  11:18:00      141.843     -196.157      -13.713       78.491       88.426       55.677     6160.848     7819.157     3099.912        3.793        0.854      242.068       53.489        0.049      345.634       23.302      860.509
06/28/2014  11:19:00       43.436      -66.355       27.320       47.711       63.995       55.216     2276.336     4095.416     3048.776        0.823        0.471       79.308       42.373        0.285      345.950       23.847      860.512
06/28/2014  11:20:00      -53.160      -17.900      -11.806       25.301       18.615       18.513      640.153      346.505      342.745        0.231        0.066       56.093       15.127        0.073      345.427       22.949      860.493
06/28/2014  11:21:00      -41.159       -7.640        3.514       28.007       35.206       19.576      784.390     1239.452      383.239        0.209        0.120       41.862       15.897        0.144      345.845       23.668      860.479
06/28/2014  11:22:00       13.616     -134.071      -20.943       73.593       59.278       44.851     5415.985     3513.884     2011.596        1.477        0.547      134.761       41.020        0.093      345.868       23.706      860.484
06/28/2014  11:23:00      -58.498     -101.318        7.237       33.411       41.511       41.061     1116.270     1723.201     1686.031        0.913        0.226      116.993       22.244        0.036      345.901       23.762      860.475
06/28/2014  11:24:00      -59.665      -35.808       17.884       69.758       44.799       36.852     4866.154     2006.991     1358.081        0.670        0.412       69.585       37.161        0.285      346.330       24.501      860.461
06/28/2014  11:25:00      -22.997       -0.449       23.004       44.940       41.923       37.330     2019.560     1757.574     1393.500        0.311        0.259       23.002       33.051        2.065      346.575       24.922      860.445
06/28/2014  11:26:00      -43.592       -7.172       13.988       35.700       40.102       25.485     1274.464     1608.188      649.483        0.284        0.177       44.178       28.390        0.413      346.387       24.599      860.441
06/28/2014  11:27:00       20.131      -64.102       34.184       99.494      106.801       58.660     9899.034    11406.445     3440.961        1.521        1.237       67.189       55.510        0.683      346.569       24.909      860.426
06/28/2014  11:28:00       58.317      -10.539       59.104       70.476      116.627       74.437     4966.916    13601.816     5540.921        1.555        1.205       59.262       83.616        1.991      346.340       24.517      860.416
06/28/2014  11:29:00       57.536       44.117       68.236       53.514       54.572       49.242     2863.777     2978.101     2424.818        0.909        0.413       72.503       37.118        0.262      346.014       23.955      860.423
06/28/2014  11:30:00       54.352       -8.497       39.737       63.410       56.576       51.642     4020.888     3200.900     2666.910        0.725        0.494       55.012       32.183        0.342      346.463       24.729      860.425
06/28/2014  11:31:00       60.167      -25.984       53.822       63.722      116.609       73.150     4060.519    13597.625     5350.937        1.510        1.150       65.538       82.048        1.567      346.538       24.859      860.416
06/28/2014  11:32:00       67.767       -4.516       65.757       97.550       72.018       66.381     9516.052     5186.538     4406.441        1.402        0.955       67.918       60.310        0.789      346.674       25.091      860.415
06/28/2014  11:33:00      113.168      -58.146       66.956      104.190      141.115       81.653    10855.529    19913.351     6667.179        2.905        1.872      127.232       85.790        0.455      346.476       24.751      860.400
06/28/2014  11:34:00       53.673       41.478      120.442      115.857      129.819       89.177    13422.756    16853.028     7952.495        2.866        1.911       67.832       94.527        1.942      346.428       24.667      860.397
06/28/2014  11:35:00      104.607      181.275      179.227      112.255       96.832       85.101    12601.213     9376.446     7242.176        5.257        1.461      209.292       84.342        0.162      346.239       24.339      860.387
06/28/2014  11:36:00       89.960      -31.481       45.584       91.416       75.223       61.395     8356.905     5658.512     3769.331        1.447        0.889       95.309       66.691        0.490      346.414       24.645      860.373
06/28/2014  11:37:00      138.989      105.358       80.768       92.282       56.378       56.709     8515.894     3178.434     3215.945        2.592        0.746      174.409       38.174        0.048      346.166       24.215      860.354
06/28/2014  11:38:00       88.105       70.147       57.937       51.584       56.109       48.650     2660.911     3148.264     2366.799        1.211        0.409      112.619       37.646        0.112      346.327       24.496      860.349
06/28/2014  11:39:00      112.656      109.650       43.777       55.063       41.865       50.895     3031.959     1752.652     2590.278        1.700        0.369      157.208       38.246        0.059      345.812       23.610      860.356
06/28/2014  11:40:00       64.081       63.277       41.873       52.703       27.084       31.764     2777.560      733.534     1008.940        0.719        0.226       90.057       22.053        0.060      346.246       24.356      860.356
06/28/2014  11:41:00       16.498       34.901       41.323       39.944       49.010       34.294     1595.529     2402.016     1176.074        0.418        0.259       38.604       29.816        0.597      346.934       25.539      860.337
06/28/2014  11:42:00       23.741       10.376       66.180       71.415       71.645       53.162     5100.031     5132.948     2826.185        0.905        0.653       25.909       47.502        3.361      347.114       25.849      860.309
06/28/2014  11:43:00       39.012     -161.611      -27.669       84.679      100.046       59.638     7170.536    10009.296     3556.745        2.457        1.037      166.253       50.965        0.094      346.524       24.831      860.281
06/28/2014  11:44:00        1.152      -46.880       30.210       50.470       93.919       52.768     2547.223     8820.729     2784.421        0.863        0.708       46.895       52.445        1.251      346.832       25.363      860.277
06/28/2014  11:45:00      -17.480      -57.628       16.203      100.513       60.154       46.089    10102.833     3618.466     2124.175        0.986        0.792       60.221       41.044        0.465      346.654       25.057      860.269
06/28/2014  11:46:00       68.054     -202.888      -27.112       60.110       99.620       46.998     3613.180     9924.153     2208.781        3.114        0.787      213.997       36.645        0.029      346.255       24.369      860.252
06/28/2014  11:47:00       39.262     -119.352       -0.792      102.261       53.417       45.883    10457.293     2853.378     2105.232        1.560        0.771      125.644       33.380        0.071      346.486       24.767      860.242
06/28/2014  11:48:00      -56.081        3.031        7.348       64.301       55.909       39.434     4134.576     3125.861     1555.021        0.601        0.441       56.163       29.103        0.269      346.789       25.289      860.223
06/28/2014  11:49:00       18.104      -19.611       41.790       59.477       95.107       29.633     3537.530     9045.422      878.121        0.796        0.673       26.689       32.267        1.462      347.077       25.787      860.208
06/28/2014  11:50:00       24.367       26.055       81.921       73.012      153.034       79.302     5330.781    23419.372     6288.801        2.151        1.752       35.674       97.206        7.425      346.946       25.558      860.200
06/28/2014  11:51:00       58.954     -101.619       27.666       83.972      129.502       79.679     7051.245    16770.654     6348.696        2.236        1.509      117.482       95.414        0.660      346.805       25.316      860.189
06/28/2014  11:52:00       39.515      -67.729       44.118       86.161      131.404       76.013     7423.740    17266.924     5777.936        1.928        1.523       78.413       83.194        1.126      346.856       25.404      860.182
06/28/2014  11:53:00       72.609      150.907      165.883       90.047       79.159       55.136     8108.447     6266.221     3039.928        3.649        0.871      167.466       55.021        0.108      346.488       24.767      860.180
06/28/2014  11:54:00      163.309       72.472       43.174       84.692       88.440       56.881     7172.818     7821.634     3235.470        2.600        0.911      178.668       38.835        0.047      346.523       24.830      860.163
06/28/2014  11:55:00       57.606       22.080       19.453       54.015       42.478       31.793     2917.638     1804.349     1010.801        0.496        0.287       61.693       22.646        0.135      346.816       25.336      860.166
06/28/2014  11:56:00       24.541       24.489       45.149       54.803       81.858       53.380     3003.402     6700.720     2849.456        0.789        0.628       34.669       58.465        2.844      347.131       25.878      860.146
06/28/2014  11:57:00       61.145     -110.000       27.418       85.746      108.348       58.890     7352.386    11739.357     3468.068        1.957        1.128      125.852       73.297        0.339      347.289       26.148      860.127
06/28/2014  11:58:00      132.466     -207.738       -0.290       98.207      143.549       78.918     9644.545    20606.452     6228.078        4.858        1.824      246.378       87.509        0.126      346.805       25.315      860.098
06/28/2014  11:59:00      101.017      -38.243       43.024       87.503       97.319       75.726     7656.811     9470.896     5734.409        1.819        1.143      108.014       68.211        0.399      346.972       25.604      860.101
06/28/2014  12:00:00       32.637       46.779       45.560       34.461       46.768       38.885     1187.544     2187.284     1512.082        0.511        0.244       57.039       23.555        0.171      346.972       25.605      860.089
06/28/2014  12:01:00      -35.306       -2.456       38.827       33.549       56.850       46.428     1125.558     3231.917     2155.565        0.464        0.326       35.392       41.465        1.373      347.009       25.669      860.047
06/28/2014  12:02:00       37.306      -73.032       10.400       36.537       46.656       37.629     1334.931     2176.774     1415.957        0.588        0.246       82.009       37.849        0.213      346.745       25.215      860.018
06/28/2014  12:03:00       35.943       26.128       60.144       32.526       53.983       25.910     1057.939     2914.144      671.335        0.512        0.232       44.436       30.289        0.465      346.954       25.573      859.993
06/28/2014  12:04:00       12.523       56.258       47.727       36.917       34.926       38.924     1362.848     1219.823     1515.102        0.485        0.205       57.635       27.970        0.236      347.084       25.795      859.985
06/28/2014  12:05:00       24.005       -3.338        5.399       38.131       70.640       23.971     1453.977     4990.030      574.631        0.382        0.351       24.236       25.330        1.092      347.211       26.015      859.992
06/28/2014  12:06:00       43.283       14.816       74.921       74.973      121.438       74.903     5620.964    14747.141     5610.421        1.684        1.299       45.748       81.526        3.176      347.178       25.958      859.985
06/28/2014  12:07:00      107.278     -163.580       -8.066      138.578      146.974       76.492    19203.787    21601.354     5851.042        4.249        2.333      195.619       82.383        0.177      346.848       25.389      859.985
06/28/2014  12:08:00       26.772        4.181       72.785       53.451       84.791       42.824     2857.035     7189.493     1833.934        0.895        0.594       27.096       43.596        2.589      347.204       26.004      860.006
06/28/2014  12:09:00       16.994        2.776       42.684       36.909       50.781       39.131     1362.288     2578.682     1531.273        0.379        0.274       17.219       36.136        4.404      347.323       26.208      859.973
06/28/2014  12:10:00       15.669       27.982       61.427       25.007       35.199       21.362      625.336     1238.966      456.326        0.356        0.116       32.071        9.238        0.083      347.239       26.064      859.959
06/28/2014  12:11:00       23.423       15.174       82.561       47.027       79.015       48.023     2211.501     6243.414     2306.196        0.918        0.538       27.909       51.749        3.438      347.389       26.322      859.963
06/28/2014  12:12:00      100.185       32.592       98.983      102.523      148.478       89.431    10511.009    22045.806     7997.986        3.072        2.028      105.353      112.930        1.149      347.139       25.889      859.937
06/28/2014  12:13:00       29.221      -13.929       38.522       37.586       73.006       49.909     1412.700     5329.946     2490.906        0.588        0.462       32.371       49.095        2.300      346.972       25.604      859.906
06/28/2014  12:14:00      117.625       67.382       59.165       76.946       67.770       57.200     5920.641     4592.743     3271.807        1.783        0.689      135.558       20.179        0.022      347.085       25.798      859.874
06/28/2014  12:15:00      -36.407       57.174       61.633       41.948       54.359       43.305     1759.669     2954.941     1875.306        0.749        0.329       67.782       27.934        0.170      347.572       26.639      859.885
06/28/2014  12:16:00      -27.331      -31.038       13.773       85.094       76.736       34.821     7240.925     5888.474     1212.474        0.812        0.717       41.357       28.618        0.479      347.544       26.590      859.880
06/28/2014  12:17:00       55.602      -27.059       61.121       74.842      106.110       68.583     5601.291    11259.347     4703.690        1.456        1.078       61.837       62.959        1.037      347.571       26.637      859.887
06/28/2014  12:18:00       42.258       28.700       42.513       46.515       83.893       45.951     2163.669     7038.018     2111.531        0.786        0.566       51.082       23.397        0.210      347.548       26.598      859.882
06/28/2014  12:19:00       42.758       99.705      129.633       84.891       77.561       82.430     7206.478     6015.747     6794.725        2.429        1.001      108.486       66.936        0.381      347.380       26.305      859.882
06/28/2014  12:20:00       64.280       71.469       80.959       89.184       65.581       55.810     7953.836     4300.850     3114.714        1.558        0.768       96.124       45.554        0.225      347.367       26.284      859.866
06/28/2014  12:21:00      133.179      145.409      138.589      116.861      105.835       88.833    13656.478    11201.074     7891.317        4.541        1.637      197.181       73.766        0.140      347.133       25.881      859.842
06/28/2014  12:22:00      109.391       80.916       74.990       97.361       59.257       57.894     9479.137     3511.349     3351.734        2.024        0.817      136.066       53.238        0.153      347.423       26.381      859.863
06/28/2014  12:23:00       35.355       -3.834       43.521       58.269       83.109       45.826     3395.295     6907.170     2100.034        0.778        0.620       35.563       44.175        1.543      347.712       26.881      859.825
06/28/2014  12:24:00      108.250       61.815       97.113       95.733       94.468       56.981     9164.888     8924.229     3246.812        2.315        1.067      124.656       50.807        0.166      347.329       26.218      859.807
06/28/2014  12:25:00       90.018       72.630       64.111       61.250       73.042       62.527     3751.601     5335.112     3909.565        1.524        0.650      115.665       51.639        0.199      347.075       25.783      859.812
06/28/2014  12:26:00       98.805       81.099       24.327       65.244       46.113       43.388     4256.793     2126.366     1882.554        1.260        0.413      127.826       29.105        0.052      346.873       25.433      859.816
06/28/2014  12:27:00      157.988       74.118       62.967      132.233       88.729       85.469    17485.636     7872.836     7304.896        3.354        1.633      174.510       75.757        0.188      347.296       26.161      859.817
06/28/2014  12:28:00      134.687      133.077      101.818      132.459       99.571      101.588    17545.319     9914.442    10320.156        4.199        1.889      189.341       82.888        0.192      347.012       25.671      859.822
06/28/2014  12:29:00       52.535        1.530       59.442       72.834      105.171       44.174     5304.823    11060.875     1951.357        1.230        0.916       52.558       59.562        1.284      347.231       26.052      859.819
06/28/2014  12:30:00       85.000      -46.775       35.828       60.570       71.146       42.855     3668.780     5061.689     1836.536        1.063        0.528       97.020       41.504        0.183      347.176       25.956      859.805
06/28/2014  12:31:00      166.317      101.494       68.896      103.158      122.000       89.675    10641.662    14883.959     8041.636        3.813        1.678      194.839       81.550        0.175      347.071       25.772      859.787
06/28/2014  12:32:00      123.814       66.181       65.127      107.591       84.875       56.571    11575.889     7203.761     3200.304        2.296        1.099      140.392       36.639        0.068      347.162       25.929      859.773
06/28/2014  12:33:00       32.667       41.334       88.466       60.895       89.059       54.003     3708.183     7931.594     2916.336        1.258        0.728       52.684       46.043        0.764      347.707       26.871      859.765
06/28/2014  12:34:00      121.593     -159.567        3.921      121.663      172.085       92.546    14801.991    29613.307     8564.721        4.661        2.649      200.615      110.597        0.304      347.186       25.969      859.759
06/28/2014  12:35:00       28.545     -126.328       19.594       91.677      107.419       58.689     8404.629    11538.899     3444.386        2.027        1.169      129.513       63.346        0.239      347.622       26.724      859.747
06/28/2014  12:36:00       44.005      -94.297      -17.315       97.409       73.290       52.999     9488.593     5371.463     2808.893        1.440        0.883      104.060       57.479        0.305      347.471       26.463      859.743
06/28/2014  12:37:00      119.433      -98.081      -15.942       74.423       60.375       52.405     5538.787     3645.191     2746.317        1.803        0.597      154.545       52.069        0.114      347.166       25.937      859.745
06/28/2014  12:38:00      101.429      -87.461       20.866       80.330      130.964       77.667     6452.917    17151.569     6032.220        2.400        1.482      133.930       88.377        0.435      347.245       26.074      859.740
06/28/2014  12:39:00       60.854       -9.585       10.910       64.389       53.053       35.636     4145.971     2814.667     1269.911        0.607        0.412       61.605       29.244        0.225      347.264       26.109      859.716
06/28/2014  12:40:00       56.328      -19.443       60.057       94.686      115.632       65.446     8965.383    13370.672     4283.133        1.688        1.331       59.589       73.476        1.520      347.680       26.824      859.700
06/28/2014  12:41:00       56.759     -126.983       25.730       80.081      107.225       69.499     6413.034    11497.143     4830.061        2.137        1.137      139.091       64.979        0.218      347.696       26.850      859.697
06/28/2014  12:42:00       50.069     -121.735       -3.130       61.989       60.259       43.752     3842.680     3631.169     1914.230        1.336        0.469      131.630       34.813        0.070      347.724       26.899      859.699
06/28/2014  12:43:00       14.717      -91.671       -0.808       61.873       61.487       39.927     3828.216     3780.604     1594.201        0.891        0.460       92.845       29.786        0.103      347.864       27.142      859.683
06/28/2014  12:44:00       54.982     -136.225       -3.847       88.568      129.474       59.364     7844.244    16763.527     3524.051        2.486        1.407      146.902       63.898        0.189      347.976       27.336      859.668
06/28/2014  12:45:00       85.671      -98.496       -6.310       76.886      113.464       70.203     5911.447    12874.010     4928.492        2.039        1.186      130.542       76.620        0.344      347.538       26.579      859.680
06/28/2014  12:46:00       34.023       38.041       48.008       35.667       40.990       42.893     1272.121     1680.189     1839.802        0.485        0.240       51.036       34.585        0.459      347.851       27.120      859.676
06/28/2014  12:47:00       82.616       58.279       37.340       57.802       38.959       41.265     3341.015     1517.773     1702.838        0.909        0.328      101.103       20.874        0.043      347.609       26.702      859.663
06/28/2014  12:48:00       26.750       21.980       37.886       47.904       45.131       23.502     2294.821     2036.804      552.323        0.376        0.244       34.622       13.270        0.147      347.887       27.181      859.643
06/28/2014  12:49:00      -30.805     -117.184        1.284       65.246       62.252       39.266     4256.980     3875.372     1541.826        1.218        0.484      121.166       22.154        0.033      347.752       26.948      859.642
06/28/2014  12:50:00        6.244      -51.655       16.712       80.142       72.191       31.267     6422.748     5211.578      977.625        0.780        0.631       52.031       19.692        0.143      347.567       26.629      859.658
06/28/2014  12:51:00       62.614     -155.348       -6.578       54.291       53.973       37.696     2947.463     2913.049     1420.986        1.769        0.364      167.492       26.176        0.024      347.227       26.042      859.664
06/28/2014  12:52:00       59.044       18.023       54.564       64.884       88.186       59.898     4209.921     7776.730     3587.763        1.118        0.779       61.734       62.338        1.020      347.728       26.908      859.634
06/28/2014  12:53:00       71.245       64.903       82.207      108.699      112.265       80.170    11815.385    12603.395     6427.253        2.344        1.542       96.376       81.889        0.722      347.830       27.083      859.609
06/28/2014  12:54:00      104.902      -94.300       33.034       95.698       92.520       66.597     9158.105     8560.026     4435.107        2.157        1.108      141.057       59.138        0.176      347.476       26.472      859.624
06/28/2014  12:55:00       32.599       -7.498       37.206       39.659       57.971       35.824     1572.821     3360.690     1283.391        0.436        0.311       33.450       19.496        0.340      347.859       27.135      859.638
06/28/2014  12:56:00       -7.093       31.537       20.105       33.118       41.382       33.658     1096.827     1712.473     1132.840        0.269        0.197       32.325       26.602        0.677      348.312       27.916      859.610
06/28/2014  12:57:00       -6.996       34.861       -6.728       33.609       53.229       31.074     1129.581     2833.276      965.575        0.312        0.246       35.556       30.645        0.743      347.588       26.667      859.587
06/28/2014  12:58:00       10.161       45.071        9.163       32.943       53.100       32.358     1085.264     2819.585     1047.063        0.358        0.248       46.202       17.482        0.143      347.937       27.269      859.565
06/28/2014  12:59:00       44.536       13.943        8.493       51.065       41.766       28.496     2607.617     1744.361      812.032        0.371        0.258       46.668       23.977        0.264      348.112       27.572      859.556
06/28/2014  13:00:00        7.434       -3.769       20.032       48.426       41.326       26.242     2345.056     1707.802      688.618        0.261        0.237        8.334       15.865        3.624      348.563       28.351      859.554
06/28/2014  13:01:00       22.323       -8.917        8.806       61.604       39.317       26.443     3795.110     1545.790      699.248        0.335        0.302       24.037       21.995        0.837      348.322       27.934      859.551
06/28/2014  13:02:00       38.379       20.648       16.152       34.651       35.942       34.677     1200.723     1291.810     1202.472        0.293        0.185       43.581       20.718        0.226      348.227       27.770      859.553
06/28/2014  13:03:00       -8.492       15.382        3.446       97.518       60.259       34.609     9509.723     3631.194     1197.773        0.733        0.717       17.571       40.974        5.438      348.175       27.680      859.509
06/28/2014  13:04:00      -16.217      -92.500       12.623       54.108       53.182       31.950     2927.640     2828.315     1020.802        0.788        0.339       93.911       25.881        0.076      348.093       27.537      859.502
06/28/2014  13:05:00      -53.042      -70.047       26.787       67.288       72.432       37.941     4527.725     5246.374     1439.523        0.982        0.561       87.864       26.342        0.090      347.926       27.251      859.478
06/28/2014  13:06:00      -48.156       -6.825       -1.796       67.534       48.042       33.173     4560.785     2308.019     1100.427        0.517        0.398       48.637       24.648        0.257      348.004       27.386      859.464
06/28/2014  13:07:00       26.223      -55.660       44.987      105.696      126.854       77.415    11171.583    16091.876     5993.151        1.953        1.663       61.528       83.650        1.848      348.015       27.404      859.443
06/28/2014  13:08:00       83.590     -160.259      -10.202       70.652       99.125       62.705     4991.649     9825.802     3931.937        2.576        0.937      180.749       69.844        0.149      347.916       27.229      859.428
06/28/2014  13:09:00       45.634       10.163       47.219       73.006       83.006       64.876     5329.910     6889.936     4208.903        1.042        0.821       46.752       61.685        1.741      348.148       27.632      859.425
06/28/2014  13:10:00       58.264        7.959       10.224       36.500       48.961       32.300     1332.261     2397.155     1043.272        0.417        0.239       58.805       12.198        0.043      347.849       27.117      859.409
06/28/2014  13:11:00      105.860       63.837       18.482       44.257       45.240       36.923     1958.689     2046.669     1363.281        1.049        0.268      123.619       27.365        0.049      347.993       27.366      859.398
06/28/2014  13:12:00      163.980      104.296       99.398      102.230       84.623       79.608    10450.955     7161.127     6337.374        3.579        1.197      194.338       59.999        0.095      348.047       27.456      859.371
06/28/2014  13:13:00      133.066       63.192       63.852       78.680       58.444       58.929     6190.508     3415.691     3472.620        1.943        0.654      147.309       47.738        0.105      347.854       27.123      859.365
06/28/2014  13:14:00      140.876       87.020       26.450       89.158       62.658       51.572     7949.188     3925.993     2659.708        2.132        0.727      165.585       34.597        0.044      347.822       27.067      859.355
06/28/2014  13:15:00      106.870       75.091       27.270       81.306       47.940       51.344     6610.643     2298.254     2636.175        1.467        0.577      130.613       36.330        0.077      347.941       27.273      859.357
06/28/2014  13:16:00       55.440       31.794       55.607       47.642       52.539       54.153     2269.756     2760.329     2932.526        0.757        0.398       63.910       20.165        0.100      347.952       27.294      859.340
06/28/2014  13:17:00       18.477        8.886       36.669       29.523       22.279       17.835      871.623      496.370      318.099        0.173        0.084       20.503       15.753        0.590      348.194       27.711      859.328
06/28/2014  13:18:00       77.291      -31.502       20.397       58.436       84.962       33.902     3414.718     7218.557     1149.316        0.958        0.589       83.464       37.993        0.207      347.966       27.317      859.288
06/28/2014  13:19:00      135.364      110.803       34.605       66.201       43.710       60.783     4382.611     1910.545     3694.579        2.089        0.499      174.930       37.493        0.046      347.833       27.087      859.275
06/28/2014  13:20:00      146.327       86.975       22.015       75.468       65.570       46.788     5695.400     4299.448     2189.115        2.082        0.609      170.224       22.585        0.018      348.078       27.511      859.256
06/28/2014  13:21:00       78.639      -17.754       31.638       42.793       93.239       62.386     1831.218     8693.539     3891.993        1.096        0.721       80.618       67.369        0.698      347.988       27.358      859.251
06/28/2014  13:22:00       25.746      -64.709        5.619       47.307       46.458       36.683     2237.982     2158.338     1345.617        0.531        0.287       69.642       29.755        0.183      347.727       26.905      859.213
06/28/2014  13:23:00       -0.732      -33.239       28.498       33.623       39.563       31.339     1130.517     1565.251      982.147        0.280        0.184       33.247       27.539        0.686      348.428       28.117      859.191
06/28/2014  13:24:00       13.323       17.470       33.308       27.033       33.363       28.705      730.767     1113.096      823.958        0.213        0.133       21.971       27.390        1.554      348.488       28.222      859.192
06/28/2014  13:25:00      -14.993        9.340       36.449       14.813       23.979       26.414      219.411      574.982      697.680        0.157        0.075       17.664       20.763        1.382      349.288       29.607      859.190
06/28/2014  13:26:00      -13.813       29.854       65.227       24.562       61.875       42.485      603.274     3828.512     1804.934        0.579        0.312       32.894       43.546        1.752      348.718       28.619      859.182
06/28/2014  13:27:00       37.789       54.015       43.073       51.817       41.978       50.772     2685.023     1762.124     2577.815        0.661        0.351       65.922       38.921        0.349      348.308       27.910      859.184
06/28/2014  13:28:00       23.948      -44.807       34.263       38.253       54.676       35.420     1463.289     2989.510     1254.571        0.473        0.285       50.805       33.884        0.445      348.677       28.548      859.193
06/28/2014  13:29:00       36.942      -78.777       -6.009       41.560       36.311       34.495     1727.212     1318.498     1189.900        0.592        0.212       87.008       28.682        0.109      347.958       27.305      859.202
06/28/2014  13:30:00       18.066       15.172       48.313       33.632       38.411       27.129     1131.104     1475.420      735.969        0.312        0.167       23.592       29.148        1.527      348.500       28.243      859.212
06/28/2014  13:31:00      -21.186      -34.003       15.706       35.556       35.225       26.567     1264.210     1240.794      705.811        0.253        0.161       40.064       25.601        0.408      348.754       28.682      859.195
06/28/2014  13:32:00      -89.630      -57.854        8.865       79.739       72.667       35.312     6358.271     5280.466     1246.932        1.217        0.644      106.680       45.802        0.184      348.377       28.029      859.173
06/28/2014  13:33:00     -103.022     -137.660        0.910       66.014       40.854       30.714     4357.808     1669.055      943.340        1.827        0.349      171.941       30.405        0.031      347.945       27.281      859.161
06/28/2014  13:34:00      -44.265      -64.433       24.658       71.641       79.307       33.186     5132.417     6289.671     1101.313        0.962        0.626       78.173       42.239        0.292      348.603       28.420      859.161
06/28/2014  13:35:00       21.111      -46.795       24.684       54.367       50.472       41.951     2955.755     2547.440     1759.877        0.525        0.363       51.337       38.858        0.573      348.783       28.733      859.149
06/28/2014  13:36:00      -17.701       58.497       19.754       45.656       60.769       35.571     2084.472     3692.898     1265.280        0.558        0.352       61.117       34.022        0.310      349.013       29.130      859.140
06/28/2014  13:37:00     -139.797      136.451      -23.742       68.515       63.595       43.708     4694.371     4044.301     1910.430        2.469        0.532      195.351       36.295        0.035      348.593       28.399      859.120
06/28/2014  13:38:00     -128.400      134.672       -2.732       69.040       72.737       55.998     4766.501     5290.696     3135.783        2.391        0.660      186.073       53.277        0.082      348.644       28.488      859.119
06/28/2014  13:39:00      -47.962      144.253       -4.383       40.760       62.338       41.968     1661.401     3886.079     1761.343        1.522        0.365      152.017       30.172        0.039      348.914       28.957      859.098
06/28/2014  13:40:00      -62.297      103.958        2.207       55.485       82.905       50.194     3078.632     6873.165     2519.429        1.358        0.624      121.195       46.308        0.146      348.757       28.685      859.083
06/28/2014  13:41:00       29.029       18.307        1.762       96.080       75.353       43.819     9231.426     5678.072     1920.086        0.900        0.841       34.320       53.454        2.426      348.194       27.711      859.053
06/28/2014  13:42:00       67.832       68.472       44.829       80.644       53.920       46.477     6503.427     2907.402     2160.147        1.143        0.579       96.382       34.312        0.127      348.804       28.767      859.024
06/28/2014  13:43:00       76.215      153.946        0.329      100.605       78.241       74.792    10121.412     6121.664     5593.882        2.567        1.092      171.779       73.789        0.185      348.229       27.770      859.007
06/28/2014  13:44:00       15.403      249.685      -29.749       62.970      114.231       56.009     3965.262    13048.792     3137.002        4.180        1.008      250.160       50.931        0.041      348.488       28.218      858.992
06/28/2014  13:45:00       23.271      260.972      -37.213       48.677      119.979       38.747     2369.443    14394.944     1501.338        4.415        0.913      262.007       48.464        0.034      348.240       27.789      858.998
06/28/2014  13:46:00       17.131      148.333       -5.585       86.929       93.195       51.534     7556.600     8685.248     2655.783        2.061        0.945      149.319       45.891        0.094      348.677       28.545      858.994
06/28/2014  13:47:00      147.917      125.276       10.669       83.120       61.607       46.933     6908.881     3795.453     2202.744        2.530        0.645      193.839       34.287        0.031      348.359       27.994      859.001
06/28/2014  13:48:00       34.374       83.146        0.471       53.918       62.545       32.669     2907.133     3911.888     1067.293        0.799        0.394       89.971       35.574        0.156      348.711       28.607      859.006
06/28/2014  13:49:00       21.411       81.155       -5.015       65.064       78.104       50.422     4233.367     6100.214     2542.331        0.997        0.644       83.932       48.075        0.328      348.856       28.856      859.005
06/28/2014  13:50:00       34.393      147.652      -15.190       57.691       82.359       50.024     3328.273     6783.005     2502.427        1.791        0.631      151.605       52.586        0.120      348.604       28.420      859.017
06/28/2014  13:51:00      -91.337       44.298       -5.758       66.527       59.418       34.996     4425.884     3530.471     1224.717        0.976        0.459      101.512       34.981        0.119      348.846       28.840      859.019
06/28/2014  13:52:00      -33.009       58.946       10.876      114.210       79.098       54.196    13043.911     6256.524     2937.180        1.346        1.112       67.559       40.042        0.351      349.004       29.112      859.004
06/28/2014  13:53:00     -327.021      -58.146       -3.408      124.422      150.192       63.746    15480.868    22557.533     4063.604        7.621        2.105      332.150       52.438        0.025      348.674       28.540      858.972
06/28/2014  13:54:00     -269.179      -81.043      -11.935      124.304       99.428       46.721    15451.445     9885.998     2182.837        5.334        1.376      281.114       53.332        0.036      348.387       28.042      858.963
06/28/2014  13:55:00     -186.146      -98.019        6.987      118.818       71.211       42.706    14117.660     5071.032     1823.774        3.266        1.051      210.376       46.738        0.049      348.323       27.933      858.972
06/28/2014  13:56:00     -102.140      -44.145       11.187       85.348       73.776       38.123     7284.312     5442.856     1453.355        1.334        0.709      111.271       54.223        0.237      348.731       28.641      858.999
06/28/2014  13:57:00      -12.518       42.074        8.468       84.468       82.652       60.788     7134.914     6831.355     3695.239        0.983        0.883       43.897       68.142        2.410      348.703       28.593      858.995
06/28/2014  13:58:00     -111.791        3.728       -3.894      100.440       75.569       49.788    10088.200     5710.677     2478.829        1.540        0.914      111.853       54.507        0.237      348.454       28.161      858.989
06/28/2014  13:59:00      -60.373       73.206       12.074      117.920      100.371       53.642    13905.238    10074.325     2877.434        1.800        1.343       94.890       46.235        0.237      348.729       28.636      858.978
06/28/2014  14:00:00      -62.773      128.490        0.604       63.786      107.295       46.239     4068.657    11512.158     2138.079        1.908        0.886      143.005       46.490        0.106      348.470       28.189      858.996
06/28/2014  14:01:00      -34.133       58.691       22.895       39.346       66.032       40.303     1548.079     4360.193     1624.306        0.633        0.377       67.895       36.028        0.282      349.199       29.451      858.983
06/28/2014  14:02:00      -15.653       46.115       27.737       47.028       47.482       35.949     2211.605     2254.558     1292.299        0.445        0.288       48.699       31.263        0.412      349.355       29.721      858.975
06/28/2014  14:03:00      -48.235      118.747       -0.743       35.890       54.676       34.702     1288.118     2989.516     1204.221        1.095        0.274      128.169       30.776        0.058      349.082       29.250      858.959
06/28/2014  14:04:00     -112.938       19.767       29.958      134.875      128.195       67.058    18191.317    16433.904     4496.818        2.658        1.956      114.655       57.751        0.254      349.254       29.546      858.908
06/28/2014  14:05:00     -294.786     -172.013       18.742      190.520      140.406       78.648    36297.953    19713.792     6185.475        8.951        3.110      341.302       82.563        0.059      348.939       28.997      858.828
06/28/2014  14:06:00       29.923      -88.512        8.708       77.269       72.138       59.588     5970.426     5203.925     3550.679        1.176        0.736       93.434       37.369        0.160      349.274       29.580      858.909
06/28/2014  14:07:00       60.831     -251.706      -44.953      144.147      100.703       58.256    20778.377    10140.999     3393.778        5.169        1.716      258.952       44.171        0.029      348.939       28.998      858.908
06/28/2014  14:08:00       98.130        3.743       95.530       94.440      195.961      116.307     8918.927    38400.621    13527.242        3.980        3.042       98.201      140.077        2.035      348.957       29.031      858.888
06/28/2014  14:09:00       82.217      -64.794       34.587       87.862      108.266       72.975     7719.692    11721.572     5325.352        1.846        1.238      104.680       81.548        0.607      349.168       29.397      858.900
06/28/2014  14:10:00       67.613      -56.853       23.930       74.780      107.488       51.129     5592.091    11553.695     2614.161        1.406        0.988       88.339       45.827        0.269      349.071       29.229      858.900
06/28/2014  14:11:00       70.040       64.709       91.523       89.197       90.394       61.532     7956.149     8171.145     3786.233        1.869        0.996       95.356       50.830        0.284      348.871       28.883      858.886
06/28/2014  14:12:00       57.694       36.703       70.081       63.690       57.828       42.359     4056.374     3344.078     1794.316        0.939        0.460       68.379       42.619        0.388      348.879       28.898      858.878
06/28/2014  14:13:00      -26.713       -4.627       24.165       41.376       63.879       35.595     1711.983     4080.547     1266.977        0.419        0.353       27.111       28.424        1.099      349.022       29.145      858.852
06/28/2014  14:14:00       77.458       83.832      107.074      109.242       96.490       77.789    11933.825     9310.254     6051.149        2.589        1.365      114.138       67.332        0.348      348.958       29.033      858.828
06/28/2014  14:15:00      115.679       43.491       29.209      103.271       49.510       57.267    10664.941     2451.192     3279.517        1.626        0.820      123.584       15.652        0.016      348.874       28.887      858.806
06/28/2014  14:16:00       63.671     -147.760       -8.999       73.250       69.483       41.984     5365.596     4827.947     1762.653        1.896        0.598      160.894       42.682        0.070      349.109       29.293      858.823
06/28/2014  14:17:00       92.230     -162.781      -42.410       54.333       57.765       27.995     2952.030     3336.764      783.719        2.194        0.354      187.093       22.125        0.014      348.601       28.414      858.857
06/28/2014  14:18:00      -92.388     -161.146      -15.208      107.835       67.082       44.902    11628.371     4499.979     2016.222        2.644        0.907      185.752       12.386        0.004      348.573       28.365      858.873
06/28/2014  14:19:00      -92.152      -57.484       10.145       55.667       56.597       38.111     3098.764     3203.266     1452.455        0.983        0.388      108.612       24.243        0.050      348.821       28.798      858.856
06/28/2014  14:20:00      -30.251       -2.318       18.988       45.211       33.367       30.774     2044.010     1113.358      947.041        0.269        0.205       30.340       24.262        0.639      349.067       29.223      858.807
06/28/2014  14:21:00       45.388       52.872       37.413       58.320       54.641       38.855     3401.263     2985.673     1509.749        0.707        0.395       69.682       31.358        0.203      349.402       29.804      858.738
06/28/2014  14:22:00     -120.480       99.890      -16.765      152.710       63.038       38.817    23320.494     3973.813     1506.776        2.678        1.440      156.504       46.066        0.087      349.242       29.523      858.756
06/28/2014  14:23:00     -147.531      -46.276       44.090      173.200      188.826       68.285    29998.074    35655.356     4662.836        4.807        3.516      154.618       71.350        0.213      349.269       29.571      858.760
06/28/2014  14:24:00     -175.788      -86.550        4.264      139.000       87.205       51.944    19321.100     7604.641     2698.162        3.401        1.481      195.940       56.890        0.084      348.945       29.010      858.792
06/28/2014  14:25:00     -105.092      141.198      -28.154      110.878      120.944       62.632    12293.910    14627.419     3922.707        3.130        1.542      176.015       56.621        0.103      348.880       28.896      858.808
06/28/2014  14:26:00       98.877      153.045      -33.764       88.236      110.514       55.105     7785.542    12213.329     3036.533        2.868        1.152      182.207       21.310        0.014      348.846       28.838      858.786
06/28/2014  14:27:00      -50.506      -61.857       -0.435       93.671       87.708       42.789     8774.334     7692.764     1830.875        1.233        0.915       79.857       38.109        0.228      349.150       29.365      858.852
06/28/2014  14:28:00     -114.697      -74.212       15.771      103.770       69.275       49.022    10768.224     4799.007     2403.112        1.844        0.899      136.612       56.066        0.168      349.131       29.333      858.878
06/28/2014  14:29:00     -186.782      -32.444      -18.633       91.355       86.737       47.412     8345.751     7523.340     2247.902        2.720        0.906      189.579       34.261        0.033      349.086       29.253      858.870
06/28/2014  14:30:00     -293.914      -30.395      -17.935      107.153      105.231       54.410    11481.761    11073.516     2960.409        5.657        1.276      295.481       54.748        0.034      349.184       29.422      858.902
06/28/2014  14:31:00     -272.523     -106.322       -7.092      126.553       95.105       50.462    16015.648     9044.972     2546.364        5.661        1.380      292.529       61.501        0.044      349.091       29.261      858.898
06/28/2014  14:32:00     -379.118     -105.279       -9.254      188.866      171.717       81.514    35670.300    29486.776     6644.567       11.334        3.590      393.464       95.039        0.058      349.025       29.148      858.887
06/28/2014  14:33:00     -199.630     -119.120       -8.066      109.750      106.498       50.626    12044.987    11341.859     2563.011        4.002        1.297      232.468       51.940        0.050      348.850       28.844      858.866
06/28/2014  14:34:00     -103.050      -35.684       -6.023       64.954       79.765       42.445     4219.040     6362.428     1801.546        1.215        0.619      109.054       28.039        0.066      348.505       28.250      858.820
06/28/2014  14:35:00     -164.117      -41.744       -6.813       64.513       82.319       31.797     4161.973     6776.426     1011.057        2.033        0.597      169.343       30.014        0.031      348.778       28.722      858.812
06/28/2014  14:36:00     -152.236     -147.569        5.884      110.762      100.406       45.654    12268.198    10081.335     2084.261        3.471        1.222      212.020       45.207        0.045      348.988       29.083      858.810
06/28/2014  14:37:00     -200.076     -129.159        0.446      144.075       73.312       54.784    20757.623     5374.632     3001.336        4.292        1.457      238.144       65.776        0.076      349.165       29.389      858.809
06/28/2014  14:38:00      -41.954      -69.830        7.360       57.656       83.245       39.957     3324.195     6929.747     1596.562        0.927        0.593       81.464       30.689        0.142      349.412       29.821      858.818
06/28/2014  14:39:00     -186.285      -36.609      -17.617      116.613       91.315       46.743    13598.543     8338.434     2184.951        3.023        1.206      189.848       54.126        0.081      349.438       29.863      858.795
06/28/2014  14:40:00     -212.785     -171.955       -4.014      139.776      161.534       64.867    19537.446    26093.106     4207.759        6.234        2.492      273.580       70.344        0.066      349.046       29.185      858.803
06/28/2014  14:41:00     -256.168     -254.058        1.770      149.044      228.968       86.937    22214.217    52426.445     7558.103       10.617        4.110      360.787       87.051        0.058      349.127       29.324      858.759
06/28/2014  14:42:00     -160.892     -123.055       14.214      152.909      150.609       70.605    23381.059    22683.035     4985.020        4.613        2.552      202.556       76.981        0.144      349.444       29.872      858.737
06/28/2014  14:43:00     -211.581     -181.870       20.913      233.247      133.894       83.269    54404.304    17927.558     6933.747        7.876        3.963      279.004      111.770        0.160      349.401       29.799      858.733
06/28/2014  14:44:00     -297.779     -158.084      -19.719      143.220      144.628       64.924    20511.997    20917.159     4215.069        7.984        2.282      337.140       72.469        0.046      349.125       29.320      858.732
06/28/2014  14:45:00     -250.467       -5.494        3.893      158.006       91.406       61.703    24965.778     8355.005     3807.236        4.995        1.856      250.527       54.827        0.048      349.219       29.485      858.690
06/28/2014  14:46:00     -181.682     -140.404        2.635      128.884      130.485       54.418    16611.127    17026.423     2961.322        4.466        1.830      229.612       56.000        0.059      349.277       29.585      858.708
06/28/2014  14:47:00     -180.337     -181.518        0.240      130.730      105.047       63.540    17090.420    11034.776     4037.357        4.881        1.608      255.872       56.741        0.049      349.063       29.212      858.687
06/28/2014  14:48:00     -124.273     -158.662       10.824      145.572      104.698       65.699    21191.343    10961.570     4316.297        3.860        1.823      201.538       61.245        0.092      349.354       29.718      858.664
06/28/2014  14:49:00      -94.939     -181.047      -21.846       75.470       87.947       43.430     5695.667     7734.630     1886.149        2.879        0.766      204.429       34.945        0.029      349.253       29.543      858.668
06/28/2014  14:50:00     -120.906     -107.373      -11.606      101.214      115.835       50.067    10244.242    13417.723     2506.711        2.622        1.308      161.701       47.555        0.086      349.350       29.711      858.659
06/28/2014  14:51:00     -207.050     -146.000      -14.586      155.631      102.067       58.681    24220.979    10417.651     3443.412        5.123        1.904      253.349       69.855        0.076      349.284       29.596      858.667
06/28/2014  14:52:00     -112.233      -45.949       19.535      119.538       71.441       45.875    14289.240     5103.758     2104.536        1.829        1.075      121.275       57.486        0.225      349.449       29.885      858.669
06/28/2014  14:53:00      -92.358      -34.367       26.483      147.335      102.187       61.923    21707.588    10442.140     3834.447        2.319        1.799       98.544       80.435        0.666      349.554       30.067      858.622
06/28/2014  14:54:00     -419.896     -208.961      -18.509      233.972      220.383       92.646    54742.980    48568.809     8583.220       16.609        5.595      469.018       88.180        0.035      349.162       29.385      858.621
06/28/2014  14:55:00     -338.213     -267.512        3.088      199.547      138.877       83.426    39818.991    19286.762     6959.946       12.600        3.303      431.220       89.253        0.043      348.955       29.026      858.646
06/28/2014  14:56:00     -253.362      -73.156        7.388      159.060      135.027       83.466    25300.004    18232.242     6966.606        6.004        2.525      263.712       77.943        0.087      349.291       29.610      858.634
06/28/2014  14:57:00     -368.888     -182.921      -16.193      249.371      173.720       82.444    62185.747    30178.540     6797.068       13.446        4.958      411.751      112.497        0.075      349.238       29.516      858.635
06/28/2014  14:58:00     -179.243     -156.185        5.050      143.048      160.603       62.180    20462.808    25793.269     3866.297        5.333        2.506      237.743       60.504        0.065      349.366       29.738      858.668
06/28/2014  14:59:00     -168.459      -45.836        2.414      153.558      132.000       75.408    23579.947    17424.076     5686.312        3.858        2.335      174.583       85.441        0.240      349.565       30.082      858.640
06/28/2014  15:00:00     -113.805     -115.562       23.911      130.984      132.825       57.510    17156.703    17642.508     3307.386        3.249        1.905      162.192       63.286        0.152      349.715       30.344      858.661
06/28/2014  15:01:00     -151.667     -219.414       10.881      160.384      141.643       68.103    25723.172    20062.718     4637.986        6.084        2.521      266.731       63.502        0.057      349.339       29.691      858.662
06/28/2014  15:02:00     -234.802     -258.511      -20.879      186.842      150.905       73.791    34910.069    22772.249     5445.077        9.275        3.156      349.228       57.423        0.027      349.207       29.464      858.664
06/28/2014  15:03:00     -103.123     -107.778       -1.176      115.058      122.022       68.006    13238.266    14889.473     4624.793        2.750        1.638      149.166       58.963        0.156      349.240       29.521      858.612
06/28/2014  15:04:00      -68.810      -84.833       17.037      107.171      114.347       73.189    11485.581    13075.279     5356.580        2.106        1.496      109.231       67.256        0.379      349.410       29.817      858.616
06/28/2014  15:05:00     -164.484     -113.065       20.399      160.005       97.189       64.871    25601.469     9445.732     4208.241        3.975        1.963      199.597       74.107        0.138      349.391       29.782      858.624
06/28/2014  15:06:00     -188.590       -0.591       12.891      106.628      116.295       73.319    11369.610    13524.599     5375.661        3.300        1.513      188.591       75.280        0.159      349.392       29.783      858.591
06/28/2014  15:07:00     -114.237       -0.105        0.480       57.126       57.448       34.751     3263.343     3300.239     1207.606        1.041        0.389      114.237       23.721        0.043      349.663       30.255      858.573
06/28/2014  15:08:00     -409.481     -208.056      -12.486      160.287      164.426       87.813    25691.937    27036.073     7711.193       13.577        3.022      459.306       59.347        0.017      349.402       29.799      858.559
06/28/2014  15:09:00     -379.295     -279.286      -15.421      254.513      212.319      110.896    64776.762    45079.455    12297.953       17.211        6.108      471.026      143.667        0.093      349.388       29.776      858.539
06/28/2014  15:10:00     -442.188     -332.691       -1.760      243.488      201.839      101.007    59286.451    40738.931    10202.479       20.820        5.511      553.366      104.526        0.036      349.219       29.482      858.585
06/28/2014  15:11:00     -454.076     -311.510      -10.730      188.264      173.236       91.377    35443.305    30010.718     8349.750       18.856        3.690      550.657       95.348        0.030      348.870       28.878      858.598
06/28/2014  15:12:00     -412.698     -153.745      -20.385      189.777      159.688       86.762    36015.258    25500.287     7527.667       13.170        3.452      440.406      105.118        0.057      349.160       29.380      858.577
06/28/2014  15:13:00     -364.441     -241.364       -1.821      156.971      187.051       91.926    24639.802    34987.894     8450.421       12.957        3.404      437.119       82.367        0.036      349.211       29.471      858.581
06/28/2014  15:14:00     -291.337     -182.611       -4.933      153.219      161.931       71.006    23476.056    26221.620     5041.828        8.648        2.737      343.837       89.915        0.068      349.143       29.352      858.583
06/28/2014  15:15:00     -322.139     -157.418      -15.847      146.987      132.384       70.764    21605.154    17525.429     5007.537        8.646        2.207      358.544       63.769        0.032      349.090       29.257      858.557
06/28/2014  15:16:00     -178.452     -278.789        4.488      167.308      110.451       73.728    27992.005    12199.412     5435.763        7.760        2.281      331.011       70.407        0.045      349.166       29.389      858.532
06/28/2014  15:17:00     -175.732     -158.509      -13.621      119.241      119.613       61.181    14218.418    14307.325     3743.112        4.423        1.613      236.657       45.574        0.037      349.483       29.941      858.539
06/28/2014  15:18:00     -358.651     -255.546       -0.459      224.875      147.376       87.971    50568.574    21719.644     7738.914       13.697        4.001      440.380       86.164        0.038      349.251       29.537      858.549
06/28/2014  15:19:00     -319.924     -234.905        5.750      179.577      134.343       81.656    32247.848    18048.156     6667.651       10.725        2.848      396.903       83.549        0.044      349.162       29.384      858.544
06/28/2014  15:20:00     -225.609      -60.410        7.310      140.236      114.500       61.467    19666.276    13110.312     3778.242        4.557        1.828      233.557       71.372        0.093      349.481       29.938      858.554
06/28/2014  15:21:00     -307.047     -130.254      -10.038      180.569      166.888       80.032    32605.329    27851.731     6405.153        8.909        3.343      333.533       94.315        0.080      349.498       29.966      858.571
06/28/2014  15:22:00     -291.921      -87.274       -8.056      145.579      113.048       58.765    21193.187    12779.796     3453.286        6.516        1.871      304.688       56.857        0.035      349.627       30.189      858.591
06/28/2014  15:23:00     -506.255     -126.562      -13.842      175.848      143.445       88.138    30922.479    20576.448     7768.328       16.588        2.963      521.835      100.421        0.037      349.105       29.285      858.537
06/28/2014  15:24:00     -171.715     -114.486       27.418      201.054      142.594       83.794    40422.888    20332.996     7021.412        5.555        3.389      206.381      101.226        0.241      349.409       29.812      858.563
06/28/2014  15:25:00     -435.273     -166.622      -17.724      208.110      120.320       77.576    43309.903    14476.800     6018.044       14.066        3.190      466.074       81.828        0.031      348.918       28.961      858.545
06/28/2014  15:26:00     -264.209     -162.342        9.312      210.095      153.551       83.183    44140.103    23578.000     6919.360        8.543        3.732      310.099       99.848        0.104      349.154       29.370      858.529
06/28/2014  15:27:00     -150.866      -53.994       -9.609       92.906       85.173       56.464     8631.516     7254.439     3188.217        2.242        0.954      160.237       54.691        0.116      349.502       29.975      858.502
06/28/2014  15:28:00     -279.908     -221.373       15.668      190.401      160.153       79.284    36252.661    25649.110     6285.967        9.788        3.409      356.868       92.987        0.068      349.674       30.271      858.514
06/28/2014  15:29:00     -374.404     -231.236       -3.211      265.838      149.684       77.814    70669.686    22405.176     6055.065       14.638        4.956      440.055       89.777        0.042      349.448       29.879      858.537
06/28/2014  15:30:00     -572.936     -190.708      -29.900      186.623      204.393      102.743    34828.135    41776.337    10556.173       22.633        4.358      603.842       99.079        0.027      349.175       29.407      858.535
06/28/2014  15:31:00     -352.802     -126.835        8.517      231.052      163.147       82.925    53385.081    26616.917     6876.543       11.374        4.344      374.909       92.279        0.061      348.923       28.970      858.542
06/28/2014  15:32:00     -304.808     -180.809      -21.997      189.701      135.508       71.945    35986.510    18362.478     5176.049        9.279        2.976      354.401       90.285        0.065      349.105       29.284      858.561
06/28/2014  15:33:00     -261.134     -179.409       18.784      185.809      158.767       88.053    34524.917    25206.832     7753.322        8.410        3.374      316.825       97.249        0.094      349.299       29.621      858.547
06/28/2014  15:34:00     -480.163     -244.536      -19.537      249.994      138.814       89.106    62496.972    19269.232     7939.965       19.021        4.485      538.845       93.551        0.030      349.327       29.672      858.548
06/28/2014  15:35:00     -298.914     -177.842        4.170      190.504      128.290       82.759    36291.701    16458.288     6849.116        9.029        2.980      347.818       92.422        0.071      349.286       29.598      858.572
06/28/2014  15:36:00     -203.528     -193.313       12.963      181.715      157.481       86.100    33020.257    24800.267     7413.194        7.209        3.262      280.702       97.438        0.120      349.113       29.300      858.540
06/28/2014  15:37:00     -364.437     -206.789       -5.393      170.863      114.913       68.715    29194.273    13205.021     4721.802       11.136        2.356      419.018       75.509        0.032      348.935       28.991      858.552
06/28/2014  15:38:00     -397.216     -161.254      -17.790      209.674      132.637       83.487    43963.079    17592.629     6970.016       12.630        3.426      428.700       95.577        0.050      349.248       29.532      858.536
06/28/2014  15:39:00     -364.258     -211.255      -21.610      213.975      177.377       95.638    45785.429    31462.483     9146.609       13.207        4.320      421.085      105.055        0.062      348.961       29.037      858.576
06/28/2014  15:40:00     -227.951     -321.836       -3.219      159.202      151.149       72.818    25345.403    22846.055     5302.505       10.451        2.675      394.385       71.599        0.033      348.857       28.856      858.601
06/28/2014  15:41:00     -219.811     -228.627       -7.350      181.297      127.853       61.595    32868.778    16346.382     3793.921        7.682        2.650      317.155       74.031        0.054      348.905       28.939      858.567
06/28/2014  15:42:00     -101.311      -90.037       20.610      117.822      100.549       66.605    13882.020    10110.084     4436.163        2.361        1.421      135.538       65.020        0.230      349.353       29.716      858.537
06/28/2014  15:43:00     -169.129     -166.933      -11.251      124.189      100.137       55.108    15422.953    10027.444     3036.912        4.254        1.424      237.637       53.997        0.052      349.252       29.540      858.548
06/28/2014  15:44:00     -304.195     -178.796        8.853      181.911      114.649       73.939    33091.554    13144.323     5467.006        8.813        2.585      352.849       82.734        0.055      349.225       29.496      858.554
06/28/2014  15:45:00     -253.035     -217.609        2.083      188.038      130.190       67.240    35358.409    16949.392     4521.253        8.410        2.841      333.738       77.782        0.054      349.067       29.219      858.547
06/28/2014  15:46:00     -263.777     -138.769        0.892      111.278      119.912       68.351    12382.857    14378.889     4671.909        6.013        1.572      298.052       62.341        0.044      349.231       29.503      858.528
06/28/2014  15:47:00     -228.345     -159.399       -9.982      134.099      125.098       74.074    17982.621    15649.554     5486.918        5.838        1.956      278.477       74.591        0.072      349.484       29.943      858.531
06/28/2014  15:48:00     -299.707     -291.260      -22.334      191.194      171.027       97.353    36555.103    29250.302     9477.675       12.521        3.764      417.919       97.576        0.055      349.215       29.476      858.490
06/28/2014  15:49:00     -500.365     -397.718      -25.059      230.928      182.213      104.710    53327.964    33201.501    10964.281       25.332        4.875      639.175      112.780        0.031      349.277       29.583      858.444
06/28/2014  15:50:00     -300.417     -221.693        1.117      174.998      183.304       96.970    30624.469    33600.352     9403.165       10.650        3.681      373.360       80.676        0.047      349.296       29.618      858.500
06/28/2014  15:51:00     -312.999     -220.269        5.634      210.967      163.988       81.777    44507.270    26892.051     6687.429       11.229        3.904      382.736       91.037        0.057      349.086       29.252      858.514
06/28/2014  15:52:00     -322.269     -260.432      -12.174      163.961      149.409       84.353    26883.305    22323.147     7115.479       11.407        2.816      414.346       80.685        0.038      349.111       29.294      858.533
06/28/2014  15:53:00     -453.143     -265.469       -7.484      192.334      171.632       85.029    36992.212    29457.596     7229.889       17.476        3.684      525.179       87.512        0.028      349.161       29.383      858.529
06/28/2014  15:54:00     -502.815     -249.738      -31.321      181.819      152.247       88.760    33058.168    23179.088     7878.253       19.013        3.206      561.420       94.654        0.028      349.150       29.364      858.552
06/28/2014  15:55:00     -363.417     -191.557       -9.652      176.324      116.814       80.731    31090.070    13645.519     6517.529       11.005        2.563      410.811       90.652        0.049      349.190       29.433      858.538
06/28/2014  15:56:00     -333.507     -207.444       -4.498      210.882      170.108       93.829    44471.021    28936.630     8803.826       11.823        4.111      392.759      103.040        0.069      349.385       29.770      858.534
06/28/2014  15:57:00     -526.205     -246.005       -7.826      220.399      185.383       91.370    48575.910    34366.782     8348.440       21.437        4.565      580.870      112.693        0.038      348.985       29.078      858.535
06/28/2014  15:58:00     -282.404     -133.610        2.298      143.947      104.482       58.287    20720.600    10916.513     3397.403        6.632        1.752      312.416       60.727        0.038      349.095       29.270      858.519
06/28/2014  15:59:00     -435.042     -156.954      -11.644      203.030      114.080       77.470    41221.361    13014.158     6001.607       13.712        3.012      462.489       94.831        0.042      349.180       29.414      858.500
06/28/2014  16:00:00     -435.536     -234.841      -12.271      214.101      177.923      102.963    45839.047    31656.496    10601.336       16.653        4.405      494.815      117.884        0.057      349.162       29.384      858.530
06/28/2014  16:01:00     -291.080     -331.006       -0.177      220.884      192.874       89.721    48789.818    37200.387     8049.841       14.415        4.702      440.786       96.083        0.048      349.076       29.235      858.534
06/28/2014  16:02:00     -275.121     -391.142      -15.945      144.837      172.407       84.028    20977.690    29724.130     7060.665       14.334        2.888      478.209       85.582        0.032      348.938       28.995      858.536
06/28/2014  16:03:00     -222.081     -168.665      -14.829      156.794      120.316       62.974    24584.251    14476.043     3965.690        6.050        2.151      278.869       57.161        0.042      349.271       29.574      858.550
06/28/2014  16:04:00     -302.729     -162.686      -14.337      199.725      209.223       84.764    39890.144    43774.329     7185.004       10.457        4.542      343.674       91.642        0.071      349.272       29.577      858.529
06/28/2014  16:05:00     -247.305     -219.832       -2.273      174.089      185.176       84.610    30306.897    34290.309     7158.887        9.061        3.588      330.887      106.801        0.104      349.214       29.474      858.531
06/28/2014  16:06:00     -346.758     -180.061       -1.629      191.696      119.614       66.231    36747.167    14307.422     4386.550       10.404        2.772      390.721       82.988        0.045      349.193       29.438      858.536
06/28/2014  16:07:00     -336.911     -244.643       -3.632      137.390      149.945       75.879    18875.943    22483.643     5757.654       11.024        2.356      416.364       62.259        0.022      348.980       29.068      858.533
06/28/2014  16:08:00     -447.055     -268.868        6.236      182.498      149.059       85.200    33305.462    22218.500     7259.017       16.747        3.139      521.678       94.829        0.033      348.938       28.996      858.503
06/28/2014  16:09:00     -303.644     -245.761      -25.893      135.624      146.995       83.483    18393.768    21607.503     6969.475       10.011        2.349      390.638       80.667        0.043      349.045       29.181      858.524
06/28/2014  16:10:00     -292.012     -206.574      -19.568      181.827      163.364       72.119    33061.037    26687.675     5201.088        9.663        3.247      357.692       75.190        0.044      349.094       29.267      858.498
06/28/2014  16:11:00     -201.576     -303.104      -15.323      179.468      151.422       71.132    32208.636    22928.724     5059.724        9.646        3.010      364.013       80.055        0.048      349.389       29.778      858.543
06/28/2014  16:12:00     -107.521     -120.137       20.783      150.838      119.818       68.486    22751.974    14356.305     4690.380        3.411        2.090      161.226       68.972        0.183      349.451       29.886      858.557
06/28/2014  16:13:00     -240.814     -264.750       -0.329      122.108      127.525       85.299    14910.380    16262.638     7275.890        8.326        1.922      357.888       77.217        0.047      348.969       29.050      858.525
06/28/2014  16:14:00     -164.815     -147.607        1.863      107.296      125.399       58.665    11512.471    15724.947     3441.563        3.981        1.534      221.251       49.033        0.049      349.168       29.394      858.512
06/28/2014  16:15:00     -450.107     -191.139      -18.284      163.395      146.228       89.894    26697.984    21382.625     8080.999       14.780        2.808      489.009       92.220        0.036      349.336       29.686      858.500
06/28/2014  16:16:00     -582.677     -351.702      -18.602      255.239      237.075      118.923    65147.083    56204.372    14142.779       29.950        6.775      680.594      132.971        0.038      349.056       29.202      858.476
06/28/2014  16:17:00     -313.277     -149.492       12.849      182.733      142.601       78.140    33391.348    20335.140     6105.895        9.023        2.992      347.117       78.184        0.051      349.306       29.634      858.507
06/28/2014  16:18:00     -211.153     -124.983       13.183      149.519      125.023       71.378    22355.883    15630.840     5094.799        5.172        2.154      245.370       78.026        0.101      349.410       29.814      858.506
06/28/2014  16:19:00     -227.089     -239.768       -0.509      187.885      166.622       78.162    35300.946    27762.808     6109.368        8.910        3.459      330.239       91.693        0.077      349.290       29.606      858.507
06/28/2014  16:20:00     -219.230     -153.515        4.863      164.267      173.357       70.748    26983.579    30052.713     5005.303        6.684        3.102      267.635       75.772        0.080      349.427       29.844      858.537
06/28/2014  16:21:00     -403.189     -237.593        8.265      249.402      163.837      103.059    62201.535    26842.523    10621.064       15.936        4.983      467.987      117.005        0.063      349.242       29.523      858.530
06/28/2014  16:22:00     -381.283     -285.193      -10.017      223.049      206.744       89.861    49750.762    42743.199     8074.966       16.367        5.028      476.143      110.041        0.053      349.176       29.408      858.529
06/28/2014  16:23:00     -398.427     -304.602      -24.096      192.782      159.883       94.144    37164.962    25562.461     8863.024       16.184        3.580      501.524      104.630        0.044      349.058       29.202      858.540
06/28/2014  16:24:00     -454.600     -138.185      -22.073      206.269      211.546       89.061    42546.908    44751.783     7931.775       16.072        4.762      475.138      100.147        0.044      349.085       29.251      858.518
06/28/2014  16:25:00     -501.118     -346.925      -24.655      264.952      162.683       95.873    70199.621    26465.609     9191.647       23.895        5.293      609.488      116.667        0.037      348.986       29.081      858.497
06/28/2014  16:26:00     -407.540     -215.234      -15.916      191.194      139.552       95.327    36555.069    19474.684     9087.206       13.888        3.256      460.884       99.208        0.046      349.100       29.276      858.520
06/28/2014  16:27:00     -355.441     -170.548      -26.874      162.554      113.232       75.909    26423.958    12821.412     5762.205       10.057        2.250      394.240       86.073        0.048      348.972       29.055      858.521
06/28/2014  16:28:00     -241.425      -92.590       15.130      178.375      157.813       84.988    31817.790    24904.805     7222.935        6.551        3.197      258.571       92.352        0.128      349.118       29.308      858.515
06/28/2014  16:29:00     -326.184     -236.422       13.143      168.280      198.202       93.091    28318.071    39283.927     8665.973       11.935        3.813      402.854       86.477        0.046      349.149       29.361      858.528
06/28/2014  16:30:00     -407.745     -249.558      -14.313      162.527      146.766       81.038    26415.045    21540.318     6567.186       14.162        2.726      478.054       75.306        0.025      349.009       29.118      858.545
06/28/2014  16:31:00     -447.676     -269.216       -7.203      249.118      197.838      107.557    62059.783    39139.714    11568.577       19.284        5.638      522.390      115.695        0.049      349.063       29.212      858.557
06/28/2014  16:32:00     -416.436     -366.832      -24.960      235.139      194.477      128.556    55290.203    37821.352    16526.526       20.910        5.482      554.963      142.264        0.066      348.859       28.859      858.547
06/28/2014  16:33:00     -447.942     -323.533      -10.088      201.283      185.089      112.047    40514.915    34257.910    12554.478       19.636        4.366      552.563      108.885        0.039      348.860       28.861      858.551
06/28/2014  16:34:00     -376.096     -233.738      -35.911      171.567      114.710       78.734    29435.201    13158.349     6198.974       12.307        2.440      442.811       72.840        0.027      348.819       28.792      858.560
06/28/2014  16:35:00     -280.304     -212.419       21.109      182.340      135.991       72.211    33247.966    18493.539     5214.427        9.054        2.848      351.699       84.779        0.058      348.956       29.027      858.560
06/28/2014  16:36:00     -322.171     -188.753       14.725      198.340      153.503       86.423    39338.739    23563.118     7468.974       10.499        3.519      373.392       92.720        0.062      349.033       29.161      858.538
06/28/2014  16:37:00     -287.124     -330.646        3.720      170.836      148.590       90.374    29184.851    22078.869     8167.507       12.560        2.972      437.912       73.368        0.028      349.063       29.213      858.511
06/28/2014  16:38:00     -478.806     -339.862      -28.895      246.482      170.217      106.634    60753.607    28973.993    11370.835       22.333        5.055      587.164      120.413        0.042      349.089       29.257      858.546
06/28/2014  16:39:00     -476.065     -268.241        1.181      220.387      232.603      105.864    48570.374    54104.010    11207.189       20.622        5.694      546.435      105.620        0.037      348.879       28.894      858.545
06/28/2014  16:40:00     -299.833     -133.954       -5.127      193.949      116.580       72.907    37616.148    13590.916     5315.482        8.219        2.826      328.396       90.543        0.076      349.131       29.330      858.562
06/28/2014  16:41:00     -338.653     -218.612      -17.316      190.921      189.305       91.413    36450.938    35836.397     8356.315       12.170        4.032      403.085      111.983        0.077      349.220       29.485      858.584
06/28/2014  16:42:00     -393.822     -256.840       -4.550      179.969      176.665       87.640    32388.716    31210.548     7680.790       14.617        3.564      470.173       82.410        0.031      348.973       29.058      858.574
06/28/2014  16:43:00     -398.839     -241.564      -21.500      199.177      207.972       85.368    39671.604    43252.244     7287.710       15.403        4.511      466.289       96.083        0.042      348.978       29.065      858.559
06/28/2014  16:44:00     -471.204     -311.663      -14.289      259.584      171.688      100.719    67383.675    29476.678    10144.313       21.317        5.350      564.949      131.911        0.055      348.894       28.919      858.548
06/28/2014  16:45:00     -412.594     -350.521       -7.820      211.740      165.849       99.801    44834.014    27505.920     9960.218       18.772        4.115      541.386      109.382        0.041      349.018       29.134      858.588
06/28/2014  16:46:00     -500.316     -351.742       -7.570      214.427      189.378      105.641    45979.039    35863.979    11159.999       23.353        4.650      611.587      109.689        0.032      348.886       28.905      858.576
06/28/2014  16:47:00     -482.604     -363.577      -15.730      208.357      163.336      101.577    43412.796    26678.493    10317.891       22.286        4.020      604.231      101.614        0.028      348.766       28.699      858.601
06/28/2014  16:48:00     -440.345     -271.192       -5.788      209.586      153.781       95.484    43926.483    23648.653     9117.271       17.207        3.835      517.154      103.685        0.040      348.779       28.721      858.594
06/28/2014  16:49:00     -494.459     -289.620       -3.172      263.938      188.073      115.635    69663.309    35371.592    13371.531       22.337        5.920      573.035      135.383        0.056      348.756       28.682      858.596
06/28/2014  16:50:00     -438.821     -332.916      -13.384      190.980      165.817       96.953    36473.489    27495.357     9399.877       18.846        3.668      550.815      102.728        0.035      348.680       28.549      858.631
06/28/2014  16:51:00     -407.192     -173.021      -15.237      203.024      145.326       79.559    41218.555    21119.590     6329.706       13.231        3.433      442.427       85.186        0.037      348.804       28.764      858.615
06/28/2014  16:52:00     -253.115     -127.217       17.026      200.080      127.410       77.215    40032.108    16233.431     5962.136        7.137        3.111      283.287       97.507        0.118      349.061       29.210      858.654
06/28/2014  16:53:00     -408.656     -185.670       -8.684      242.037      165.192       96.398    58581.722    27288.532     9292.503       14.834        4.758      448.858      105.849        0.056      348.837       28.820      858.639
06/28/2014  16:54:00     -411.681     -291.741       -4.029      243.873      149.865       96.397    59474.273    22459.620     9292.388       17.290        4.561      504.573      106.761        0.045      348.699       28.582      858.624
06/28/2014  16:55:00     -500.881     -184.175      -18.009      219.686      171.434       75.985    48261.782    29389.518     5773.759       18.426        4.171      533.669       87.345        0.027      348.809       28.773      858.638
06/28/2014  16:56:00     -222.836      -73.292       13.641      169.348      127.511       70.864    28678.582    16258.967     5021.720        5.258        2.498      234.580       82.675        0.124      349.212       29.471      858.672
06/28/2014  16:57:00     -363.429     -208.104       -4.211      164.971      155.605       75.261    27215.535    24212.866     5664.148       11.624        2.855      418.793       68.812        0.027      349.092       29.261      858.696
06/28/2014  16:58:00     -174.685     -238.037        0.573      106.318      114.657       66.055    11303.549    13146.216     4363.289        5.799        1.441      295.257       50.392        0.029      348.830       28.809      858.662
06/28/2014  16:59:00     -195.993     -269.802       -1.743       95.964      137.504       58.867     9209.037    18907.457     3465.342        7.139        1.579      333.476       55.200        0.027      348.805       28.765      858.645
06/28/2014  17:00:00     -193.191     -253.321        0.799      159.705      124.683       73.361    25505.806    15545.732     5381.770        7.396        2.322      318.581       65.701        0.043      349.041       29.173      858.666
06/28/2014  17:01:00     -236.721     -240.296       11.273      158.297      176.757       79.712    25057.933    31243.099     6353.992        8.827        3.133      337.311       93.738        0.077      349.100       29.277      858.677
06/28/2014  17:02:00     -207.877     -301.305      -10.352      137.329      161.189       72.753    18859.313    25981.789     5293.000        9.211        2.507      366.057       76.266        0.043      348.820       28.792      858.650
06/28/2014  17:03:00     -255.455      -96.028       -5.360      128.603      105.274       50.737    16538.778    11082.568     2574.284        5.235        1.510      272.908       52.218        0.037      348.955       29.027      858.628
06/28/2014  17:04:00     -244.569     -139.089        7.103      222.027      118.851       66.043    49295.886    14125.647     4361.708        7.349        3.389      281.354       80.403        0.082      349.048       29.187      858.629
06/28/2014  17:05:00     -320.972     -205.558        6.572      214.906      209.240       82.740    46184.543    43781.296     6845.901       12.105        4.841      381.152       96.699        0.064      349.013       29.126      858.649
06/28/2014  17:06:00     -416.969     -389.069      -10.394      253.619      203.920      106.902    64322.848    41583.286    11428.064       22.132        5.867      570.296      122.803        0.046      348.818       28.788      858.632
06/28/2014  17:07:00     -422.227     -292.921       -9.897      189.278      166.499       87.827    35826.279    27721.955     7713.644       16.771        3.563      513.886       92.495        0.032      348.803       28.762      858.642
06/28/2014  17:08:00     -517.227     -307.607        6.276      229.581      153.808       95.477    52707.596    23656.835     9115.850       22.382        4.274      601.785      111.858        0.035      348.663       28.519      858.628
06/28/2014  17:09:00     -530.808     -291.344      -16.305      192.740      157.563       77.450    37148.732    24826.023     5998.444       21.743        3.399      605.507       81.474        0.018      348.717       28.613      858.594
06/28/2014  17:10:00     -410.168     -265.893      -13.628      230.698      139.996       79.551    53221.565    19598.963     6328.324       15.912        3.957      488.812       94.690        0.038      348.823       28.797      858.570
06/28/2014  17:11:00     -264.699     -154.726      -32.089      183.072      133.832       74.828    33515.422    17910.969     5599.215        7.602        2.851      306.603       96.817        0.100      348.941       29.002      858.573
06/28/2014  17:12:00     -166.006     -161.001       -5.207      178.572      139.964       66.611    31888.067    19590.057     4437.016        5.470        2.796      231.256       70.300        0.092      349.086       29.253      858.550
06/28/2014  17:13:00     -398.179     -334.040      -10.497      183.089      145.613      106.664    33521.438    21203.138    11377.120       16.816        3.305      519.740      106.825        0.042      348.869       28.878      858.590
06/28/2014  17:14:00     -333.986     -201.928       -5.651      234.461      177.925       94.488    54971.900    31657.362     8928.043       12.394        4.778      390.284      101.458        0.068      348.798       28.754      858.606
06/28/2014  17:15:00     -297.372      -45.949       23.032      209.867      145.309       80.567    44043.955    21114.603     6491.094        8.135        3.582      300.901       85.490        0.081      349.039       29.173      858.592
06/28/2014  17:16:00     -213.521     -127.841        1.451      178.521      116.843       74.382    31869.604    13652.359     5532.714        5.649        2.553      248.867       76.558        0.095      348.939       28.996      858.618
06/28/2014  17:17:00     -250.483     -143.162       12.222      185.955      134.517       97.785    34579.151    18094.715     9561.813        7.280        3.112      288.509       98.030        0.115      349.033       29.160      858.606
06/28/2014  17:18:00     -506.282     -195.031      -26.386      213.601      171.208       99.771    45625.573    29312.218     9954.323       18.996        4.245      542.548       95.370        0.031      348.806       28.768      858.606
06/28/2014  17:19:00     -459.878     -230.644       -4.712      275.223      236.672      115.594    75747.590    56013.647    13361.929       20.489        7.256      514.475      147.772        0.083      348.720       28.619      858.646
06/28/2014  17:20:00     -404.142     -134.384       -6.239      222.964      184.367       72.354    49713.058    33991.245     5235.031       13.517        4.447      425.899       72.870        0.029      348.667       28.527      858.654
06/28/2014  17:21:00     -484.964     -144.658       -8.644      211.499      140.137       78.495    44731.745    19638.287     6161.389       16.335        3.527      506.079       84.587        0.028      348.571       28.360      858.632
06/28/2014  17:22:00     -368.155     -234.019       -6.292      171.311      144.077       78.495    29347.455    20758.211     6161.436       12.330        2.813      436.237       73.629        0.028      348.792       28.743      858.646
06/28/2014  17:23:00     -252.307     -194.825       15.390      205.283      174.843       85.205    42140.985    30570.049     7259.952        9.090        3.999      318.772       88.063        0.076      348.915       28.956      858.667
06/28/2014  17:24:00     -352.315     -268.797        1.121      226.903      169.244       93.457    51485.037    28643.553     8734.136       14.261        4.443      443.146       99.896        0.051      348.726       28.628      858.658
06/28/2014  17:25:00     -501.129     -337.420       -8.957      222.797      172.716      111.410    49638.320    29830.771    12412.140       22.846        4.594      604.138      118.993        0.039      348.710       28.602      858.652
06/28/2014  17:26:00     -651.631     -322.186       -8.510      240.499      177.104      110.666    57839.873    31365.654    12247.058       31.496        5.073      726.930      123.566        0.029      348.512       28.259      858.661
06/28/2014  17:27:00     -398.070     -187.627       -4.241      231.177      179.523      105.125    53442.955    32228.383    11051.268       14.519        4.836      440.072      115.203        0.069      348.617       28.440      858.693
06/28/2014  17:28:00     -461.226     -195.520      -18.193      190.260      196.832      102.024    36198.721    38742.779    10408.932       16.831        4.268      500.957       91.004        0.033      348.600       28.411      858.687
06/28/2014  17:29:00     -273.078     -106.201        2.879      225.085      147.883       76.860    50663.464    21869.471     5907.423        8.214        3.922      293.002       97.395        0.110      348.824       28.799      858.688
06/28/2014  17:30:00     -296.193     -164.299        1.006      153.405      163.033       74.917    23533.177    26579.828     5612.526        8.522        2.786      338.710       83.387        0.061      348.795       28.748      858.713
06/28/2014  17:31:00     -577.342     -223.955       -7.960      240.108      180.140       97.066    57651.741    32450.575     9421.847       24.152        4.976      619.258      110.257        0.032      348.606       28.420      858.659
06/28/2014  17:32:00     -456.532     -289.589      -30.008      264.376      154.101       96.598    69894.761    23747.260     9331.093       19.806        5.149      540.633      115.876        0.046      348.600       28.410      858.677
06/28/2014  17:33:00     -386.572     -266.950       -9.464      192.441      176.275       92.795    37033.347    31072.808     8610.999       14.874        3.836      469.788       87.885        0.035      348.632       28.467      858.682
06/28/2014  17:34:00     -403.481     -304.601       -8.497      201.006      150.261       85.460    40403.479    22578.222     7303.455       16.296        3.514      505.548       74.488        0.022      348.619       28.443      858.662
06/28/2014  17:35:00     -443.460     -136.630      -11.186      203.333      144.708      100.164    41344.463    20940.492    10032.811       14.387        3.616      464.031      108.166        0.054      348.690       28.567      858.678
06/28/2014  17:36:00     -274.199      -36.328        5.448      177.813      119.237       79.035    31617.482    14217.534     6246.596        6.430        2.604      276.595      100.714        0.133      348.737       28.649      858.683
06/28/2014  17:37:00     -279.416     -176.164       -5.825      161.528      118.221       62.485    26091.377    13976.296     3904.419        7.655        2.199      330.313       73.862        0.050      348.824       28.801      858.701
06/28/2014  17:38:00     -249.042     -211.706        8.889      161.780      114.352       73.818    26172.817    13076.406     5449.060        7.580        2.235      326.866       87.462        0.072      348.858       28.856      858.718
06/28/2014  17:39:00     -427.267     -105.582       -9.974      193.930      202.676       89.119    37608.680    41077.446     7942.195       14.020        4.331      440.119      108.364        0.061      348.891       28.915      858.722
06/28/2014  17:40:00     -333.399     -132.470        2.120      162.264       95.167       59.966    26329.682     9056.805     3595.914        8.384        1.949      358.752       70.828        0.039      348.981       29.072      858.758
06/28/2014  17:41:00     -355.014     -253.296      -24.849      191.025      143.642       81.101    36490.457    20633.024     6577.336       12.725        3.185      436.113       97.888        0.050      348.831       28.811      858.774
06/28/2014  17:42:00     -346.012     -271.811       -2.878      173.335      136.841       84.084    30045.183    18725.496     7070.168       12.472        2.792      440.006       88.333        0.040      348.503       28.243      858.755
06/28/2014  17:43:00     -308.755     -184.023       -5.507      168.928      103.185       64.202    28536.693    10647.150     4121.868        8.626        2.165      359.435       65.280        0.033      348.580       28.375      858.757
06/28/2014  17:44:00     -358.096     -127.118        7.694      200.685      146.449       88.374    40274.490    21447.322     7809.919       10.698        3.477      379.990       99.486        0.069      348.718       28.614      858.750
06/28/2014  17:45:00     -407.533     -262.454       -2.393      241.865      190.351      113.681    58498.743    36233.510    12923.324       17.130        5.383      484.732      128.064        0.070      348.584       28.384      858.744
06/28/2014  17:46:00     -444.312     -305.782       -8.178      195.846      172.887       87.040    38355.593    29890.011     7575.929       18.339        3.791      539.366       96.024        0.032      348.467       28.180      858.759
06/28/2014  17:47:00     -256.277     -207.594       17.938      218.814      165.109       91.751    47879.760    27260.818     8418.312        9.631        4.178      329.808      101.443        0.095      348.591       28.395      858.753
06/28/2014  17:48:00     -299.364     -135.357       -7.980      187.932      147.486       80.735    35318.302    21752.259     6518.061        8.579        3.179      328.543       96.771        0.087      348.676       28.542      858.763
06/28/2014  17:49:00     -349.689     -190.881      -20.658      190.547      232.614       94.229    36308.036    54109.076     8879.030       12.920        4.965      398.394       93.572        0.055      348.633       28.467      858.763
06/28/2014  17:50:00     -486.270     -270.401       -5.744      239.714      167.619      106.681    57462.672    28096.135    11380.919       20.326        4.847      556.394      123.795        0.050      348.651       28.499      858.745
06/28/2014  17:51:00     -501.456     -243.187       -7.316      193.016      160.608       91.746    37255.278    25794.858     8417.273       19.105        3.573      557.313       89.319        0.026      348.555       28.332      858.770
06/28/2014  17:52:00     -499.715     -255.993      -23.469      242.039      139.158       77.470    58583.087    19364.967     6001.662       19.986        4.197      561.469       97.585        0.030      348.554       28.332      858.776
06/28/2014  17:53:00     -558.587     -359.942      -27.231      232.768      188.371      111.574    54181.024    35483.696    12448.657       27.220        5.106      664.513      115.419        0.030      348.413       28.087      858.781
06/28/2014  17:54:00     -392.174     -239.937      -12.673      213.682      179.054       77.885    45659.962    32060.403     6066.019       14.764        4.189      459.750      101.425        0.049      348.541       28.310      858.804
06/28/2014  17:55:00     -411.547     -209.762      -10.955      209.575      161.909       85.260    43921.591    26214.511     7269.279       14.544        3.870      461.921       84.262        0.033      348.490       28.220      858.800
06/28/2014  17:56:00     -343.494     -158.664      -11.275      144.355      102.315       61.577    20838.295    10468.436     3791.746        8.919        1.755      378.368       52.249        0.019      348.642       28.483      858.780
06/28/2014  17:57:00     -326.458     -250.597        7.219      157.309      138.688       80.598    24746.103    19234.393     6496.103       10.994        2.524      411.551       60.206        0.021      348.645       28.488      858.805
06/28/2014  17:58:00     -256.976     -204.284       16.665      204.719      140.220       88.578    41909.745    19661.525     7846.054        8.872        3.471      328.281       94.206        0.082      348.691       28.567      858.805
06/28/2014  17:59:00     -460.836     -333.184       -3.746      246.815      195.114      104.848    60917.537    38069.585    10993.058       21.667        5.499      568.667      125.438        0.049      348.458       28.165      858.760
06/28/2014  18:00:00     -299.026     -243.702       14.388      224.096      173.482       93.650    50218.951    30096.148     8770.403       11.903        4.454      385.755      113.621        0.087      348.639       28.478      858.784
06/28/2014  18:01:00     -340.721     -255.000        0.779      215.624      169.625       85.424    46493.763    28772.686     7297.255       13.183        4.128      425.577       88.605        0.043      348.482       28.208      858.822
06/28/2014  18:02:00     -399.189     -238.457       -3.103      142.452      123.070       71.743    20292.633    15146.128     5147.119       12.840        2.029      464.988       62.838        0.018      348.296       27.885      858.809
06/28/2014  18:03:00     -167.457      -95.057       34.445      185.622      104.741       80.837    34455.612    10970.661     6534.593        4.510        2.598      192.556       91.839        0.227      348.569       28.359      858.831
06/28/2014  18:04:00     -278.835     -203.500      -17.613      163.928       88.017       70.518    26872.530     7747.051     4972.828        7.953        1.980      345.197       44.209        0.016      348.595       28.402      858.840
06/28/2014  18:05:00     -433.122     -245.916      -17.423      221.595      148.435       90.716    49104.469    22032.898     8229.408       16.386        3.968      498.066       98.704        0.039      348.490       28.221      858.833
06/28/2014  18:06:00     -369.068     -189.431       -9.871      160.521      145.995       71.224    25766.896    21314.637     5072.827       11.216        2.608      414.843       70.168        0.029      348.520       28.271      858.845
06/28/2014  18:07:00     -359.441     -338.504      -15.904      255.868      164.346      108.276    65468.350    27009.722    11723.690       17.410        5.210      493.744      121.580        0.061      348.504       28.245      858.840
06/28/2014  18:08:00     -470.029     -265.664        2.102      245.868      166.623      107.646    60451.110    27763.371    11587.745       19.564        4.990      539.912      121.588        0.051      348.345       27.969      858.849
06/28/2014  18:09:00     -508.313     -289.746       -7.835      213.471      171.252       97.619    45569.907    29327.318     9529.507       21.340        4.221      585.094      103.387        0.031      348.313       27.914      858.843
06/28/2014  18:10:00     -472.876     -252.600      -17.691      184.767      166.055       78.904    34138.889    27574.120     6225.796       17.782        3.397      536.115       82.028        0.023      348.436       28.127      858.843
06/28/2014  18:11:00     -366.049     -226.820       -7.374      182.472      166.019       85.984    33295.942    27562.160     7393.247       12.686        3.413      430.626       89.308        0.043      348.386       28.040      858.865
06/28/2014  18:12:00     -496.944     -331.378        6.150      241.623      189.888       99.443    58381.759    36057.514     9888.940       23.055        5.216      597.297      104.467        0.031      348.317       27.921      858.856
06/28/2014  18:13:00     -405.630     -213.729       -7.324      232.300      143.440       95.688    53963.336    20574.902     9156.137       14.697        4.185      458.493       97.524        0.045      348.300       27.892      858.849
06/28/2014  18:14:00     -387.292     -183.087       -9.458      235.543      173.327       84.338    55480.723    30042.304     7112.953       13.811        4.632      428.387       90.386        0.045      348.435       28.127      858.860
06/28/2014  18:15:00     -427.915     -197.221      -17.939      192.052      202.901       83.489    36884.121    41168.753     6970.359       15.366        4.251      471.176       85.576        0.033      348.426       28.108      858.874
06/28/2014  18:16:00     -541.907     -147.506      -10.662      240.380      166.818       99.932    57782.432    27828.098     9986.309       20.555        4.780      561.624      109.768        0.038      348.294       27.881      858.861
06/28/2014  18:17:00     -438.389     -181.715       -5.539      199.361      151.129       78.924    39744.937    22839.861     6229.067       14.701        3.441      474.557       89.397        0.035      348.269       27.838      858.891
06/28/2014  18:18:00     -395.706     -163.899       -4.349      206.952      153.351       82.474    42829.081    23516.427     6801.958       12.829        3.657      428.306       85.546        0.040      348.284       27.864      858.895
06/28/2014  18:19:00     -398.592     -248.446       -8.184      250.574      173.494      100.666    62787.385    30100.190    10133.647       16.183        5.151      469.682      124.886        0.071      348.300       27.893      858.876
06/28/2014  18:20:00     -500.079     -243.187      -21.764      225.077      180.833       80.322    50659.871    32700.436     6451.635       19.974        4.491      556.074       83.368        0.022      348.254       27.812      858.862
06/28/2014  18:21:00     -411.251     -121.062      -11.455      206.074      167.822       78.039    42466.306    28164.336     6090.010       13.030        3.836      428.700       99.176        0.054      348.297       27.886      858.874
06/28/2014  18:22:00     -268.204     -110.523        4.522      173.434      136.608       79.801    30079.269    18661.625     6368.190        6.963        2.755      290.084       88.175        0.092      348.448       28.147      858.889
06/28/2014  18:23:00     -340.654      -64.438      -10.518      221.849      160.057       91.423    49217.049    25618.383     8358.234       10.174        4.160      346.695      104.113        0.090      348.376       28.024      858.888
06/28/2014  18:24:00     -511.525     -304.079      -14.575      200.375      169.964      107.527    40149.942    28887.594    11561.996       21.745        4.030      595.081      110.703        0.035      348.098       27.542      858.884
06/28/2014  18:25:00     -261.887      -71.078       -0.299      220.560      147.373       87.616    48646.913    21718.835     7676.485        7.583        3.902      271.361      108.110        0.159      348.267       27.835      858.891
06/28/2014  18:26:00     -310.202     -193.552       -1.628      203.115      156.781       69.100    41255.854    24580.225     4774.756       10.214        3.531      365.634       91.746        0.063      348.359       27.993      858.914
06/28/2014  18:27:00     -433.144     -247.879      -28.526      191.079      162.792       80.176    36511.338    26501.337     6428.127       15.964        3.472      499.056       83.903        0.028      348.250       27.805      858.914
06/28/2014  18:28:00     -450.914     -339.484       -2.301      198.036      176.500      100.120    39218.200    31152.275    10023.947       19.947        4.020      564.423       98.469        0.030      348.220       27.754      858.914
06/28/2014  18:29:00     -376.757     -209.014       -0.546      221.324      180.925       92.805    48984.448    32733.708     8612.727       13.797        4.517      430.851       99.235        0.053      348.246       27.799      858.945
06/28/2014  18:30:00     -410.741     -225.876      -16.141      187.157      165.961       95.882    35027.581    27542.989     9193.411       14.586        3.588      468.752       96.507        0.042      348.247       27.799      858.915
06/28/2014  18:31:00     -354.324     -166.377        9.581      169.126      115.063       65.578    28603.682    13239.545     4300.485        9.972        2.307      391.442       65.995        0.028      348.235       27.779      858.922
06/28/2014  18:32:00     -213.145     -175.592       -4.848      120.520      132.293       64.606    14525.174    17501.504     4173.988        5.624        1.810      276.158       65.257        0.056      348.296       27.885      858.918
06/28/2014  18:33:00     -268.030     -114.174       18.370      245.621      123.707       82.738    60329.780    15303.339     6845.651        8.383        4.124      291.334       87.159        0.090      348.274       27.848      858.895
06/28/2014  18:34:00     -162.465     -135.855       25.964      189.710      125.227       91.876    35989.725    15681.794     8441.129        5.281        3.006      211.782       97.505        0.212      348.260       27.823      858.885
06/28/2014  18:35:00     -263.792     -217.769        2.037      210.466      144.816       76.037    44295.842    20971.593     5781.674        9.402        3.552      342.066       68.884        0.041      348.362       27.999      858.904
06/28/2014  18:36:00     -386.561     -114.027        3.116      246.465      183.930       92.795    60745.123    33830.203     8610.988       13.280        5.159      403.028       84.112        0.044      348.246       27.799      858.910
06/28/2014  18:37:00     -494.265     -143.037      -32.139      224.465      159.855       81.424    50384.600    25553.774     6629.807       17.417        4.128      514.546       98.064        0.036      348.181       27.688      858.927
06/28/2014  18:38:00     -354.879     -146.965       -5.929      181.680      177.878       84.966    33007.477    31640.716     7219.220       10.971        3.593      384.106       91.578        0.057      348.225       27.762      858.932
06/28/2014  18:39:00     -477.158     -217.301      -19.690      183.353      166.278       78.061    33618.271    27648.247     6093.590       17.131        3.368      524.308       79.493        0.023      348.116       27.574      858.915
06/28/2014  18:40:00     -334.748     -258.834       -1.702      202.030      138.051       83.218    40816.179    19057.985     6925.226       12.292        3.340      423.144       97.116        0.053      348.175       27.674      858.896
06/28/2014  18:41:00     -368.933     -180.192       10.391      215.895      149.437      103.729    46610.556    22331.554    10759.701       12.418        3.985      410.586      120.951        0.087      348.121       27.582      858.882
06/28/2014  18:42:00     -292.870     -162.896       -7.302      178.110      137.506       85.698    31723.290    18907.785     7344.117        8.516        2.899      335.123       93.612        0.078      348.154       27.639      858.875
06/28/2014  18:43:00     -260.265     -198.474       -0.727      134.915      103.314       79.523    18202.125    10673.856     6323.864        7.116        1.760      327.307       85.224        0.068      348.230       27.771      858.893
06/28/2014  18:44:00     -223.286     -200.543        4.316      152.075      105.894       67.040    23126.773    11213.637     4494.296        6.446        1.942      300.123       66.162        0.049      348.216       27.746      858.900
06/28/2014  18:45:00     -352.846     -238.525      -11.156      172.179      151.273       85.651    29645.717    22883.427     7336.130       12.068        2.993      425.905       92.377        0.047      348.158       27.647      858.881
06/28/2014  18:46:00     -392.754     -229.381      -11.576      168.189      165.077       97.593    28287.600    27250.426     9524.322       13.602        3.253      454.832       94.582        0.043      348.165       27.659      858.899
06/28/2014  18:47:00     -321.675     -163.597      -10.014      166.223      122.604       78.919    27630.164    15031.762     6228.225        8.961        2.445      360.886       86.597        0.058      348.196       27.713      858.918
06/28/2014  18:48:00     -433.963     -306.811        3.230      253.639      184.764      103.362    64332.897    34137.792    10683.613       19.579        5.458      531.467      130.168        0.060      348.050       27.459      858.918
06/28/2014  18:49:00     -344.020     -162.743        6.940      217.114      163.300       93.727    47138.663    26666.895     8784.664       11.372        4.130      380.572       92.805        0.059      348.042       27.445      858.927
06/28/2014  18:50:00     -344.928     -175.437       -2.148      252.780      171.523       96.562    63897.923    29420.189     9324.282       12.618        5.132      386.980      122.693        0.101      348.018       27.405      858.944
06/28/2014  18:51:00     -337.795     -281.125       -4.136      197.536      167.952       96.023    39020.326    28207.878     9220.426       13.479        3.822      439.473      104.907        0.057      348.034       27.430      858.948
06/28/2014  18:52:00     -226.044     -296.483        4.443      182.162      188.758       92.303    33182.901    35629.449     8519.854       10.816        3.867      372.824       98.541        0.070      348.097       27.541      858.923
06/28/2014  18:53:00     -337.089     -203.272      -15.355      156.807      168.013       81.909    24588.435    28228.526     6709.026       10.735        2.976      393.635       88.437        0.050      348.142       27.619      858.944
06/28/2014  18:54:00     -320.363     -187.970      -10.241      139.774      140.752       68.617    19536.879    19810.992     4708.269        9.106        2.203      371.437       71.013        0.037      348.072       27.498      858.966
06/28/2014  18:55:00     -402.650     -219.520       -2.528      231.262      156.736      108.367    53482.324    24566.174    11743.313       15.004        4.490      458.602      116.731        0.065      348.029       27.423      858.972
06/28/2014  18:56:00     -503.760     -268.064       -5.813      188.523      148.362       97.677    35541.014    22011.221     9540.787       19.637        3.355      570.642      100.309        0.031      347.960       27.303      858.981
06/28/2014  18:57:00     -408.956     -174.023      -21.262      166.076      124.708       69.489    27581.330    15552.149     4828.776       12.296        2.398      444.442       66.964        0.023      348.023       27.412      859.012
06/28/2014  18:58:00     -282.679     -186.058       -2.614      148.952      105.531       67.758    22186.707    11136.883     4591.121        7.622        1.896      338.415       56.472        0.028      348.060       27.478      859.024
06/28/2014  18:59:00     -410.842     -205.459        0.660      265.243      184.336       96.085    70353.827    33979.852     9232.272       16.227        5.678      459.352      129.337        0.079      347.982       27.341      859.028
06/28/2014  19:00:00     -376.019     -196.014       -3.808      215.474      166.704       88.785    46429.041    27790.090     7882.702       13.095        4.105      424.042      114.356        0.073      347.970       27.321      859.036
06/28/2014  19:01:00     -351.299     -160.295      -11.033      183.597      193.163       76.680    33707.755    37311.867     5879.859       11.305        3.845      386.142       95.386        0.061      348.012       27.394      859.038
06/28/2014  19:02:00     -494.872     -236.759      -13.172      206.529      214.910      102.179    42654.176    46186.426    10440.454       20.019        4.964      548.592      112.803        0.042      347.908       27.214      859.023
06/28/2014  19:03:00     -407.413     -309.583       -7.527      198.659      187.799      113.244    39465.473    35268.407    12824.176       17.471        4.378      511.690      111.609        0.048      347.914       27.223      859.006
06/28/2014  19:04:00     -567.721     -334.852      -17.669      254.612      167.743      108.592    64827.381    28137.820    11792.141       26.973        5.238      659.115      103.205        0.025      347.891       27.187      858.995
06/28/2014  19:05:00     -427.620     -249.870      -12.633      245.055      166.950       88.066    60052.088    27872.138     7755.640       17.055        4.784      495.272      113.799        0.053      347.896       27.193      859.020
06/28/2014  19:06:00     -361.888     -289.968       -0.109      190.920      212.501       82.159    36450.457    45156.813     6750.146       15.169        4.418      463.729       99.772        0.046      347.922       27.239      859.040
06/28/2014  19:07:00     -561.832     -195.928       -3.360      237.645      177.254      106.274    56475.182    31419.024    11294.170       22.660        4.959      595.015      114.153        0.037      347.867       27.143      859.049
06/28/2014  19:08:00     -425.998     -269.152       -5.499      202.191      173.541      102.049    40881.138    30116.584    10413.942       16.767        4.071      503.902      106.747        0.045      347.861       27.133      859.054
06/28/2014  19:09:00     -236.759     -166.272       11.639      151.778      148.220       82.507    23036.413    21969.217     6807.427        6.782        2.591      289.312       91.120        0.099      347.915       27.227      859.075
06/28/2014  19:10:00     -277.215     -135.870        1.705      168.664      140.998       78.788    28447.602    19880.299     6207.537        7.491        2.727      308.721       79.131        0.066      347.942       27.274      859.090
06/28/2014  19:11:00     -381.300     -214.848       -4.304      262.682      192.839       82.117    69001.810    37187.046     6743.281       15.223        5.647      437.664       91.682        0.044      347.856       27.125      859.100
06/28/2014  19:12:00     -369.481     -261.177        3.223      210.544      174.908       92.823    44328.593    30592.873     8616.137       14.412        4.177      452.471       95.442        0.044      347.805       27.037      859.098
06/28/2014  19:13:00     -278.162      -94.095        3.438      165.186      131.608       77.277    27286.326    17320.637     5971.684        6.840        2.529      293.647       82.737        0.079      347.857       27.127      859.110
06/28/2014  19:14:00     -265.210     -172.718       -7.238      143.115      132.973       71.730    20481.907    17681.912     5145.211        7.176        2.165      316.493       65.526        0.043      347.851       27.115      859.140
06/28/2014  19:15:00     -362.470     -268.383       -4.644      185.671      131.645       90.106    34473.723    17330.310     8119.146       13.167        2.996      451.014      104.210        0.053      347.817       27.059      859.143
06/28/2014  19:16:00     -367.130     -138.417        0.667      140.099      118.744       74.153    19627.755    14100.094     5498.684        9.658        1.961      392.356       81.348        0.043      347.857       27.126      859.156
06/28/2014  19:17:00     -415.504     -318.979      -16.608      195.364      164.657       96.069    38167.085    27111.780     9229.261       17.458        3.725      523.824      100.751        0.037      347.739       26.922      859.153
06/28/2014  19:18:00     -328.523     -190.977      -10.013      177.367      158.573       77.920    31458.992    25145.480     6071.507       10.358        3.134      380.000       85.230        0.050      347.800       27.028      859.157
06/28/2014  19:19:00     -233.121     -102.856        5.237      227.389      139.922       82.005    51705.984    19578.157     6724.829        7.147        3.900      254.803       90.191        0.125      347.831       27.082      859.174
06/28/2014  19:20:00     -474.618     -245.723       -3.223      248.489      177.907      113.231    61746.920    31650.894    12821.323       19.592        5.311      534.455      121.153        0.051      347.726       26.900      859.172
06/28/2014  19:21:00     -372.250     -242.290      -23.354      219.558      167.779      110.291    48205.723    28149.685    12164.176       14.316        4.426      444.156      127.451        0.082      347.725       26.898      859.187
06/28/2014  19:22:00     -582.151     -304.875      -35.357      235.781      180.888      111.017    55592.587    32720.359    12324.827       26.685        5.032      657.152      104.506        0.025      347.668       26.800      859.204
06/28/2014  19:23:00     -431.542     -307.067       -8.411      201.936      175.907       92.453    40778.007    30943.436     8547.576       18.042        4.013      529.640       96.042        0.033      347.665       26.795      859.234
06/28/2014  19:24:00     -476.503     -178.816      -12.838      188.302      180.580       73.000    35457.491    32609.241     5329.038       16.628        3.670      508.950       82.823        0.026      347.668       26.800      859.234
06/28/2014  19:25:00     -316.990     -134.686       -1.120      176.101      111.270       70.835    31011.505    12380.913     5017.658        8.351        2.421      344.417       76.197        0.049      347.705       26.864      859.250
06/28/2014  19:26:00     -430.757     -222.038      -31.238      255.012      239.167      109.816    65030.909    57200.834    12059.603       18.504        6.715      484.616      135.913        0.079      347.698       26.852      859.209
06/28/2014  19:27:00     -398.092     -292.174       -4.536      199.028      210.510      107.312    39612.050    44314.575    11515.913       16.964        4.772      493.804      107.005        0.047      347.670       26.803      859.232
06/28/2014  19:28:00     -344.575     -146.969       10.506      276.960      142.309      105.999    76706.642    20251.757    11235.889       12.430        5.410      374.609      123.329        0.108      347.666       26.797      859.255
06/28/2014  19:29:00     -307.791     -193.337      -25.035      152.454      124.285       87.179    23242.224    15446.848     7600.194        8.951        2.314      363.475       89.184        0.060      347.673       26.807      859.271
06/28/2014  19:30:00     -386.702     -137.231        3.220      215.762      150.687       90.393    46553.228    22706.707     8170.887       12.289        3.872      410.330      105.728        0.066      347.651       26.770      859.277
06/28/2014  19:31:00     -308.505      -54.238      -11.022      156.825      126.238       85.341    24594.146    15936.117     7283.103        7.302        2.391      313.236       76.288        0.059      347.652       26.773      859.294
06/28/2014  19:32:00     -366.655     -221.714      -10.574      225.840      145.657       80.344    51003.792    21215.831     6455.131       13.118        3.934      428.478       90.335        0.044      347.616       26.710      859.288
06/28/2014  19:33:00     -344.092     -314.698        2.370      187.095      203.203      106.207    35004.444    41291.323    11280.028       15.249        4.379      466.298      111.919        0.058      347.584       26.656      859.312
06/28/2014  19:34:00     -376.422     -194.594        3.592      152.542      139.892       77.886    23269.015    19569.698     6066.202       11.423        2.445      423.745       82.873        0.038      347.596       26.677      859.344
06/28/2014  19:35:00     -449.351      -52.179      -25.550      201.851      174.038       71.220    40743.662    30289.145     5072.352       14.069        3.805      452.370       96.419        0.045      347.587       26.662      859.352
06/28/2014  19:36:00     -331.374     -160.550        0.822      192.796      186.850       87.357    37170.487    34912.824     7631.256       10.764        3.986      368.219      106.379        0.083      347.592       26.670      859.354
06/28/2014  19:37:00     -429.355     -185.857      -16.553      207.335      191.095      100.848    42987.975    36517.423    10170.223       15.440        4.484      467.855      110.175        0.055      347.528       26.558      859.332
06/28/2014  19:38:00     -431.890     -212.315       -4.315      225.528      187.007       90.076    50862.952    34971.471     8113.691       16.277        4.697      481.255      100.357        0.043      347.521       26.547      859.340
06/28/2014  19:39:00     -278.429     -145.023      -10.520      156.365      124.739       75.944    24450.033    15559.810     5767.463        7.221        2.289      313.934       74.407        0.056      347.567       26.627      859.368
06/28/2014  19:40:00     -452.686     -214.669      -14.822      192.656      108.731       67.216    37116.439    11822.535     4517.971       15.233        2.673      501.007       70.657        0.020      347.502       26.514      859.386
06/28/2014  19:41:00     -301.728     -216.037       -1.743      151.568      133.656       80.235    22972.781    17864.019     6437.667        9.249        2.364      371.095       80.361        0.047      347.498       26.506      859.385
06/28/2014  19:42:00     -339.961     -269.732      -18.332      175.668      161.836       84.128    30859.388    26190.737     7077.437       12.639        3.206      433.969       90.409        0.043      347.488       26.490      859.398
06/28/2014  19:43:00     -480.460     -306.325       -0.017      221.650      160.259       88.053    49128.575    25683.003     7753.255       20.361        4.128      569.804       95.430        0.028      347.464       26.447      859.385
06/28/2014  19:44:00     -354.339     -192.759       -3.725      244.249      136.422       79.792    59657.445    18610.899     6366.792       12.367        4.232      403.375       98.110        0.059      347.470       26.458      859.404
06/28/2014  19:45:00     -379.481     -194.994       -9.302      150.415      119.797       71.821    22624.603    14351.280     5158.244       11.212        2.107      426.648       62.577        0.022      347.485       26.484      859.429
06/28/2014  19:46:00     -267.134     -163.568       -3.254      179.569      128.414       75.846    32245.018    16490.245     5752.686        7.630        2.724      313.233       89.945        0.082      347.453       26.429      859.432
06/28/2014  19:47:00     -390.560     -273.611      -16.724      183.461      187.209       90.041    33657.772    35047.333     8107.369       15.223        3.841      476.865       90.919        0.036      347.430       26.391      859.422
06/28/2014  19:48:00     -334.431      -99.173        0.775      154.022      139.081       77.219    23722.631    19343.408     5962.746        8.535        2.451      348.826       76.633        0.048      347.415       26.363      859.440
06/28/2014  19:49:00     -285.129      -75.026       -3.887      190.301      129.534       71.204    36214.427    16779.061     5069.963        7.249        2.903      294.835       93.711        0.101      347.418       26.369      859.415
06/28/2014  19:50:00     -386.830     -188.781      -34.396      128.725      197.028       77.958    16570.103    38820.089     6077.490       12.395        3.073      430.436       68.121        0.025      347.400       26.338      859.434
06/28/2014  19:51:00     -499.994     -190.526      -20.203      230.896      173.660       93.628    53312.849    30157.732     8766.266       18.945        4.612      535.065       98.032        0.034      347.346       26.245      859.405
06/28/2014  19:52:00     -307.430      -44.036        5.511      174.765      121.900       85.165    30542.881    14859.500     7253.128        7.456        2.633      310.568       93.298        0.090      347.357       26.265      859.436
06/28/2014  19:53:00     -319.600     -126.791      -13.424      179.406      153.722       72.997    32186.363    23630.469     5328.589        8.976        3.057      343.831       90.960        0.070      347.347       26.246      859.435
06/28/2014  19:54:00     -450.926      -78.397      -10.218      180.544      140.047       91.662    32596.213    19613.143     8401.980       13.509        3.031      457.690      106.156        0.054      347.311       26.186      859.456
06/28/2014  19:55:00     -465.221     -131.782      -24.386      233.886      147.175      103.842    54702.434    21660.588    10783.214       16.075        4.357      483.526      124.961        0.067      347.303       26.171      859.448
06/28/2014  19:56:00     -226.079      -74.359       13.257      187.845      115.826       76.640    35285.892    13415.759     5873.752        5.569        2.729      237.994       93.326        0.154      347.276       26.125      859.455
06/28/2014  19:57:00     -360.454     -201.469      -26.980      140.656      160.196       70.923    19784.062    25662.907     5030.018       11.085        2.524      412.937       72.022        0.030      347.277       26.125      859.444
06/28/2014  19:58:00     -365.757     -152.615        7.317      210.120      128.033       70.944    44150.349    16392.362     5033.082       11.134        3.279      396.320       89.060        0.050      347.254       26.087      859.437
06/28/2014  19:59:00     -250.588      -72.837        2.456      209.365      114.483       63.260    43833.723    13106.449     4001.866        6.451        3.047      260.959       90.884        0.121      347.225       26.038      859.454
06/28/2014  20:00:00     -283.177     -130.474       -6.517      135.002       99.702       64.854    18225.665     9940.519     4205.991        6.481        1.619      311.790       63.864        0.042      347.224       26.034      859.464
06/28/2014  20:01:00     -298.801     -125.066       -7.661      199.646      118.972       77.246    39858.498    14154.278     5966.957        8.247        2.999      323.919       92.543        0.082      347.217       26.022      859.469
06/28/2014  20:02:00     -236.652     -150.879       -3.377      143.848       95.196       58.727    20692.382     9062.205     3448.830        5.599        1.660      280.658       71.288        0.065      347.171       25.942      859.474
06/28/2014  20:03:00     -309.885     -172.132       -6.028      144.889      142.605       69.885    20992.942    20336.144     4883.856        8.595        2.311      354.483       72.336        0.042      347.157       25.919      859.481
06/28/2014  20:04:00     -400.933      -87.480      -22.771      164.327      150.384       90.145    27003.241    22615.493     8126.194       11.332        2.887      410.366       68.397        0.028      347.161       25.928      859.491
06/28/2014  20:05:00     -289.850      -88.899       -4.571      180.085      143.711       68.360    32430.579    20652.970     4673.023        7.484        2.888      303.177       80.144        0.070      347.095       25.813      859.493
06/28/2014  20:06:00     -445.659      -99.800        9.009      190.379      142.924       82.676    36244.022    20427.342     6835.359       13.607        3.175      456.697       89.168        0.038      347.081       25.788      859.495
06/28/2014  20:07:00     -375.499     -104.772       -8.810      142.359      108.003       70.485    20266.164    11664.629     4968.111        9.447        1.845      389.842       81.159        0.043      347.087       25.798      859.524
06/28/2014  20:08:00     -292.206      -20.719      -15.809      143.013      106.383       76.038    20452.842    11317.401     5781.714        6.180        1.878      292.939       75.594        0.067      347.058       25.747      859.536
06/28/2014  20:09:00     -395.200     -106.224        2.019      205.994      152.612       81.936    42433.414    23290.496     6713.434       11.994        3.622      409.227       95.229        0.054      347.046       25.728      859.522
06/28/2014  20:10:00     -393.509     -142.238       -8.959      140.686      132.951       72.683    19792.614    17675.984     5282.824       10.895        2.138      418.426       62.896        0.023      347.033       25.706      859.519
06/28/2014  20:11:00     -339.481     -138.676       -0.912      129.005      120.766       66.832    16642.290    14584.428     4466.580        8.508        1.785      366.712       62.529        0.029      346.984       25.622      859.540
06/28/2014  20:12:00     -282.098      -37.252       -3.658      170.019      126.541       66.762    28906.514    16012.744     4457.112        6.517        2.469      284.547       81.563        0.082      346.951       25.566      859.549
06/28/2014  20:13:00     -563.866     -143.816      -11.670      228.766      147.935       83.096    52333.734    21884.769     6904.974       20.993        4.056      581.917       94.614        0.026      346.982       25.619      859.537
06/28/2014  20:14:00     -489.213     -123.859      -11.221      219.258      131.698       93.947    48073.964    17344.375     8826.092       16.451        3.712      504.649      107.995        0.046      346.958       25.578      859.542
06/28/2014  20:15:00     -247.815      -40.091       -4.352      121.948      122.301       64.224    14871.306    14957.485     4124.697        4.849        1.698      251.037       60.576        0.058      346.910       25.493      859.574
06/28/2014  20:16:00     -377.061      -55.687      -23.661      170.066      118.965       65.841    28922.576    14152.585     4334.994        9.662        2.371      381.151       87.170        0.052      346.913       25.500      859.577
06/28/2014  20:17:00     -354.985      -35.405      -13.694      163.668      157.180       81.882    26787.079    24705.541     6704.695        9.282        2.910      356.746       78.001        0.048      346.898       25.475      859.564
06/28/2014  20:18:00     -356.751      -39.021      -28.006      151.864      104.759       67.433    23062.530    10974.449     4547.236        8.407        1.929      358.879       64.867        0.033      346.888       25.457      859.589
06/28/2014  20:19:00     -555.513     -155.406      -14.422      214.920      169.307       93.867    46190.612    28664.940     8811.053       20.830        4.183      576.841      106.398        0.034      346.891       25.460      859.565
06/28/2014  20:20:00     -390.163      -77.876       -3.779      211.834      143.057       85.756    44873.491    20465.363     7354.107       11.549        3.635      397.859       89.960        0.051      346.895       25.469      859.561
06/28/2014  20:21:00     -357.824      -28.654      -37.346      126.062      142.879       59.161    15891.745    20414.328     3500.065        8.502        1.990      358.969       47.020        0.017      346.879       25.440      859.583
06/28/2014  20:22:00     -701.169     -102.836      -52.975      199.861      137.696       85.307    39944.281    18960.207     7277.257       28.559        3.309      708.670       80.977        0.013      346.885       25.450      859.572
06/28/2014  20:23:00     -423.064     -185.157      -17.028      156.730      162.496       79.971    24564.351    26405.040     6395.383       13.545        2.868      461.808       80.788        0.031      346.841       25.376      859.578
06/28/2014  20:24:00     -346.777     -108.624       -4.335      163.858      111.777       76.992    26849.530    12494.124     5927.776        8.866        2.264      363.392       84.137        0.054      346.833       25.362      859.583
06/28/2014  20:25:00     -423.733     -103.454      -31.790      140.957      136.518       68.301    19868.775    18637.109     4664.972       11.721        2.159      436.180       75.340        0.030      346.814       25.329      859.598
06/28/2014  20:26:00     -411.635      -51.672      -12.301      153.945      132.385       75.057    23699.104    17525.846     5633.615       10.955        2.343      414.865       66.832        0.026      346.795       25.297      859.602
06/28/2014  20:27:00     -444.522     -103.781      -17.488      184.827      135.099       77.028    34160.929    18251.679     5933.368       13.350        2.917      456.476       71.027        0.024      346.816       25.333      859.597
06/28/2014  20:28:00     -371.765      -46.792      -39.720      157.164      119.728       77.162    24700.430    14334.809     5953.957        9.348        2.249      374.698       66.547        0.032      346.814       25.328      859.573
06/28/2014  20:29:00     -420.018      -82.128      -21.576      138.538      129.490       71.257    19192.743    16767.544     5077.505       11.232        2.052      427.972       71.917        0.028      346.755       25.227      859.605
06/28/2014  20:30:00     -478.707      -22.319      -43.111      188.010      157.283       74.533    35347.806    24737.868     5555.239       14.857        3.282      479.227       88.766        0.034      346.790       25.288      859.606
06/28/2014  20:31:00     -236.566      -21.433      -20.407      117.624       92.500       57.003    13835.419     8556.185     3249.383        4.124        1.282      237.535       56.480        0.057      346.743       25.208      859.623
06/28/2014  20:32:00     -412.192      -56.255      -22.928      280.340      194.059      100.241    78590.619    37658.826    10048.239       14.992        6.315      416.013      125.197        0.091      346.736       25.195      859.606
06/28/2014  20:33:00     -414.304     -143.956      -25.057      153.278      123.085       70.780    23494.054    15149.994     5009.765       11.832        2.183      438.601       55.118        0.016      346.711       25.151      859.616
06/28/2014  20:34:00     -323.731      -90.273        6.337      166.218      135.689       73.437    27628.259    18411.622     5392.971        8.220        2.572      336.082       78.254        0.054      346.680       25.098      859.646
06/28/2014  20:35:00     -374.978     -125.760       -2.150      145.707      128.873       77.190    21230.579    16608.374     5958.298       10.011        2.190      395.504       80.818        0.042      346.669       25.078      859.645
06/28/2014  20:36:00     -552.526     -186.642      -21.303      183.368      126.171       88.852    33623.884    15919.124     7894.681       19.900        2.872      583.198       97.504        0.028      346.684       25.103      859.646
06/28/2014  20:37:00     -449.237     -104.436      -14.578      136.625      153.666       56.380    18666.276    23613.274     3178.750       12.919        2.273      461.216       50.268        0.012      346.675       25.089      859.648
06/28/2014  20:38:00     -338.220     -135.544       -8.958      153.416      132.721       73.652    23536.439    17614.791     5424.647        8.970        2.329      364.369       72.059        0.039      346.648       25.043      859.642
06/28/2014  20:39:00     -472.784      -88.383      -29.047      149.527      145.046       67.342    22358.412    21038.393     4534.999       14.005        2.397      480.974       57.142        0.014      346.649       25.042      859.640
06/28/2014  20:40:00     -622.819     -179.746      -16.315      190.694      152.964       87.148    36364.341    23397.888     7594.807       24.391        3.368      648.238       87.158        0.018      346.660       25.063      859.617
06/28/2014  20:41:00     -459.692     -182.059      -18.352      119.705      110.456       71.647    14329.330    12200.475     5133.356       13.823        1.583      494.431       58.550        0.014      346.604       24.967      859.619
06/28/2014  20:42:00     -341.954     -120.103      -30.991      115.003      107.202       51.266    13225.722    11492.221     2628.193        7.983        1.367      362.433       45.913        0.016      346.577       24.921      859.610
06/28/2014  20:43:00     -459.099      -96.343      -26.983      166.053      147.313       76.420    27573.764    21701.263     5840.091       13.794        2.756      469.099       85.754        0.033      346.579       24.926      859.611
06/28/2014  20:44:00     -515.696     -132.038      -34.427      206.884      155.998       83.335    42801.104    24335.228     6944.730       17.931        3.704      532.331       98.000        0.034      346.560       24.892      859.619
06/28/2014  20:45:00     -409.328     -107.044      -20.673      115.596      110.543       59.112    13362.480    12219.694     3494.214       10.425        1.454      423.093       26.141        0.004      346.540       24.859      859.636
06/28/2014  20:46:00     -315.678      -79.667      -11.689      184.286      132.154       72.962    33961.439    17464.667     5323.444        8.143        2.837      325.576       87.507        0.072      346.505       24.797      859.630
06/28/2014  20:47:00     -335.332     -108.481      -12.430      158.448      127.239       63.978    25105.652    16189.860     4093.160        8.487        2.269      352.443       73.348        0.043      346.499       24.787      859.621
06/28/2014  20:48:00     -522.150      -89.804      -35.555      202.979      147.413       87.684    41200.616    21730.517     7688.508       17.628        3.531      529.817       95.248        0.032      346.516       24.817      859.634
06/28/2014  20:49:00     -456.224      -87.771      -21.758      179.919      145.621       76.922    32370.690    21205.336     5916.963       13.790        2.975      464.590       88.308        0.036      346.449       24.701      859.633
06/28/2014  20:50:00     -364.742      -83.435        0.461      165.555      111.914       79.038    27408.301    12524.833     6246.972        9.308        2.309      374.163       90.471        0.058      346.404       24.622      859.658
06/28/2014  20:51:00     -396.504      -65.805      -13.774      164.364      127.190       62.827    27015.614    16177.317     3947.273       10.443        2.357      401.928       70.894        0.031      346.390       24.600      859.660
06/28/2014  20:52:00     -401.476     -111.236       -6.772      145.595      146.809       77.987    21197.841    21552.828     6081.906       11.121        2.442      416.601       83.078        0.040      346.373       24.571      859.675
06/28/2014  20:53:00     -401.591      -85.154      -29.950      183.217      143.929       66.078    33568.451    20715.547     4366.350       11.403        2.933      410.520       70.781        0.030      346.415       24.642      859.668
06/28/2014  20:54:00     -385.236     -102.551      -19.220      183.045      142.629       68.685    33505.622    20343.025     4717.638       10.892        2.928      398.652       76.836        0.037      346.396       24.610      859.668
06/28/2014  20:55:00     -374.279      -32.556      -18.628      198.359      160.398       70.405    39346.113    25727.603     4956.886       10.575        3.502      375.692       82.687        0.048      346.327       24.492      859.679
06/28/2014  20:56:00     -466.721     -123.894      -42.306      141.769      132.894       73.820    20098.424    17660.928     5449.365       13.908        2.160      482.885       70.493        0.021      346.350       24.531      859.683
06/28/2014  20:57:00     -499.871      -94.909      -27.125      229.118      145.235       83.577    52494.924    21093.103     6985.067       17.008        4.029      508.802      108.641        0.046      346.346       24.525      859.704
06/28/2014  20:58:00     -349.155      -27.755       -7.158      213.224      105.799       77.442    45464.452    11193.331     5997.306        9.268        3.133      350.257       98.900        0.080      346.289       24.427      859.714
06/28/2014  20:59:00     -481.589     -104.310      -24.935      152.637      131.666       76.953    23298.192    17336.041     5921.841       14.499        2.328      492.756       69.427        0.020      346.292       24.432      859.716
06/28/2014  21:00:00     -422.985      -54.578      -16.571      159.968      134.497       73.972    25589.730    18089.446     5471.893       11.565        2.458      426.491       80.443        0.036      346.243       24.347      859.727
06/28/2014  21:01:00     -558.350     -147.744      -24.195      218.207      180.219      104.555    47614.358    32478.763    10931.742       21.258        4.551      577.567      112.674        0.038      346.329       24.494      859.723
06/28/2014  21:02:00     -463.303      -88.263      -13.735      221.109      137.934       85.328    48889.311    19025.882     7280.804       14.890        3.760      471.636      100.056        0.045      346.292       24.432      859.734
06/28/2014  21:03:00     -522.868     -158.814      -11.206      234.741      184.883      102.589    55103.326    34181.652    10524.585       19.926        4.990      546.455      114.944        0.044      346.310       24.463      859.734
06/28/2014  21:04:00     -420.605      -95.241      -30.914      186.265      178.130       81.564    34694.643    31730.158     6652.680       12.999        3.654      431.253       72.873        0.029      346.290       24.427      859.729
06/28/2014  21:05:00     -537.909     -129.860      -17.075      197.479      162.744       96.932    38997.960    26485.523     9395.750       19.068        3.744      553.362      101.078        0.033      346.299       24.443      859.749
06/28/2014  21:06:00     -584.962      -81.603      -19.064      233.585      142.614       97.418    54561.869    20338.733     9490.247       21.678        4.220      590.626      103.568        0.031      346.299       24.443      859.758
06/28/2014  21:07:00     -275.446      -61.112       10.206      161.960      111.055       72.399    26231.081    12333.133     5241.681        6.175        2.190      282.143       78.240        0.077      346.190       24.254      859.783
06/28/2014  21:08:00     -519.051      -57.800      -31.773      194.920      159.956       76.606    37993.762    25585.917     5868.542       17.159        3.472      522.259       93.533        0.032      346.245       24.349      859.796
06/28/2014  21:09:00     -455.414      -61.505      -22.174      172.881      148.521       79.296    29887.919    22058.457     6287.780       13.495        2.912      459.548       73.604        0.026      346.218       24.303      859.812
06/28/2014  21:10:00     -461.310      -61.892      -10.245      194.964      128.359       87.655    38010.910    16476.081     7683.432       13.945        3.109      465.443       98.990        0.045      346.211       24.290      859.820
06/28/2014  21:11:00     -519.710      -79.694      -43.482      175.825      110.523       69.603    30914.571    12215.240     4844.645       16.315        2.399      525.785       76.528        0.021      346.221       24.309      859.829
06/28/2014  21:12:00     -510.021      -63.911      -29.970      187.488      135.617       78.643    35151.774    18391.852     6184.744       16.241        2.986      514.010       93.179        0.033      346.208       24.285      859.801
06/28/2014  21:13:00     -438.631      -78.393       -3.916      231.767      133.768       92.932    53716.010    17893.902     8636.266       13.939        4.012      445.581      110.149        0.061      346.142       24.174      859.813
06/28/2014  21:14:00     -516.330     -109.982      -22.103      217.845      136.320       90.149    47456.638    18583.145     8126.873       17.666        3.708      527.913      108.507        0.042      346.137       24.164      859.811
06/28/2014  21:15:00     -545.664     -139.174      -13.124      221.848      162.087       79.501    49216.369    26272.116     6320.421       19.954        4.090      563.133       89.177        0.025      346.162       24.207      859.804
06/28/2014  21:16:00     -437.667      -88.711      -12.512      191.918      147.885       89.678    36832.478    21870.113     8042.214       13.315        3.337      446.567       80.618        0.033      346.108       24.117      859.782
06/28/2014  21:17:00     -530.577     -121.323      -14.896      172.077      163.247       85.629    29610.487    26649.442     7332.295       18.001        3.180      544.271       84.545        0.024      346.136       24.162      859.780
06/28/2014  21:18:00     -485.919      -42.784      -35.427      191.559      137.258       86.786    36694.947    18839.659     7531.836       15.112        3.153      487.798       82.922        0.029      346.120       24.135      859.785
06/28/2014  21:19:00     -599.948     -101.741      -34.215      176.354      149.866       86.455    31100.908    22459.671     7474.446       21.624        3.052      608.514       85.555        0.020      346.138       24.165      859.738
06/28/2014  21:20:00     -564.572      -67.813      -22.300      207.247      143.825       89.330    42951.240    20685.542     7979.790       19.772        3.581      568.630      103.964        0.033      346.092       24.088      859.774
06/28/2014  21:21:00     -611.271     -128.694      -13.508      229.848      155.430      100.214    52829.962    24158.510    10042.914       23.870        4.352      624.671      105.741        0.029      346.084       24.075      859.779
06/28/2014  21:22:00     -676.597     -127.555      -19.483      211.449      139.420       94.820    44710.470    19437.838     8990.856       27.377        3.657      688.516      104.833        0.023      346.149       24.186      859.796
06/28/2014  21:23:00     -660.502     -161.392      -34.923      247.653      225.476       92.744    61331.964    50839.382     8601.478       29.213        6.039      679.934      104.474        0.024      346.135       24.161      859.794
06/28/2014  21:24:00     -434.034      -61.582      -13.838      186.479      170.216       95.052    34774.439    28973.644     9034.903       13.256        3.639      438.381       92.588        0.045      346.094       24.090      859.801
06/28/2014  21:25:00     -497.307     -113.348      -14.079      220.643      127.903       87.311    48683.208    16359.189     7623.206       16.650        3.633      510.061       89.434        0.031      346.072       24.052      859.821
06/28/2014  21:26:00     -502.919     -106.928      -20.579      201.594      184.031       90.080    40640.049    33867.477     8114.369       17.369        4.131      514.161      102.999        0.040      346.070       24.049      859.817
06/28/2014  21:27:00     -615.237      -78.110      -38.120      234.725      157.993       91.622    55095.941    24961.809     8394.528       23.725        4.423      620.175      114.905        0.034      346.065       24.041      859.817
06/28/2014  21:28:00     -558.476     -120.356      -21.842      264.570      172.516       96.183    69997.214    29761.902     9251.196       21.792        5.451      571.298      111.270        0.038      346.029       23.978      859.824
06/28/2014  21:29:00     -629.678      -98.637      -33.613      225.853      159.213       85.899    51009.654    25348.717     7378.663       24.553        4.187      637.357       99.067        0.024      346.005       23.939      859.814
06/28/2014  21:30:00     -549.316      -76.597      -10.694      203.051      159.239       95.223    41229.585    25357.113     9067.483       19.168        3.783      554.631      104.619        0.036      345.948       23.840      859.815
06/28/2014  21:31:00     -597.792      -55.103      -30.015      254.448      160.523      105.423    64743.694    25767.749    11114.014       23.144        5.081      600.327      124.900        0.043      345.970       23.878      859.820
06/28/2014  21:32:00     -656.506     -157.562      -23.423      227.314      150.014       95.804    51671.495    22504.239     9178.363       26.985        4.168      675.149       98.185        0.021      345.984       23.903      859.795
06/28/2014  21:33:00     -588.241     -132.549      -24.574      208.548      208.321       96.748    43492.388    43397.724     9360.169       23.021        4.813      602.990       90.005        0.022      345.979       23.893      859.796
06/28/2014  21:34:00     -583.632     -168.590      -10.967      224.182      198.150      104.728    50257.411    39263.341    10967.975       23.481        5.024      607.494      111.038        0.033      345.977       23.890      859.797
06/28/2014  21:35:00     -498.737     -163.368      -10.551      228.085      154.253       92.074    52022.637    23794.142     8477.595       17.990        4.215      524.812      111.121        0.045      345.960       23.860      859.810
06/28/2014  21:36:00     -574.203      -88.711      -25.549      226.388      159.750       97.112    51251.498    25520.018     9430.805       21.220        4.310      581.015      112.802        0.038      345.959       23.859      859.804
06/28/2014  21:37:00     -567.031     -101.010      -11.397      277.233      175.966      115.138    76858.272    30964.196    13256.789       22.645        6.054      575.958      131.313        0.052      345.958       23.857      859.819
06/28/2014  21:38:00     -577.783      -49.124      -35.509      222.795      172.599       95.785    49637.493    29790.506     9174.768       21.304        4.430      579.868       96.675        0.028      345.935       23.819      859.813
06/28/2014  21:39:00     -647.524      -72.566      -38.094      249.433      167.528      101.432    62216.791    28065.649    10288.545       26.327        5.029      651.577      116.139        0.032      345.967       23.872      859.807
06/28/2014  21:40:00     -606.782      -93.806      -25.251      252.871      183.580      107.956    63943.749    33701.728    11654.411       24.344        5.465      613.991      126.570        0.042      345.924       23.799      859.807
06/28/2014  21:41:00     -609.779     -123.699      -25.262      270.331      183.136      107.205    73078.826    33538.923    11492.846       25.292        5.906      622.199      123.456        0.039      345.893       23.745      859.801
06/28/2014  21:42:00     -541.948      -68.904      -15.109      230.008      160.455      101.500    52903.620    25745.722    10302.172       19.380        4.448      546.311      105.029        0.037      345.862       23.695      859.804
06/28/2014  21:43:00     -638.801      -13.438      -35.520      242.105      169.197      107.712    58614.779    28627.504    11601.847       25.416        4.942      638.943      127.434        0.040      345.856       23.683      859.806
06/28/2014  21:44:00     -537.459      -48.903      -32.093      265.566      141.886       93.470    70525.124    20131.689     8736.643       19.582        4.970      539.680      119.827        0.049      345.831       23.640      859.819
06/28/2014  21:45:00     -514.396      -86.447      -23.822      221.894      139.351       86.749    49236.927    19418.753     7525.357       17.440        3.809      521.609       97.125        0.035      345.866       23.700      859.828
06/28/2014  21:46:00     -440.040      -69.334      -18.831      210.988      163.006       90.647    44515.897    26570.971     8216.856       13.904        3.965      445.469      109.212        0.060      345.867       23.702      859.848
06/28/2014  21:47:00     -464.680      -92.767      -14.565      212.150      141.444       95.130    45007.510    20006.273     9049.733       14.939        3.703      473.849      108.976        0.053      345.857       23.684      859.859
06/28/2014  21:48:00     -556.121      -69.640      -21.482      176.743      158.762       85.374    31238.169    25205.352     7288.694       18.915        3.187      560.464       91.586        0.027      345.853       23.677      859.856
06/28/2014  21:49:00     -477.953      -99.766      -17.065      235.310      195.356      105.860    55370.873    38163.987    11206.284       17.169        5.237      488.255      119.053        0.059      345.837       23.649      859.863
06/28/2014  21:50:00     -562.381     -125.111      -11.170      215.521      180.735      100.712    46449.348    32665.202    10142.898       21.064        4.463      576.129      105.047        0.033      345.835       23.646      859.885
06/28/2014  21:51:00     -274.347      -88.646        2.627      171.375      145.301       81.083    29369.384    21112.348     6574.389        7.008        2.853      288.313       82.873        0.083      345.808       23.602      859.895
06/28/2014  21:52:00     -361.055      -22.866      -14.336      242.600      150.255       80.956    58854.654    22576.447     6553.897       10.952        4.399      361.778      106.589        0.087      345.792       23.575      859.914
06/28/2014  21:53:00     -423.806     -164.899      -24.027      217.244      182.866       98.784    47195.038    33440.018     9758.278       14.887        4.520      454.756       95.381        0.044      345.810       23.604      859.920
06/28/2014  21:54:00     -554.288      -50.314      -33.891      246.526      200.624      104.517    60775.114    40249.802    10923.817       21.141        5.597      556.567      122.744        0.049      345.838       23.652      859.948
06/28/2014  21:55:00     -339.712      -94.145      -13.233      285.193      162.533      104.026    81335.152    26417.136    10821.352       12.149        5.929      352.516      128.051        0.132      345.814       23.612      859.954
06/28/2014  21:56:00     -383.231     -123.740      -12.426      199.111      176.873       90.826    39645.249    31284.066     8249.278       12.074        3.959      402.713       80.881        0.040      345.797       23.581      859.983
06/28/2014  21:57:00     -341.036      -87.883       -3.775      240.916      145.057       93.315    58040.398    21041.641     8707.728       10.590        4.389      352.177      113.656        0.104      345.811       23.605      859.973
06/28/2014  21:58:00     -363.077     -176.023       -9.517      232.995      155.929       90.020    54286.448    24313.746     8103.569       12.479        4.335      403.495      116.785        0.084      345.815       23.612      859.994
06/28/2014  21:59:00     -304.721     -127.602       -7.487      239.686      166.336      101.826    57449.250    27667.501    10368.448       10.232        4.774      330.359      116.586        0.125      345.827       23.633      859.997
06/28/2014  22:00:00     -357.590     -120.751        1.716      290.440      153.650      106.264    84355.357    23608.456    11291.961       13.084        5.963      377.427      134.989        0.128      345.809       23.602      859.990
06/28/2014  22:01:00     -241.960     -105.743        1.331      213.721      156.050       86.340    45676.694    24351.477     7454.576        7.359        3.874      264.057      112.380        0.181      345.775       23.544      860.010
06/28/2014  22:02:00     -396.207     -195.797       -3.076      271.886      169.344      110.188    73921.890    28677.500    12141.441       15.501        5.737      441.946      130.602        0.087      345.783       23.558      860.001
06/28/2014  22:03:00     -336.624      -89.867        1.450      243.934      166.407      118.345    59503.958    27691.399    14005.464       11.128        5.060      348.413      132.072        0.144      345.760       23.519      860.023
06/28/2014  22:04:00     -367.881     -204.765       -6.423      243.866      244.593      109.033    59470.389    59825.513    11888.195       15.422        6.559      421.029      127.433        0.092      345.771       23.537      860.031
06/28/2014  22:05:00     -474.639     -117.677      -15.632      314.913      160.540       99.411    99169.901    25773.075     9882.466       18.708        6.741      489.009      140.472        0.083      345.785       23.561      860.049
06/28/2014  22:06:00     -501.658     -115.775      -18.032      254.865      217.066      112.568    64956.058    47117.708    12671.489       19.505        6.237      514.844      127.383        0.061      345.822       23.625      860.055
06/28/2014  22:07:00     -312.239     -158.627       10.043      285.794      178.030      124.822    81677.940    31694.595    15580.464       12.583        6.448      350.222      147.898        0.178      345.838       23.653      860.062
06/28/2014  22:08:00     -408.092     -243.508      -14.282      236.302      184.132       89.030    55838.682    33904.592     7926.414       16.184        4.883      475.221      102.884        0.047      345.852       23.676      860.093
06/28/2014  22:09:00     -324.554     -167.119        2.648      243.666      168.862       92.771    59373.020    28514.515     8606.407       11.487        4.825      365.054      111.544        0.093      345.847       23.667      860.112
06/28/2014  22:10:00     -407.545     -169.405      -14.772      222.261      145.150      102.732    49400.102    21068.465    10553.924       13.800        4.051      441.352      117.601        0.071      345.855       23.681      860.125
06/28/2014  22:11:00     -255.500     -120.529        0.959      200.300      156.413      101.206    40119.989    24465.116    10242.638        7.731        3.741      282.502      115.296        0.167      345.822       23.625      860.143
06/28/2014  22:12:00     -276.343     -150.412        2.575      185.443      157.075       84.587    34389.163    24672.622     7154.893        8.260        3.311      314.626       98.134        0.097      345.799       23.586      860.185
06/28/2014  22:13:00     -438.339     -177.446      -10.445      222.095      164.081       89.043    49326.016    26922.558     7928.640       15.394        4.209      472.893      104.187        0.049      345.766       23.529      860.179
06/28/2014  22:14:00     -155.938      -44.582       22.995      223.102      174.034       90.287    49774.493    30287.952     8151.785        5.751        4.411      162.185       96.789        0.356      345.736       23.478      860.194
06/28/2014  22:15:00     -442.760     -192.664      -28.218      176.383      122.309       75.221    31110.898    14959.525     5658.253       14.283        2.586      482.862       74.609        0.024      345.776       23.546      860.211
06/28/2014  22:16:00     -296.246     -140.953       -7.528      187.893      127.957       78.841    35303.746    16373.073     6215.902        8.278        2.895      328.069       90.872        0.077      345.735       23.474      860.232
06/28/2014  22:17:00     -400.732     -100.476      -11.154      220.168      152.660       96.927    48474.067    23305.113     9394.827       12.598        4.059      413.136      116.418        0.079      345.767       23.530      860.238
06/28/2014  22:18:00     -194.946     -106.337       22.481      218.839      162.011       96.948    47890.398    26247.646     9399.008        6.666        4.177      222.061      120.946        0.297      345.737       23.478      860.241
06/28/2014  22:19:00     -241.931      -65.381        1.161       91.388      102.691       53.879     8351.823    10545.423     2902.900        4.230        1.090      250.609       44.960        0.032      345.730       23.467      860.259
06/28/2014  22:20:00     -337.108      -17.441        1.976      200.625      136.099       89.208    40250.310    18523.017     7958.148        9.033        3.337      337.559       90.378        0.072      345.694       23.405      860.262
06/28/2014  22:21:00     -208.177     -130.621        8.187      183.941      177.236       96.651    33834.327    31412.721     9341.505        6.752        3.729      245.763       95.722        0.152      345.717       23.446      860.264
06/28/2014  22:22:00     -246.119      -85.090       -7.690      136.725      124.389       67.594    18693.749    15472.562     4568.885        5.330        1.937      260.413       63.408        0.059      345.713       23.437      860.303
06/28/2014  22:23:00     -177.950      -72.367        3.722      128.650      104.884       56.778    16550.782    11000.558     3223.725        3.384        1.539      192.102       55.631        0.084      345.658       23.344      860.326
06/28/2014  22:24:00     -344.858      -78.150      -31.590      128.627       88.654       61.671    16544.778     7859.612     3803.285        7.712        1.410      353.602       54.264        0.024      345.683       23.385      860.338
06/28/2014  22:25:00     -298.861      -23.218        9.599      241.014      130.073       71.384    58087.618    16918.994     5095.644        8.501        4.005      299.761       69.191        0.053      345.646       23.322      860.361
06/28/2014  22:26:00     -355.186     -158.433      -17.961      165.900      142.888       73.582    27522.877    20417.025     5414.378       10.246        2.668      388.919       65.693        0.029      345.667       23.357      860.380
06/28/2014  22:27:00     -297.703      -93.297      -17.503      138.789      148.546       59.205    19262.403    22066.041     3505.260        7.123        2.242      311.980       48.699        0.024      345.647       23.323      860.393
06/28/2014  22:28:00     -169.484      -90.181        6.163      187.377      131.162       71.647    35110.103    17203.358     5133.316        4.716        2.872      191.983       90.728        0.223      345.604       23.250      860.413
06/28/2014  22:29:00     -150.843     -111.177        0.687      125.400      111.830       62.857    15725.058    12505.837     3950.975        3.364        1.609      187.387       76.020        0.165      345.579       23.206      860.438
06/28/2014  22:30:00     -249.139     -111.140       -4.645      145.811      159.170       65.857    21260.837    25335.064     4337.126        6.268        2.547      272.805       74.808        0.075      345.618       23.274      860.457
06/28/2014  22:31:00     -205.988        2.997       -0.530       92.462      103.780       52.717     8549.301    10770.312     2779.034        3.227        1.105      206.009       47.402        0.053      345.568       23.187      860.463
06/28/2014  22:32:00     -191.218      -89.252       -0.620      177.267      143.141       81.630    31423.599    20489.393     6663.450        5.154        2.929      211.022       96.143        0.208      345.566       23.185      860.444
06/28/2014  22:33:00     -227.006     -128.048        8.389      200.830      143.321       56.910    40332.806    20540.946     3238.770        6.604        3.206      260.630       55.803        0.046      345.544       23.148      860.455
06/28/2014  22:34:00     -278.376      -85.423      -20.272      159.100       84.545       54.617    25312.946     7147.863     2982.998        6.032        1.772      291.188       65.690        0.051      345.572       23.194      860.450
06/28/2014  22:35:00     -195.344        8.526       12.890      171.480       92.238       64.851    29405.553     8507.937     4205.695        4.025        2.106      195.530       76.805        0.154      345.521       23.109      860.468
06/28/2014  22:36:00     -294.460      -58.178        2.887      197.307      165.785       82.875    38929.897    27484.522     6868.292        8.168        3.664      300.152       83.332        0.077      345.567       23.188      860.465
06/28/2014  22:37:00     -366.963      -95.320      -23.746      204.945      136.566       70.964    42002.355    18650.241     5035.834       10.499        3.284      379.141       78.438        0.043      345.587       23.220      860.468
06/28/2014  22:38:00     -317.395      -50.061      -14.417      153.696      106.532       65.521    23622.422    11349.125     4293.016        7.135        1.963      321.319       72.534        0.051      345.576       23.200      860.471
06/28/2014  22:39:00     -309.385      -15.045      -22.714      107.615       80.158       59.589    11581.037     6425.296     3550.906        5.901        1.078      309.751       60.041        0.038      345.530       23.122      860.485
06/28/2014  22:40:00     -176.455       -9.548      -20.809      106.456      110.506       51.819    11332.941    12211.681     2685.205        2.894        1.311      176.713       50.441        0.081      345.510       23.089      860.478
06/28/2014  22:41:00     -204.716       57.187        1.369      135.714       96.180       58.488    18418.405     9250.665     3420.832        3.813        1.554      212.554       63.477        0.089      345.463       23.008      860.484
06/28/2014  22:42:00     -254.030      -44.809      -27.217      108.066       91.296       41.516    11678.345     8334.973     1723.545        4.450        1.087      257.951       28.198        0.012      345.527       23.117      860.502
06/28/2014  22:43:00     -317.358        6.649      -27.364      162.058      103.641       72.247    26262.755    10741.515     5219.592        7.186        2.111      317.427       83.051        0.068      345.534       23.129      860.510
06/28/2014  22:44:00     -341.957     -106.924      -14.351      175.261      126.774       53.574    30716.586    16071.578     2870.216        8.911        2.483      358.283       62.015        0.030      345.517       23.102      860.520
06/28/2014  22:45:00     -391.243     -123.123      -31.954      130.028      141.519       63.060    16907.398    20027.706     3976.582       10.507        2.046      410.159       63.163        0.024      345.537       23.134      860.514
06/28/2014  22:46:00     -422.187        7.347      -40.472      155.690      129.584       59.888    24239.427    16791.932     3586.550       11.227        2.231      422.250       67.451        0.026      345.544       23.146      860.535
06/28/2014  22:47:00     -493.822       -1.450      -58.927      141.367      109.453       75.021    19984.491    11980.060     5628.209       14.246        1.880      493.824       70.612        0.020      345.536       23.132      860.559
06/28/2014  22:48:00     -342.064      -36.688      -18.210      142.319      140.724       69.358    20254.756    19803.368     4810.498        8.177        2.243      344.026       69.058        0.040      345.487       23.049      860.568
06/28/2014  22:49:00     -285.601        8.921      -24.343      104.225       99.011       60.752    10862.909     9803.086     3690.807        5.329        1.218      285.740       57.117        0.040      345.499       23.069      860.600
06/28/2014  22:50:00     -299.424       30.185      -16.477      163.202      105.921       66.781    26635.001    11219.206     4459.639        6.657        2.116      300.942       84.343        0.079      345.433       22.957      860.593
06/28/2014  22:51:00     -207.373      -59.703        1.634      119.438      117.562       69.880    14265.441    13820.844     4883.158        3.976        1.648      215.797       51.009        0.056      345.395       22.892      860.597
06/28/2014  22:52:00     -257.201       13.630      -19.897      115.713      100.620       57.390    13389.397    10124.441     3293.607        4.677        1.340      257.562       41.288        0.026      345.454       22.990      860.616
06/28/2014  22:53:00     -221.645      -76.982       -0.824      167.941       90.070       53.774    28204.155     8112.532     2891.645        4.712        1.960      234.633       68.700        0.086      345.438       22.967      860.611
06/28/2014  22:54:00     -285.995       23.347      -24.924      137.424      133.830       53.926    18885.417    17910.559     2907.969        6.132        1.985      286.946       42.996        0.022      345.436       22.962      860.619
06/28/2014  22:55:00     -204.623      -86.085        7.946      109.205      111.217       56.267    11925.655    12369.223     3166.017        3.840        1.373      221.994       46.704        0.044      345.356       22.824      860.636
06/28/2014  22:56:00     -245.981      -88.911       -5.518       78.856       97.041       46.851     6218.240     9416.936     2195.060        4.313        0.892      261.557       42.042        0.026      345.446       22.978      860.633
06/28/2014  22:57:00     -121.041      -53.682        4.643      107.631      106.923       57.627    11584.459    11432.598     3320.880        2.194        1.317      132.411       55.428        0.175      345.326       22.774      860.658
06/28/2014  22:58:00     -141.911      -18.736      -16.367      105.384       78.724       44.494    11105.836     6197.427     1979.710        2.002        0.964      143.142       43.469        0.092      345.329       22.781      860.660
06/28/2014  22:59:00     -320.858       67.273      -20.638      178.125       90.642       62.637    31728.347     8215.997     3923.345        7.588        2.193      327.835       55.711        0.029      345.336       22.791      860.665
06/28/2014  23:00:00     -221.831      -55.800      -14.579       91.433       99.595       43.562     8359.917     9919.217     1897.662        3.635        1.009      228.741       41.771        0.033      345.369       22.846      860.669
06/28/2014  23:01:00     -284.191      -33.208        1.649      107.385       91.611       55.496    11531.527     8392.589     3079.775        5.243        1.150      286.125       51.000        0.032      345.405       22.908      860.665
06/28/2014  23:02:00     -268.982      -23.414      -15.806      103.193       77.819       52.086    10648.699     6055.859     2712.911        4.628        0.971      269.999       54.944        0.041      345.376       22.858      860.669
06/28/2014  23:03:00     -300.282     -110.625       -4.963      118.753      135.783       71.824    14102.322    18437.107     5158.635        7.006        1.885      320.011       69.278        0.047      345.369       22.846      860.671
06/28/2014  23:04:00     -287.593      -42.381      -21.396       99.635      103.137       65.296     9927.126    10637.298     4263.521        5.489        1.241      290.699       58.375        0.040      345.388       22.877      860.655
06/28/2014  23:05:00     -277.057      -19.108      -11.694      156.545      115.876       64.460    24506.233    13427.259     4155.096        5.967        2.104      277.716       72.492        0.068      345.347       22.809      860.672
06/28/2014  23:06:00     -231.026       -7.444      -15.618       89.607       81.017       53.691     8029.383     6563.754     2882.772        3.557        0.874      231.146       48.141        0.043      345.315       22.753      860.687
06/28/2014  23:07:00     -257.757      -35.256      -23.386       98.073       89.674       49.528     9618.234     8041.432     2453.061        4.417        1.006      260.157       49.373        0.036      345.290       22.711      860.702
06/28/2014  23:08:00     -253.316     -115.119       -9.368      101.422       98.587       47.397    10286.408     9719.402     2246.435        4.988        1.113      278.246       49.784        0.032      345.314       22.752      860.717
06/28/2014  23:09:00     -233.290      -31.184      -11.038      141.701       75.872       46.122    20079.117     5756.536     2127.276        4.174        1.398      235.365       54.361        0.053      345.297       22.723      860.724
06/28/2014  23:10:00     -223.259       16.777      -11.497       97.263       90.493       58.250     9460.164     8188.987     3393.109        3.565        1.052      223.888       54.486        0.059      345.296       22.722      860.725
06/28/2014  23:11:00     -394.787       -6.335      -37.400      169.378       89.841       57.170    28688.990     8071.375     3268.384        9.866        2.001      394.838       65.694        0.028      345.379       22.863      860.723
06/28/2014  23:12:00     -295.073       29.910      -11.830      117.468      123.296       64.276    13798.626    15201.786     4131.356        6.061        1.657      296.585       57.684        0.038      345.319       22.760      860.747
06/28/2014  23:13:00     -187.616      -68.081       -6.741      148.071       96.340       51.807    21924.885     9281.483     2683.962        3.688        1.695      199.587       66.943        0.112      345.272       22.682      860.735
06/28/2014  23:14:00     -114.915      -50.653        3.758       64.714       56.615       34.575     4187.919     3205.218     1195.400        1.219        0.429      125.583       35.821        0.081      345.200       22.558      860.749
06/28/2014  23:15:00     -244.309      -28.447      -11.332       90.324       74.952       42.313     8158.366     5617.786     1790.364        3.809        0.778      245.959       35.704        0.021      345.253       22.648      860.756
06/28/2014  23:16:00      -81.744      -16.354        5.091       96.150       61.181       38.473     9244.911     3743.138     1480.198        1.072        0.723       83.364       45.079        0.292      345.172       22.511      860.746
06/28/2014  23:17:00     -186.433       12.917      -19.441      111.591       80.254       45.614    12452.451     6440.711     2080.631        2.813        1.049      186.880       33.004        0.031      345.167       22.501      860.757
06/28/2014  23:18:00     -119.392      -77.850       -8.190       89.689       96.493       41.049     8044.106     9310.962     1684.989        1.971        0.952      142.531       36.413        0.065      345.203       22.564      860.752
06/28/2014  23:19:00      -86.951      -76.482        1.261       71.096       86.031       35.868     5054.633     7401.332     1286.538        1.357        0.687      115.802       22.670        0.038      345.203       22.563      860.773
06/28/2014  23:20:00     -112.088      -15.705       -0.510       61.722       48.362       29.517     3809.642     2338.881      871.254        0.991        0.351      113.183       24.086        0.045      345.249       22.646      860.795
06/28/2014  23:21:00       17.586      -28.838       16.057       54.100       64.129       44.576     2926.804     4112.499     1986.993        0.521        0.451       33.777       41.740        1.527      344.286       20.998      860.813
06/28/2014  23:22:00       33.876        4.893       14.197       50.532       45.602       30.309     2553.511     2079.574      918.644        0.346        0.278       34.228       25.817        0.569      343.955       20.433      860.827
06/28/2014  23:23:00        3.794       24.889       11.647      115.206       81.279       69.014    13272.525     6606.312     4762.868        1.270        1.232       25.176       65.012        6.668      345.172       22.511      860.870
06/28/2014  23:24:00      -60.991      -11.903       30.345       62.333       65.534       42.191     3885.426     4294.684     1780.119        0.737        0.498       62.142       47.015        0.572      345.173       22.514      860.857
06/28/2014  23:25:00      -46.839      -49.973        5.699       52.779      108.880       32.270     2785.665    11854.866     1041.326        1.020        0.784       68.493       30.015        0.192      345.082       22.356      860.909
06/28/2014  23:26:00       17.365       -0.119       26.811       37.267       34.580       27.533     1388.804     1195.777      758.083        0.218        0.167       17.365       18.863        1.180      344.328       21.068      860.940
06/28/2014  23:27:00     -119.141       21.529       -6.266       83.579       42.283       30.967     6985.527     1787.877      958.960        1.221        0.487      121.071       27.749        0.053      345.136       22.449      860.956
06/28/2014  23:28:00      -30.002     -135.738        7.385       49.757       73.671       35.907     2475.746     5427.416     1289.340        1.428        0.460      139.014       30.648        0.049      345.083       22.361      860.976
06/28/2014  23:29:00       35.278      -66.901        8.767       42.940       54.112       34.592     1843.874     2928.084     1196.636        0.588        0.298       75.632       25.552        0.114      344.937       22.111      860.986
06/28/2014  23:30:00       26.327       28.363       18.748       39.586       35.412       22.430     1567.019     1254.031      503.124        0.259        0.166       38.698       17.412        0.202      343.467       19.599      860.984
06/28/2014  23:31:00       19.442        6.898        3.048       20.664       22.722       15.754      426.985      516.302      248.191        0.081        0.060       20.629        5.051        0.060      344.381       21.160      861.005
06/28/2014  23:32:00       87.537       26.947        3.738       31.687       59.454       29.782     1004.094     3534.808      886.956        0.691        0.271       91.591       22.117        0.058      344.165       20.791      861.013
06/28/2014  23:33:00       46.439       -5.090       20.906       37.555       83.399       39.267     1410.403     6955.440     1541.919        0.626        0.495       46.718       35.555        0.579      344.281       20.989      861.012
06/28/2014  23:34:00        4.348       20.907       19.666       23.567       16.176       16.079      555.401      261.656      258.524        0.096        0.054       21.354       13.245        0.385      344.067       20.623      861.026
06/28/2014  23:35:00      -20.700       30.667        5.189       25.732       24.389       18.995      662.138      594.806      360.820        0.151        0.081       36.999       14.986        0.164      344.865       21.988      861.046
06/28/2014  23:36:00       50.081       31.566       15.369       38.320       35.072       17.075     1468.445     1230.044      291.568        0.336        0.150       59.199       17.866        0.091      344.353       21.112      861.063
06/28/2014  23:37:00       71.813        9.953       18.882       65.437       45.851       32.569     4282.037     2102.320     1060.762        0.653        0.372       72.499       28.442        0.154      344.093       20.670      861.078
06/28/2014  23:38:00       34.931       16.855        3.578       44.292       26.739       21.384     1961.746      714.964      457.266        0.232        0.157       38.784       13.255        0.117      343.904       20.345      861.097
06/28/2014  23:39:00        2.767        7.947       14.733       26.403       39.486       20.308      697.095     1559.163      412.402        0.148        0.133        8.415       10.208        1.472      343.777       20.128      861.102
06/28/2014  23:40:00      105.215       42.674       10.866       44.299       50.815       36.333     1962.391     2582.147     1320.087        0.944        0.293      113.540       12.661        0.012      344.032       20.564      861.105
06/28/2014  23:41:00       66.265       31.516       16.682       32.222       36.583       37.406     1038.271     1338.345     1399.215        0.472        0.189       73.378       21.367        0.085      344.142       20.752      861.110
06/28/2014  23:42:00       43.047      -17.835      -24.033       18.368       23.519       17.388      337.399      553.154      302.350        0.197        0.060       46.595       12.712        0.074      343.661       19.929      861.113
06/28/2014  23:43:00        4.264       40.077      -11.840       22.472       39.402       18.824      504.986     1552.506      354.331        0.209        0.121       40.304       17.345        0.185      344.178       20.814      861.129
06/28/2014  23:44:00      -43.179       76.882       -9.165       34.022       36.104       26.540     1157.485     1303.487      704.349        0.551        0.158       88.178       21.320        0.058      344.724       21.744      861.133
06/28/2014  23:45:00      -34.206       58.025        3.383       29.371       22.673       19.830      862.669      514.056      393.213        0.316        0.088       67.357       15.501        0.053      344.572       21.486      861.117
06/28/2014  23:46:00      -26.993       43.966       -1.395       32.331       27.032       18.632     1045.290      730.752      347.138        0.239        0.106       51.590       16.574        0.103      344.462       21.297      861.137
06/28/2014  23:47:00      -61.652       23.246        3.753       28.753       21.021       22.935      826.731      441.894      526.007        0.307        0.090       65.889       19.802        0.090      344.724       21.745      861.138
06/28/2014  23:48:00      -25.612       17.981        4.066       28.728       24.560       16.674      825.283      603.207      278.025        0.135        0.085       31.294       15.526        0.246      344.154       20.772      861.126
06/28/2014  23:49:00       22.164       -7.578       -2.707       14.555       23.430       14.178      211.857      548.958      201.010        0.076        0.048       23.424        9.213        0.155      344.084       20.653      861.121
06/28/2014  23:50:00        6.459       -3.838        1.877        6.009        7.049        7.240       36.110       49.685       52.422        0.010        0.007        7.513        4.522        0.362      344.328       21.070      861.107
06/28/2014  23:51:00      -21.214       -9.866        5.351       25.288       42.209       15.820      639.464     1781.625      250.273        0.162        0.134       23.396       16.111        0.474      344.680       21.671      861.108
06/28/2014  23:52:00      -79.392       46.749      -13.899       32.472       32.878       17.042     1054.435     1080.984      290.436        0.555        0.121       92.133       13.746        0.022      344.725       21.748      861.111
06/28/2014  23:53:00      -12.088      123.202       -5.432       39.699      103.868       34.402     1576.046    10788.656     1183.471        1.445        0.677      123.794       47.047        0.144      344.527       21.406      861.102
06/28/2014  23:54:00     -108.746      150.203      -12.708       80.647       77.150       40.255     6503.937     5952.047     1620.449        2.431        0.704      185.436       44.619        0.058      344.606       21.541      861.123
06/28/2014  23:55:00     -203.666       70.460      -20.065       86.799       44.250       34.524     7534.058     1958.104     1191.877        2.876        0.534      215.509       40.483        0.035      344.805       21.882      861.145
06/28/2014  23:56:00      -35.031      141.215      -12.639       62.725       96.443       40.934     3934.454     9301.215     1675.626        1.812        0.746      145.495       46.640        0.103      344.665       21.643      861.145
06/28/2014  23:57:00     -104.772      154.667      -13.134       81.963      114.768       46.048     6718.013    13171.640     2120.374        2.854        1.101      186.813       47.763        0.065      344.705       21.710      861.169
06/28/2014  23:58:00      -99.117      152.659      -22.168       54.410       77.064       42.090     2960.419     5938.829     1771.592        2.214        0.534      182.014       43.615        0.057      344.713       21.725      861.181
06/28/2014  23:59:00      -82.395       22.166       -9.627       59.750       36.758       21.031     3570.081     1351.145      442.315        0.637        0.268       85.325       28.289        0.110      344.702       21.706      861.187
